[[{"header":{"parameterUnit":"m.s-1","parameterCategory":1,"la1":31.0,"la2":29.5877,"lo1":-88.7671,"lo2":-86.6584,"dy":0.0162,"dx":0.0185,"nx":115,"ny":88,"refTime":"2023-08-29T06:00:00:Z","depth":0,"parameterNumber":2,"parameterNumberName":"U-component_of_WINDS"},"data":[0.0,0.0,0.0,0.0,0.0,0.0,0.0,0.0,0.0,0.0,0.0,0.0,0.0,0.0,0.0,0.0,0.0,0.0,0.0,0.0,0.0,0.0,0.0,0.0,0.0,0.0,0.0,0.0,0.0,0.0,0.0,0.0,0.0,0.0,0.0,0.0,0.0,0.0,0.0,0.0,0.0,0.0,0.0,0.0,0.0,0.0,0.0,0.0,0.0,0.0,0.0,0.0,0.0,0.0,0.0,0.0,0.0,0.0,0.0,0.0,0.0,0.0,0.0,0.0,0.0,0.0,0.0,0.0,0.0,0.0,0.0,0.0,0.0,0.0,0.0,0.0,0.0,0.0,0.0,0.0,0.0,0.0,0.0,0.0,0.0,0.0,0.0,0.0,0.0,0.0,0.0,0.0,0.0,0.0,0.0,0.0,0.0,0.0,0.0,0.0,0.0,0.0,0.0,0.0,0.0,0.0,0.0,0.0,0.0,0.0,0.0,0.0,0.0,0.0,0.0,0.0,0.0,0.0,0.0,0.0,0.0,0.0,0.0,0.0,0.0,0.0,0.0,0.0,0.0,0.0,0.0,0.0,0.0,0.0,0.0,0.0,0.0,0.0,0.0,0.0,0.0,0.0,0.0,0.0,0.0,0.0,0.0,0.0,0.0,0.0,0.0,0.0,0.0,0.0,0.0,0.0,0.0,0.0,0.0,0.0,0.0,0.0,0.0,0.0,0.0,0.0,0.0,0.0,0.0,0.0,0.0,0.0,0.0,0.0,0.0,0.0,0.0,0.0,0.0,0.0,0.0,0.0,0.0,0.0,0.0,0.0,0.0,0.0,0.0,0.0,0.0,0.0,0.0,0.0,0.0,0.0,0.0,0.0,0.0,0.0,0.0,0.0,0.0,0.0,0.0,0.0,0.0,0.0,0.0,0.0,0.0,0.0,0.0,0.0,0.0,0.0,0.0,0.0,0.0,0.0,0.0,0.0,0.0,0.0,0.0,0.0,0.0,0.0,0.0,0.0,0.0,0.0,0.0,0.0,0.0,0.0,0.0,0.0,0.0,0.0,0.0,0.0,0.0,0.0,0.0,0.0,0.0,0.0,0.0,0.0,0.0,0.0,0.0,0.0,0.0,0.0,0.0,0.0,0.0,0.0,0.0,0.0,0.0,0.0,0.0,0.0,0.0,0.0,0.0,0.0,0.0,0.0,0.0,0.0,0.0,0.0,0.0,0.0,0.0,0.0,0.0,0.0,0.0,0.0,0.0,0.0,0.0,0.0,0.0,0.0,0.0,0.0,0.0,0.0,0.0,0.0,0.0,0.0,0.0,0.0,0.0,0.0,0.0,0.0,0.0,0.0,0.0,0.0,0.0,0.0,0.0,0.0,0.0,0.0,0.0,0.0,0.0,0.0,0.0,0.0,0.0,0.0,0.0,0.0,0.0,0.0,0.0,0.0,0.0,0.0,0.0,0.0,0.0,0.0,0.0,0.0,0.0,0.0,0.0,0.0,0.0,0.0,0.0,0.0,0.0,0.0,0.0,0.0,0.0,0.0,0.0,0.0,0.0,0.0,0.0,0.0,0.0,0.0,0.0,0.0,0.0,0.0,0.0,0.0,0.0,0.0,0.0,0.0,0.0,0.0,0.0,0.0,0.0,0.0,0.0,0.0,0.0,0.0,0.0,0.0,0.0,0.0,0.0,0.0,0.0,0.0,0.0,0.0,0.0,0.0,0.0,0.0,0.0,0.0,0.0,0.0,0.0,0.0,0.0,0.0,0.0,0.0,0.0,0.0,0.0,0.0,0.0,0.0,0.0,0.0,0.0,0.0,0.0,0.0,0.0,0.0,0.0,0.0,0.0,0.0,0.0,0.0,0.0,0.0,0.0,0.0,0.0,0.0,0.0,0.0,0.0,0.0,0.0,0.0,0.0,0.0,0.0,0.0,0.0,0.0,0.0,0.0,0.0,0.0,0.0,0.0,0.0,0.0,0.0,0.0,0.0,0.0,0.0,0.0,0.0,0.0,0.0,0.0,0.0,0.0,0.0,0.0,0.0,0.0,0.0,0.0,0.0,0.0,0.0,0.0,0.0,0.0,0.0,0.0,0.0,0.0,0.0,0.0,0.0,0.0,0.0,0.0,0.0,0.0,0.0,0.0,0.0,0.0,0.0,0.0,0.0,0.0,0.0,0.0,0.0,0.0,0.0,0.0,0.0,0.0,0.0,0.0,0.0,0.0,0.0,0.0,0.0,0.0,0.0,0.0,0.0,0.0,0.0,0.0,0.0,0.0,0.0,0.0,0.0,0.0,0.0,0.0,0.0,0.0,0.0,0.0,0.0,0.0,0.0,0.0,0.0,0.0,0.0,0.0,0.0,0.0,0.0,0.0,0.0,0.0,0.0,0.0,0.0,0.0,0.0,0.0,0.0,0.0,0.0,0.0,0.0,0.0,0.0,0.0,0.0,0.0,0.0,0.0,0.0,0.0,0.0,0.0,0.0,0.0,0.0,0.0,0.0,0.0,0.0,0.0,0.0,0.0,0.0,0.0,0.0,0.0,0.0,0.0,0.0,0.0,0.0,0.0,0.0,0.0,0.0,0.0,0.0,0.0,0.0,0.0,0.0,0.0,0.0,0.0,0.0,0.0,0.0,0.0,0.0,0.0,0.0,0.0,0.0,0.0,0.0,0.0,0.0,0.0,0.0,0.0,0.0,0.0,0.0,0.0,0.0,0.0,0.0,0.0,0.0,0.0,0.0,0.0,0.0,0.0,0.0,0.0,0.0,0.0,0.0,0.0,0.0,0.0,0.0,0.0,0.0,0.0,0.0,0.0,0.0,0.0,0.0,0.0,0.0,0.0,0.0,0.0,0.0,0.0,0.0,0.0,0.0,0.0,0.0,0.0,0.0,0.0,0.0,0.0,0.0,0.0,0.0,0.0,0.0,0.0,0.0,0.0,0.0,0.0,0.0,0.0,0.0,0.0,0.0,0.0,0.0,0.0,0.0,0.0,0.0,0.0,0.0,0.0,0.0,0.0,0.0,0.0,0.0,0.0,0.0,0.0,0.0,0.0,0.0,0.0,0.0,0.0,0.0,0.0,0.0,0.0,0.0,0.0,0.0,0.0,0.0,0.0,0.0,0.0,0.0,0.0,0.0,0.0,0.0,0.0,0.0,0.0,0.0,0.0,0.0,0.0,0.0,0.0,0.0,0.0,0.0,0.0,0.0,0.0,0.0,0.0,0.0,0.0,0.0,0.0,0.0,0.0,0.0,0.0,0.0,0.0,0.0,0.0,0.0,0.0,0.0,0.0,0.0,0.0,0.0,0.0,0.0,0.0,0.0,0.0,0.0,0.0,0.0,0.0,0.0,0.0,0.0,0.0,0.0,0.0,0.0,0.0,0.0,0.0,0.0,0.0,0.0,0.0,0.0,0.0,0.0,0.0,0.0,0.0,0.0,0.0,0.0,0.0,0.0,0.0,0.0,0.0,0.0,0.0,0.0,0.0,0.0,0.0,0.0,0.0,0.0,0.0,0.0,0.0,0.0,0.0,0.0,0.0,0.0,0.0,0.0,0.0,0.0,0.0,0.0,0.0,0.0,0.0,0.0,0.0,0.0,0.0,0.0,0.0,0.0,0.0,0.0,0.0,0.0,0.0,0.0,0.0,0.0,0.0,0.0,0.0,0.0,0.0,0.0,0.0,0.0,0.0,0.0,0.0,0.0,0.0,0.0,0.0,0.0,0.0,0.0,0.0,0.0,0.0,0.0,0.0,0.0,0.0,0.0,0.0,0.0,0.0,0.0,0.0,0.0,0.0,0.0,0.0,0.0,0.0,0.0,0.0,0.0,0.0,0.0,0.0,0.0,0.0,0.0,0.0,0.0,0.0,0.0,0.0,0.0,0.0,0.0,0.0,0.0,0.0,0.0,0.0,0.0,0.0,0.0,0.0,0.0,0.0,0.0,0.0,0.0,0.0,0.0,0.0,0.0,0.0,0.0,0.0,0.0,0.0,0.0,0.0,0.0,0.0,0.0,0.0,0.0,0.0,0.0,0.0,0.0,0.0,0.0,0.0,0.0,0.0,0.0,0.0,0.0,0.0,0.0,0.0,0.0,0.0,0.0,0.0,0.0,0.0,0.0,0.0,0.0,0.0,0.0,0.0,0.0,0.0,0.0,0.0,0.0,0.0,0.0,0.0,0.0,0.0,0.0,0.0,0.0,0.0,0.0,0.0,0.0,0.0,0.0,0.0,0.0,0.0,0.0,0.0,0.0,0.0,0.0,0.0,1.8057,0.0,0.0,0.0,0.0,0.0,0.0,0.0,0.0,0.0,0.0,0.0,0.0,0.0,0.0,0.0,0.0,0.0,0.0,0.0,0.0,0.0,0.0,0.0,0.0,0.0,0.0,0.0,0.0,0.0,0.0,0.0,0.0,0.0,0.0,0.0,0.0,0.0,0.0,0.0,0.0,0.0,0.0,0.0,0.0,0.0,0.0,0.0,0.0,0.0,0.0,0.0,0.0,0.0,0.0,0.0,0.0,0.0,0.0,0.0,0.0,0.0,0.0,0.0,0.0,0.0,0.0,0.0,0.0,0.0,0.0,0.0,0.0,0.0,0.0,0.0,0.0,0.0,0.0,0.0,0.0,0.0,0.0,0.0,0.0,0.0,0.0,0.0,0.0,0.0,0.0,0.0,0.0,0.0,0.0,0.0,0.0,0.0,0.0,0.0,0.0,0.0,0.0,0.0,0.0,0.0,0.0,0.0,0.0,0.0,0.0,2.1766,2.1375,2.1354,2.0964,2.0165,0.0,0.0,0.0,0.0,0.0,0.0,0.0,0.0,0.0,0.0,0.0,0.0,0.0,0.0,0.0,0.0,0.0,0.0,0.0,0.0,0.0,0.0,0.0,0.0,0.0,0.0,0.0,0.0,0.0,0.0,0.0,0.0,0.0,0.0,0.0,0.0,0.0,0.0,0.0,0.0,0.0,0.0,0.0,0.0,0.0,0.0,0.0,0.0,0.0,0.0,0.0,0.0,0.0,0.0,0.0,0.0,0.0,0.0,0.0,0.0,0.0,0.0,0.0,0.0,0.0,0.0,0.0,0.0,0.0,0.0,0.0,0.0,0.0,0.0,0.0,0.0,0.0,0.0,0.0,0.0,0.0,0.0,0.0,0.0,0.0,0.0,0.0,0.0,0.0,0.0,0.0,0.0,0.0,0.0,0.0,0.0,0.0,0.0,0.0,0.0,0.0,0.0,0.0,0.0,0.0,0.0,0.0,0.0,0.0,0.0,0.0,0.0,2.3095,2.2724,2.1922,0.0,0.0,0.0,0.0,0.0,0.0,0.0,0.0,0.0,0.0,0.0,0.0,0.0,0.0,0.0,0.0,0.0,0.0,0.0,0.0,0.0,0.0,0.0,0.0,0.0,0.0,0.0,0.0,0.0,0.0,0.0,0.0,0.0,0.0,0.0,0.0,0.0,0.0,0.0,0.0,0.0,0.0,0.0,0.0,0.0,0.0,0.0,0.0,0.0,0.0,0.0,0.0,0.0,0.0,0.0,0.0,0.0,0.0,0.0,0.0,0.0,0.0,0.0,0.0,0.0,0.0,0.0,0.0,0.0,0.0,0.0,0.0,0.0,0.0,0.0,0.0,0.0,0.0,0.0,0.0,0.0,0.0,0.0,0.0,0.0,0.0,0.0,0.0,0.0,0.0,0.0,0.0,0.0,0.0,0.0,0.0,0.0,0.0,0.0,0.0,0.0,0.0,0.0,0.0,0.0,0.0,0.0,0.0,0.0,0.0,2.3101,2.3101,2.312,0.0,2.1962,0.0,0.0,0.0,0.0,0.0,0.0,0.0,0.0,0.0,0.0,0.0,0.0,0.0,0.0,0.0,0.0,0.0,0.0,0.0,0.0,0.0,0.0,0.0,0.0,0.0,0.0,0.0,0.0,0.0,0.0,0.0,0.0,0.0,0.0,0.0,0.0,0.0,0.0,0.0,0.0,0.0,0.0,0.0,0.0,0.0,0.0,0.0,0.0,0.0,0.0,0.0,0.0,0.0,0.0,0.0,0.0,0.0,0.0,0.0,0.0,0.0,0.0,0.0,0.0,0.0,0.0,0.0,0.0,0.0,0.0,0.0,0.0,0.0,0.0,0.0,0.0,0.0,0.0,0.0,0.0,0.0,0.0,0.0,0.0,0.0,0.0,0.0,0.0,0.0,0.0,0.0,0.0,0.0,0.0,0.0,0.0,0.0,0.0,0.0,0.0,0.0,0.0,0.0,0.0,0.0,0.0,0.0,0.0,0.0,0.0,2.4648,2.4628,2.416,2.3474,0.0,0.0,0.0,0.0,0.0,0.0,0.0,0.0,0.0,0.0,0.0,0.0,0.0,0.0,0.0,0.0,0.0,0.0,0.0,0.0,0.0,0.0,0.0,0.0,0.0,0.0,0.0,0.0,0.0,0.0,0.0,0.0,0.0,0.0,0.0,0.0,0.0,0.0,0.0,0.0,0.0,0.0,0.0,0.0,0.0,0.0,0.0,0.0,0.0,0.0,0.0,0.0,0.0,0.0,0.0,0.0,0.0,0.0,0.0,0.0,0.0,0.0,0.0,0.0,0.0,0.0,0.0,0.0,0.0,0.0,0.0,0.0,0.0,0.0,0.0,0.0,0.0,0.0,0.0,0.0,0.0,0.0,0.0,0.0,0.0,0.0,0.0,0.0,0.0,0.0,0.0,0.0,0.0,0.0,0.0,0.0,0.0,0.0,0.0,0.0,0.0,0.0,0.0,0.0,0.0,0.0,0.0,0.0,0.0,0.0,2.5018,2.5448,2.5644,2.5078,2.4238,2.3142,0.0,0.0,0.0,0.0,0.0,0.0,0.0,0.0,0.0,0.0,0.0,0.0,0.0,0.0,0.0,0.0,0.0,0.0,0.0,0.0,0.0,0.0,0.0,0.0,0.0,0.0,0.0,0.0,0.0,0.0,0.0,0.0,0.0,0.0,0.0,0.0,0.0,0.0,0.0,0.0,0.0,0.0,0.0,0.0,0.0,0.0,0.0,0.0,0.0,0.0,0.0,0.0,0.0,0.0,0.0,0.0,0.0,0.0,0.0,0.0,0.0,0.0,0.0,0.0,0.0,0.0,0.0,0.0,0.0,0.0,0.0,0.0,0.0,0.0,0.0,0.0,0.0,0.0,0.0,0.0,0.0,0.0,0.0,0.0,0.0,0.0,0.0,0.0,0.0,0.0,0.0,0.0,0.0,0.0,0.0,0.0,0.0,0.0,0.0,0.0,0.0,0.0,0.0,0.0,0.0,0.0,0.0,0.0,2.4321,2.4458,2.4873,2.5661,2.5661,2.4842,0.0,0.0,0.0,0.0,0.0,0.0,0.0,0.0,0.0,0.0,0.0,0.0,0.0,0.0,0.0,0.0,0.0,0.0,0.0,0.0,0.0,0.0,0.0,0.0,0.0,0.0,0.0,0.0,0.0,0.0,0.0,0.0,0.0,0.0,0.0,0.0,0.0,0.0,0.0,0.0,0.0,0.0,0.0,0.0,0.0,0.0,0.0,0.0,0.0,0.0,0.0,0.0,0.0,0.0,0.0,0.0,0.0,0.0,0.0,0.0,0.0,0.0,0.0,0.0,0.0,0.0,0.0,0.0,0.0,0.0,0.0,0.0,0.0,0.0,0.0,0.0,0.0,0.0,0.0,0.0,0.0,0.0,0.0,0.0,0.0,0.0,0.0,0.0,0.0,0.0,0.0,0.0,0.0,0.0,0.0,0.0,0.0,0.0,0.0,0.0,0.0,0.0,0.0,0.0,0.0,0.0,0.0,0.0,0.0,2.3566,2.4668,2.5386,2.5683,2.5689,2.4894,0.0,0.0,0.0,0.0,0.0,0.0,0.0,0.0,0.0,0.0,0.0,0.0,0.0,0.0,0.0,0.0,0.0,0.0,0.0,0.0,0.0,0.0,0.0,0.0,0.0,0.0,0.0,0.0,0.0,0.0,0.0,0.0,0.0,0.0,0.0,0.0,0.0,0.0,0.0,0.0,0.0,0.0,0.0,0.0,0.0,0.0,0.0,0.0,0.0,0.0,0.0,0.0,0.0,0.0,0.0,0.0,0.0,0.0,0.0,0.0,0.0,0.0,0.0,0.0,0.0,0.0,0.0,0.0,0.0,0.0,0.0,0.0,0.0,0.0,0.0,0.0,0.0,0.0,0.0,0.0,0.0,0.0,0.0,0.0,0.0,0.0,0.0,0.0,0.0,0.0,0.0,0.0,0.0,0.0,0.0,0.0,0.0,0.0,0.0,0.0,0.0,0.0,0.0,0.0,0.0,0.0,0.0,0.0,0.0,2.3519,0.0,2.5662,2.5662,2.5671,2.4974,0.0,0.0,0.0,0.0,0.0,0.0,0.0,0.0,0.0,0.0,0.0,0.0,0.0,0.0,0.0,0.0,0.0,0.0,0.0,0.0,0.0,0.0,0.0,0.0,0.0,0.0,0.0,0.0,0.0,0.0,0.0,0.0,0.0,0.0,0.0,0.0,0.0,0.0,0.0,0.0,0.0,0.0,0.0,0.0,0.0,0.0,0.0,0.0,0.0,0.0,0.0,0.0,0.0,0.0,0.0,0.0,0.0,0.0,0.0,0.0,0.0,0.0,0.0,0.0,0.0,0.0,0.0,0.0,0.0,0.0,0.0,0.0,0.0,0.0,0.0,0.0,0.0,0.0,0.0,0.0,0.0,0.0,0.0,0.0,0.0,0.0,0.0,0.0,0.0,0.0,0.0,0.0,0.0,0.0,0.0,0.0,0.0,0.0,0.0,0.0,0.0,0.0,0.0,0.0,0.0,0.0,0.0,0.0,2.2686,2.4351,2.5208,2.5699,2.564,2.5679,2.5255,0.0,0.0,0.0,0.0,0.0,0.0,0.0,0.0,0.0,0.0,0.0,0.0,0.0,0.0,0.0,0.0,0.0,0.0,0.0,0.0,0.0,0.0,0.0,0.0,0.0,0.0,0.0,0.0,0.0,0.0,0.0,0.0,0.0,0.0,0.0,0.0,0.0,0.0,0.0,0.0,0.0,0.0,0.0,0.0,0.0,0.0,0.0,0.0,0.0,0.0,0.0,0.0,0.0,0.0,0.0,0.0,0.0,0.0,0.0,0.0,0.0,0.0,0.0,0.0,0.0,0.0,0.0,0.0,0.0,0.0,0.0,0.0,0.0,0.0,0.0,0.0,0.0,0.0,0.0,0.0,0.0,0.0,0.0,0.0,0.0,0.0,0.0,0.0,0.0,0.0,0.0,0.0,0.0,0.0,0.0,0.0,0.0,0.0,0.0,0.0,0.0,0.0,0.0,0.0,0.0,0.0,0.0,0.0,0.0,2.5216,2.6058,2.6753,2.7257,2.6792,2.6097,0.0,0.0,0.0,0.0,0.0,0.0,0.0,0.0,0.0,0.0,0.0,0.0,0.0,0.0,0.0,0.0,0.0,0.0,0.0,0.0,0.0,0.0,0.0,0.0,0.0,0.0,0.0,0.0,0.0,0.0,0.0,0.0,0.0,0.0,0.0,0.0,0.0,0.0,0.0,0.0,0.0,0.0,0.0,0.0,0.0,0.0,0.0,0.0,0.0,0.0,0.0,0.0,0.0,0.0,0.0,0.0,0.0,0.0,0.0,0.0,0.0,0.0,0.0,0.0,0.0,0.0,0.0,0.0,0.0,0.0,0.0,0.0,0.0,0.0,0.0,0.0,0.0,0.0,0.0,0.0,0.0,0.0,0.0,0.0,0.0,0.0,0.0,0.0,0.0,0.0,0.0,0.0,0.0,0.0,0.0,0.0,0.0,0.0,0.0,0.0,0.0,0.0,0.0,0.0,0.0,0.0,0.0,0.0,0.0,2.7893,2.7848,2.8023,2.8526,2.8061,2.7252,2.6094,0.0,0.0,0.0,0.0,0.0,0.0,0.0,0.0,0.0,0.0,0.0,0.0,0.0,0.0,0.0,0.0,0.0,0.0,0.0,0.0,0.0,0.0,0.0,0.0,0.0,0.0,0.0,0.0,0.0,0.0,0.0,0.0,0.0,0.0,0.0,0.0,0.0,0.0,0.0,0.0,0.0,0.0,0.0,0.0,0.0,0.0,0.0,0.0,0.0,0.0,0.0,0.0,0.0,0.0,0.0,0.0,0.0,0.0,0.0,0.0,0.0,0.0,0.0,0.0,0.0,0.0,0.0,0.0,0.0,0.0,0.0,0.0,0.0,0.0,0.0,0.0,0.0,0.0,0.0,0.0,0.0,0.0,0.0,0.0,0.0,0.0,0.0,0.0,0.0,0.0,0.0,0.0,0.0,0.0,0.0,0.0,0.0,0.0,0.0,0.0,0.0,0.0,0.0,0.0,0.0,0.0,0.0,0.0,3.2068,3.0537,2.9732,2.9644,2.9528,2.8675,0.0,0.0,0.0,0.0,0.0,0.0,0.0,0.0,0.0,0.0,0.0,0.0,0.0,0.0,0.0,0.0,0.0,0.0,0.0,0.0,0.0,0.0,0.0,0.0,0.0,0.0,0.0,0.0,0.0,0.0,0.0,0.0,0.0,0.0,0.0,0.0,0.0,0.0,0.0,0.0,0.0,0.0,0.0,0.0,0.0,0.0,0.0,0.0,0.0,0.0,0.0,0.0,0.0,0.0,0.0,0.0,0.0,0.0,0.0,0.0,0.0,0.0,0.0,0.0,0.0,0.0,0.0,0.0,0.0,0.0,0.0,0.0,0.0,0.0,0.0,0.0,0.0,0.0,0.0,0.0,0.0,0.0,0.0,0.0,0.0,0.0,0.0,0.0,0.0,0.0,0.0,0.0,0.0,0.0,0.0,0.0,0.0,0.0,0.0,0.0,0.0,0.0,0.0,0.0,0.0,0.0,0.0,0.0,0.0,3.4511,3.4759,3.4279,3.3093,3.1864,3.0703,0.0,0.0,0.0,0.0,0.0,0.0,0.0,0.0,0.0,0.0,0.0,0.0,0.0,0.0,0.0,0.0,0.0,0.0,0.0,0.0,0.0,0.0,0.0,0.0,0.0,0.0,0.0,0.0,0.0,0.0,0.0,0.0,0.0,0.0,0.0,0.0,0.0,0.0,0.0,0.0,0.0,0.0,0.0,0.0,0.0,0.0,0.0,0.0,0.0,0.0,0.0,0.0,0.0,0.0,0.0,0.0,0.0,0.0,0.0,0.0,0.0,0.0,0.0,0.0,0.0,0.0,0.0,0.0,0.0,0.0,0.0,0.0,0.0,0.0,0.0,0.0,0.0,0.0,0.0,0.0,0.0,0.0,0.0,0.0,0.0,0.0,0.0,0.0,0.0,0.0,0.0,0.0,0.0,0.0,0.0,0.0,0.0,0.0,0.0,0.0,0.0,0.0,0.0,0.0,0.0,0.0,0.0,0.0,3.3724,3.6588,3.7791,3.7958,3.703,3.4704,3.2694,0.0,0.0,0.0,0.0,0.0,0.0,0.0,0.0,0.0,0.0,0.0,0.0,0.0,0.0,0.0,0.0,0.0,0.0,0.0,0.0,0.0,0.0,0.0,0.0,0.0,0.0,0.0,0.0,0.0,0.0,0.0,0.0,0.0,0.0,0.0,0.0,0.0,0.0,0.0,0.0,0.0,0.0,0.0,0.0,0.0,0.0,0.0,0.0,0.0,0.0,0.0,0.0,0.0,0.0,0.0,0.0,0.0,0.0,0.0,0.0,0.0,0.0,0.0,0.0,0.0,0.0,0.0,0.0,0.0,0.0,0.0,0.0,0.0,0.0,0.0,0.0,0.0,0.0,0.0,0.0,0.0,0.0,0.0,0.0,0.0,0.0,0.0,0.0,0.0,0.0,0.0,0.0,0.0,0.0,0.0,0.0,0.0,0.0,0.0,0.0,0.0,0.0,0.0,0.0,0.0,0.0,0.0,0.0,3.4866,3.8163,3.986,4.0728,4.0651,3.7565,3.4634,0.0,0.0,0.0,0.0,0.0,0.0,0.0,0.0,0.0,0.0,0.0,0.0,0.0,0.0,0.0,0.0,0.0,0.0,0.0,0.0,0.0,0.0,0.0,0.0,0.0,0.0,0.0,0.0,0.0,0.0,0.0,0.0,0.0,0.0,0.0,0.0,0.0,0.0,0.0,0.0,0.0,0.0,0.0,0.0,0.0,0.0,0.0,0.0,0.0,0.0,0.0,0.0,0.0,0.0,0.0,0.0,0.0,0.0,0.0,0.0,0.0,0.0,0.0,0.0,0.0,0.0,0.0,0.0,0.0,0.0,0.0,0.0,0.0,0.0,0.0,0.0,0.0,0.0,0.0,0.0,0.0,0.0,0.0,0.0,0.0,0.0,0.0,0.0,0.0,0.0,0.0,0.0,0.0,0.0,0.0,0.0,0.0,0.0,0.0,0.0,0.0,0.0,0.0,0.0,0.0,0.0,0.0,0.0,3.6273,3.897,4.0673,4.1543,4.1524,3.8965,3.637,0.0,0.0,0.0,0.0,0.0,0.0,0.0,0.0,0.0,0.0,0.0,0.0,0.0,0.0,0.0,0.0,0.0,0.0,0.0,0.0,0.0,0.0,0.0,0.0,0.0,0.0,0.0,0.0,0.0,0.0,0.0,0.0,0.0,0.0,0.0,0.0,0.0,0.0,0.0,0.0,0.0,0.0,0.0,0.0,0.0,0.0,0.0,0.0,2.0321,0.0,0.0,0.0,0.0,0.0,0.0,0.0,0.0,0.0,0.0,0.0,0.0,0.0,0.0,0.0,0.0,0.0,0.0,0.0,0.0,0.0,0.0,0.0,0.0,0.0,0.0,0.0,0.0,0.0,0.0,0.0,0.0,0.0,0.0,0.0,0.0,0.0,0.0,0.0,0.0,0.0,0.0,0.0,0.0,0.0,0.0,0.0,0.0,0.0,0.0,0.0,0.0,0.0,0.0,0.0,0.0,0.0,0.0,0.0,3.7516,4.0404,4.1739,4.2412,4.2335,4.0327,3.7852,0.0,0.0,0.0,0.0,0.0,0.0,0.0,0.0,0.0,0.0,0.0,0.0,0.0,0.0,0.0,0.0,0.0,0.0,0.0,0.0,0.0,0.0,0.0,0.0,0.0,0.0,0.0,0.0,0.0,0.0,0.0,0.0,0.0,0.0,0.0,0.0,0.0,0.0,0.0,0.0,0.0,0.0,0.0,0.0,0.0,0.0,0.0,0.0,0.0,0.0,0.0,0.0,0.0,0.0,0.0,0.0,0.0,0.0,0.0,0.0,0.0,0.0,0.0,0.0,0.0,0.0,0.0,0.0,0.0,0.0,0.0,0.0,0.0,0.0,0.0,0.0,0.0,0.0,0.0,0.0,0.0,0.0,0.0,0.0,0.0,0.0,0.0,0.0,0.0,0.0,0.0,0.0,0.0,0.0,0.0,0.0,0.0,0.0,0.0,0.0,0.0,0.0,0.0,0.0,0.0,0.0,0.0,3.552,3.8354,4.1662,4.2643,4.3085,4.3066,4.1393,3.8911,3.5622,0.0,0.0,0.0,0.0,0.0,0.0,0.0,0.0,0.0,0.0,0.0,0.0,0.0,0.0,0.0,0.0,0.0,0.0,0.0,0.0,0.0,0.0,0.0,0.0,0.0,0.0,0.0,0.0,0.0,0.0,0.0,0.0,0.0,0.0,0.0,0.0,0.0,0.0,1.7281,2.0658,0.0,0.0,0.0,0.0,0.0,0.0,0.0,0.0,2.2003,0.0,0.0,0.0,0.0,0.0,0.0,0.0,0.0,0.0,0.0,0.0,0.0,0.0,0.0,0.0,0.0,0.0,0.0,0.0,0.0,0.0,0.0,0.0,0.0,0.0,0.0,0.0,0.0,0.0,0.0,0.0,0.0,0.0,0.0,0.0,0.0,0.0,0.0,0.0,0.0,0.0,0.0,0.0,0.0,0.0,0.0,0.0,0.0,0.0,0.0,0.0,0.0,0.0,0.0,0.0,0.0,3.3981,3.5776,3.8373,4.172,4.2662,4.3085,4.3047,4.1393,3.8931,3.5661,0.0,0.0,0.0,0.0,0.0,0.0,0.0,0.0,0.0,0.0,0.0,0.0,0.0,0.0,0.0,0.0,0.0,0.0,0.0,0.0,0.0,0.0,0.0,0.0,0.0,0.0,0.0,0.0,0.0,0.0,0.0,0.0,0.0,0.0,0.0,0.0,0.0,0.0,0.0,2.178,2.3361,0.0,0.0,0.0,0.0,0.0,0.0,0.0,0.0,2.2845,0.0,0.0,0.0,0.0,0.0,0.0,0.0,0.0,0.0,0.0,0.0,0.0,0.0,0.0,0.0,0.0,0.0,0.0,0.0,0.0,0.0,0.0,0.0,0.0,0.0,0.0,0.0,0.0,0.0,0.0,0.0,0.0,0.0,0.0,0.0,0.0,0.0,0.0,0.0,0.0,0.0,0.0,0.0,0.0,0.0,0.0,0.0,0.0,0.0,0.0,0.0,0.0,0.0,0.0,0.0,3.4795,3.6526,3.8815,4.1681,4.222,4.2431,4.2393,4.0777,3.8507,0.0,0.0,0.0,0.0,0.0,0.0,0.0,0.0,0.0,0.0,0.0,0.0,0.0,0.0,0.0,0.0,0.0,0.0,0.0,0.0,0.0,0.0,0.0,0.0,0.0,0.0,0.0,0.0,0.0,0.0,0.0,0.0,0.0,0.0,0.0,0.0,0.0,0.0,0.0,0.0,2.2972,2.4085,2.4963,0.0,0.0,0.0,0.0,0.0,0.0,2.4063,2.3612,0.0,0.0,0.0,0.0,0.0,0.0,0.0,0.0,0.0,0.0,0.0,0.0,0.0,0.0,0.0,0.0,0.0,0.0,0.0,0.0,0.0,0.0,0.0,0.0,0.0,0.0,0.0,0.0,0.0,0.0,0.0,0.0,0.0,0.0,0.0,0.0,0.0,0.0,0.0,0.0,0.0,0.0,0.0,0.0,0.0,0.0,0.0,0.0,0.0,0.0,0.0,0.0,0.0,0.0,0.0,3.5218,3.7046,3.9142,4.1412,4.172,4.172,4.1527,4.0085,3.8027,0.0,0.0,0.0,0.0,0.0,0.0,0.0,0.0,0.0,0.0,0.0,0.0,0.0,0.0,0.0,0.0,0.0,0.0,0.0,0.0,0.0,0.0,0.0,0.0,0.0,0.0,0.0,0.0,0.0,0.0,0.0,0.0,0.0,0.0,0.0,0.0,0.0,0.0,0.0,0.0,0.0,2.5041,2.6058,2.68,0.0,0.0,0.0,0.0,2.6097,2.5356,0.0,0.0,0.0,0.0,0.0,0.0,0.0,0.0,0.0,0.0,0.0,0.0,0.0,0.0,0.0,0.0,0.0,0.0,0.0,0.0,0.0,0.0,0.0,0.0,0.0,0.0,0.0,0.0,0.0,0.0,0.0,0.0,0.0,0.0,0.0,0.0,0.0,0.0,0.0,0.0,0.0,0.0,0.0,0.0,0.0,0.0,0.0,0.0,0.0,0.0,0.0,0.0,0.0,0.0,0.0,0.0,3.4391,3.6757,3.8854,4.0585,4.1412,4.145,4.0662,3.9758,3.7738,0.0,0.0,0.0,0.0,0.0,0.0,0.0,0.0,0.0,0.0,0.0,0.0,0.0,0.0,0.0,0.0,0.0,0.0,0.0,0.0,0.0,0.0,0.0,0.0,0.0,0.0,0.0,0.0,0.0,0.0,0.0,0.0,0.0,0.0,0.0,0.0,0.0,0.0,0.0,0.0,0.0,2.6156,2.7776,2.8088,2.8147,0.0,0.0,2.7835,2.6976,2.6763,0.0,0.0,0.0,0.0,0.0,0.0,0.0,0.0,0.0,0.0,0.0,0.0,0.0,0.0,0.0,0.0,0.0,0.0,0.0,0.0,0.0,0.0,0.0,0.0,0.0,0.0,0.0,0.0,0.0,0.0,0.0,0.0,0.0,0.0,0.0,0.0,0.0,0.0,0.0,0.0,0.0,0.0,0.0,0.0,0.0,0.0,0.0,0.0,0.0,0.0,0.0,0.0,0.0,0.0,0.0,3.3333,3.4257,3.6699,3.8584,3.9777,4.0181,4.02,3.9815,3.8084,3.6205,0.0,0.0,0.0,0.0,0.0,0.0,0.0,0.0,0.0,0.0,0.0,0.0,0.0,0.0,0.0,0.0,0.0,0.0,0.0,0.0,0.0,0.0,0.0,0.0,0.0,0.0,0.0,0.0,0.0,0.0,0.0,0.0,0.0,0.0,0.0,0.0,0.0,0.0,0.0,0.0,0.0,0.0,2.8127,2.8713,0.0,0.0,0.0,2.891,2.8539,0.0,0.0,0.0,0.0,0.0,0.0,0.0,0.0,0.0,0.0,0.0,0.0,0.0,0.0,0.0,0.0,0.0,0.0,0.0,0.0,0.0,0.0,0.0,0.0,0.0,0.0,0.0,0.0,0.0,0.0,0.0,0.0,0.0,0.0,0.0,0.0,0.0,0.0,0.0,0.0,0.0,0.0,0.0,0.0,0.0,0.0,0.0,0.0,0.0,0.0,0.0,0.0,0.0,0.0,0.0,0.0,0.0,3.391,3.6378,3.8089,3.8896,3.8954,3.8939,3.89,3.669,0.0,0.0,0.0,0.0,0.0,0.0,0.0,0.0,0.0,0.0,0.0,0.0,0.0,0.0,0.0,0.0,0.0,0.0,0.0,0.0,0.0,0.0,0.0,0.0,0.0,0.0,0.0,2.0508,0.0,0.0,0.0,0.0,0.0,0.0,0.0,0.0,0.0,0.0,0.0,0.0,0.0,0.0,2.7952,2.881,2.9494,2.9904,0.0,0.0,2.9865,2.963,2.8498,2.7581,0.0,0.0,0.0,0.0,0.0,0.0,0.0,0.0,0.0,0.0,0.0,0.0,0.0,0.0,0.0,0.0,0.0,0.0,0.0,0.0,0.0,0.0,0.0,0.0,0.0,0.0,0.0,0.0,0.0,0.0,0.0,0.0,0.0,0.0,0.0,0.0,0.0,0.0,0.0,0.0,0.0,0.0,0.0,0.0,0.0,0.0,0.0,0.0,0.0,0.0,0.0,0.0,0.0,0.0,0.0,3.3083,3.5498,3.7198,3.7932,3.7993,3.7996,3.7961,3.6309,3.4602,0.0,0.0,0.0,0.0,0.0,0.0,0.0,0.0,0.0,0.0,0.0,0.0,0.0,0.0,0.0,0.0,0.0,0.0,0.0,0.0,0.0,0.0,0.0,0.0,0.0,0.0,0.0,0.0,0.0,0.0,0.0,0.0,0.0,0.0,0.0,0.0,0.0,0.0,0.0,0.0,0.0,2.9708,3.0509,3.0684,3.0743,0.0,3.0821,3.0528,2.9726,2.9511,2.914,2.8362,0.0,0.0,0.0,0.0,0.0,0.0,0.0,0.0,0.0,0.0,0.0,0.0,0.0,0.0,0.0,0.0,0.0,0.0,0.0,0.0,0.0,0.0,0.0,0.0,0.0,0.0,0.0,0.0,0.0,0.0,0.0,0.0,0.0,0.0,0.0,0.0,0.0,0.0,0.0,0.0,0.0,0.0,0.0,0.0,0.0,0.0,0.0,0.0,0.0,0.0,0.0,0.0,0.0,3.2851,3.2864,3.5345,3.6803,3.7076,3.7114,3.7099,3.7079,3.4951,3.3461,0.0,0.0,0.0,0.0,0.0,0.0,0.0,0.0,0.0,0.0,0.0,0.0,0.0,0.0,0.0,0.0,0.0,0.0,0.0,0.0,0.0,0.0,0.0,0.0,0.0,0.0,0.0,0.0,2.3574,2.4235,2.5092,0.0,0.0,0.0,0.0,0.0,0.0,0.0,0.0,0.0,0.0,2.9884,3.0684,3.0821,0.0,0.0,3.0925,3.0792,3.046,2.9933,2.948,2.9162,2.8381,0.0,0.0,0.0,0.0,0.0,0.0,0.0,0.0,0.0,0.0,0.0,0.0,0.0,0.0,0.0,0.0,0.0,0.0,0.0,0.0,0.0,0.0,0.0,0.0,0.0,0.0,0.0,0.0,0.0,0.0,0.0,0.0,0.0,0.0,0.0,0.0,0.0,0.0,0.0,0.0,0.0,0.0,0.0,0.0,0.0,0.0,0.0,0.0,0.0,0.0,0.0,0.0,3.2747,3.2795,3.5002,3.6285,3.6537,3.6288,3.6252,3.6425,3.4052,3.2718,0.0,0.0,0.0,0.0,0.0,0.0,0.0,0.0,0.0,0.0,0.0,0.0,0.0,0.0,0.0,0.0,0.0,0.0,0.0,0.0,0.0,0.0,0.0,0.0,0.0,0.0,0.0,0.0,2.443,2.5019,2.5624,0.0,0.0,0.0,0.0,0.0,0.0,0.0,0.0,0.0,0.0,3.0157,3.0743,3.0862,3.0886,3.0888,3.0913,3.0916,3.0917,3.037,2.9979,2.9991,0.0,0.0,0.0,0.0,0.0,0.0,0.0,0.0,0.0,0.0,0.0,0.0,0.0,0.0,0.0,0.0,0.0,0.0,0.0,0.0,0.0,0.0,0.0,0.0,0.0,0.0,0.0,0.0,0.0,0.0,2.7881,0.0,0.0,0.0,0.0,0.0,0.0,0.0,0.0,0.0,0.0,0.0,0.0,0.0,0.0,0.0,0.0,0.0,0.0,0.0,0.0,0.0,0.0,3.2648,3.2707,3.4339,3.5543,3.6325,3.5566,3.5511,3.6196,3.3911,3.2616,3.2542,0.0,0.0,0.0,0.0,0.0,0.0,0.0,0.0,0.0,0.0,0.0,0.0,0.0,0.0,0.0,0.0,0.0,0.0,0.0,0.0,0.0,0.0,0.0,0.0,0.0,0.0,2.5588,2.5657,2.5661,0.0,0.0,0.0,0.0,0.0,0.0,0.0,0.0,0.0,0.0,3.0294,3.0801,3.088,3.085,3.0818,3.0879,3.0918,3.0898,3.0895,3.0856,3.0857,0.0,0.0,0.0,0.0,0.0,0.0,0.0,0.0,0.0,0.0,0.0,0.0,0.0,0.0,0.0,0.0,0.0,0.0,0.0,0.0,0.0,0.0,0.0,0.0,0.0,0.0,0.0,3.1057,3.1044,0.0,0.0,0.0,0.0,0.0,0.0,0.0,0.0,0.0,0.0,0.0,3.3415,3.3363,0.0,0.0,0.0,0.0,0.0,0.0,0.0,0.0,0.0,0.0,0.0,0.0,3.2779,3.3367,3.4413,3.5115,3.5381,3.5116,3.5097,3.5344,3.3483,3.1946,3.0829,0.0,0.0,0.0,0.0,0.0,0.0,0.0,0.0,0.0,0.0,0.0,0.0,0.0,0.0,0.0,0.0,0.0,0.0,0.0,0.0,0.0,0.0,0.0,0.0,0.0,2.6286,0.0,0.0,0.0,0.0,0.0,0.0,0.0,0.0,0.0,0.0,0.0,2.9826,3.0392,3.0684,3.088,3.088,3.0894,3.0879,0.0,0.0,0.0,0.0,0.0,0.0,0.0,0.0,0.0,0.0,0.0,0.0,0.0,0.0,2.7415,2.744,2.7394,2.7188,2.6615,0.0,0.0,0.0,0.0,0.0,0.0,0.0,0.0,0.0,0.0,0.0,0.0,0.0,0.0,3.3484,0.0,3.3176,0.0,0.0,0.0,0.0,0.0,0.0,0.0,0.0,3.3582,3.4188,3.5003,3.4965,3.5249,0.0,3.515,3.4187,0.0,0.0,0.0,0.0,0.0,0.0,0.0,0.0,3.3034,3.3639,3.4434,3.485,3.485,3.485,3.4869,3.4812,3.3242,3.1577,2.9931,2.9943,2.9975,0.0,0.0,0.0,0.0,0.0,0.0,0.0,0.0,0.0,0.0,0.0,0.0,0.0,0.0,0.0,0.0,0.0,0.0,0.0,0.0,0.0,0.0,0.0,2.7125,0.0,0.0,0.0,0.0,0.0,0.0,0.0,0.0,0.0,2.9609,2.9879,3.0263,3.0827,3.0909,3.0909,3.0909,0.0,0.0,0.0,0.0,0.0,0.0,0.0,3.0813,3.0855,3.0864,3.0892,3.0878,3.043,3.0057,3.0057,0.0,0.0,2.8405,2.8239,2.8033,2.7461,2.7359,2.7199,2.6673,2.6576,2.6576,0.0,0.0,0.0,0.0,0.0,0.0,0.0,0.0,3.5135,3.5192,0.0,3.4281,0.0,0.0,0.0,0.0,0.0,3.3241,0.0,0.0,3.5711,3.654,3.7373,3.743,3.743,3.7426,3.7363,3.6806,3.5822,3.3492,0.0,0.0,0.0,0.0,0.0,0.0,3.346,3.3637,3.4449,3.4845,3.4845,3.4845,3.4788,3.4656,3.3128,3.1487,2.9902,2.9859,2.9893,2.9907,3.0038,0.0,0.0,0.0,0.0,0.0,0.0,0.0,0.0,0.0,0.0,0.0,0.0,0.0,0.0,0.0,0.0,0.0,0.0,0.0,0.0,2.8232,0.0,0.0,0.0,0.0,0.0,0.0,0.0,0.0,0.0,0.0,2.9663,3.0371,3.0877,3.0877,0.0,0.0,0.0,0.0,3.0786,3.0791,3.0801,3.0798,3.0798,3.0798,3.0798,3.0788,0.0,0.0,3.0892,3.0878,3.0859,3.0898,3.0834,3.037,2.8725,2.8441,2.833,2.8248,2.824,2.8212,2.8169,2.8017,2.8076,4.0831,0.0,0.0,0.0,0.0,3.6938,3.7476,3.8256,3.8383,3.8083,3.7473,3.7308,0.0,0.0,0.0,0.0,0.0,0.0,3.6001,3.7341,3.7608,3.8516,3.9939,3.9892,4.0145,4.0622,4.0002,3.9195,3.8259,3.6982,3.5128,3.2895,0.0,0.0,0.0,0.0,3.3855,3.5001,3.5364,3.548,3.5443,3.5525,3.472,3.2915,3.2466,3.145,2.9774,2.9823,2.9912,2.9907,3.0022,0.0,0.0,0.0,0.0,0.0,0.0,0.0,0.0,0.0,0.0,0.0,0.0,0.0,0.0,0.0,0.0,0.0,0.0,0.0,2.9104,2.9045,2.883,0.0,0.0,0.0,0.0,0.0,0.0,0.0,0.0,0.0,3.0443,3.0669,3.0855,0.0,0.0,3.0824,3.0816,3.083,3.0801,3.0794,3.079,0.0,3.0786,3.0798,3.0793,3.0798,3.0798,3.0816,3.0825,3.0829,3.0834,3.0879,3.0916,3.0714,3.0313,3.0088,2.9826,2.9308,2.9125,2.8903,2.8349,2.8188,2.8208,4.556,4.1627,3.9946,3.9544,4.0053,4.0176,4.0578,4.1124,4.1173,4.0745,3.991,3.9614,3.8912,3.7821,3.746,0.0,0.0,0.0,3.8314,3.9264,3.9583,4.0309,4.1274,4.1304,4.1477,4.1892,4.1397,4.0857,4.0253,3.9043,3.7515,3.5559,0.0,0.0,3.4601,3.4619,3.5123,3.6123,3.6227,3.6189,3.6171,3.5937,3.463,3.2175,3.2122,3.1392,2.9739,2.9754,2.9842,2.9857,2.9975,3.0038,0.0,0.0,0.0,0.0,0.0,0.0,0.0,0.0,0.0,0.0,0.0,3.051,3.054,0.0,0.0,0.0,3.0621,3.042,2.9959,2.9914,0.0,0.0,0.0,0.0,0.0,0.0,0.0,2.9966,3.0453,3.0754,3.0798,3.0794,3.083,3.0845,3.0824,3.0802,3.079,0.0,3.0798,3.0798,3.0789,3.076,3.0779,3.0774,3.0769,3.0794,3.0798,3.0798,3.0791,3.0796,3.0808,3.0877,3.0917,3.0912,3.0921,3.0858,3.0654,3.0134,3.0006,2.9823,2.9323,2.9225,2.924,4.9447,4.7738,4.4748,4.3409,4.3295,4.3305,4.3428,4.3676,4.3694,4.3186,4.2321,4.1531,4.1092,4.0854,3.9989,0.0,3.96,4.0364,4.0705,4.0802,4.1558,4.1932,4.1988,4.2006,4.2006,4.1997,4.2006,4.1931,4.1696,4.0244,3.9416,3.925,3.7817,3.6987,3.6807,3.6782,3.6863,3.6976,3.6976,3.6982,3.6982,3.6142,3.4591,3.2294,3.2112,3.133,2.9776,2.9701,2.9717,2.9789,2.9857,2.9921,2.9988,0.0,0.0,0.0,0.0,0.0,0.0,0.0,0.0,0.0,0.0,0.0,0.0,0.0,0.0,0.0,3.0649,0.0,3.071,3.0697,0.0,0.0,0.0,3.0697,3.0697,3.0703,3.0697,3.0697,0.0,0.0,3.0784,3.0794,3.0789,3.0798,3.0798,3.079,3.0786,3.0789,3.0799,3.0779,3.0739,3.0703,3.0703,3.0697,3.0716,3.0773,3.0789,3.0784,3.079,3.0791,3.0823,3.0874,3.0898,3.0912,3.0921,3.0841,3.0796,3.0762,3.0751,3.0759,3.0667,3.0662,3.0624,5.1454,5.0469,4.967,4.7973,4.5761,4.5847,4.5937,4.6015,4.611,4.5651,4.4805,4.4016,4.2892,4.1619,4.1405,4.1285,4.1249,4.1443,4.1846,4.2408,4.2632,4.3061,4.3687,4.3687,4.3677,4.3618,4.3618,4.3271,4.2549,4.214,4.1638,4.0996,4.0635,3.92,3.6805,3.6716,3.7058,3.7649,3.772,3.7772,3.776,3.6422,3.5114,3.3859,3.2649,3.1574,3.0565,3.0001,2.9682,2.9717,2.9823,2.991,2.994,3.0003,0.0,0.0,0.0,0.0,0.0,0.0,0.0,0.0,0.0,3.049,3.0491,0.0,3.0598,0.0,3.0615,3.0629,3.0642,3.0668,0.0,0.0,3.0704,3.0704,3.0704,3.0698,3.0698,3.0698,3.0691,3.0709,3.0739,3.0734,3.0728,3.0716,3.0753,3.0784,3.0794,3.0745,3.0734,3.0728,3.0722,3.0697,3.0691,3.0656,3.0649,3.0703,3.0723,3.0755,3.0794,3.079,3.0799,3.0834,3.0859,3.0913,3.0921,3.0841,3.0799,3.0788,3.0801,3.0786,3.0784,3.0799,3.0799,5.2995,5.1936,5.1936,5.0709,4.8717,4.846,4.7978,4.7336,4.7435,4.6948,4.6124,4.5675,4.4934,4.4063,4.4015,4.377,4.3405,4.337,4.3397,4.3439,4.3439,4.37,4.4177,4.4177,4.4147,4.4135,4.4104,4.3844,4.3336,4.2983,4.2556,4.2129,4.176,4.0681,3.8952,3.8869,3.911,3.9528,3.9249,3.8737,3.8,3.677,3.5541,3.4311,3.2769,3.1565,3.0788,3.002,2.9645,2.9701,2.9755,2.9844,2.991,2.994,2.9988,0.0,0.0,0.0,0.0,0.0,0.0,0.0,0.0,0.0,0.0,0.0,3.0598,3.0616,3.0606,3.0613,3.0607,3.0645,3.0653,3.0649,3.0649,3.0661,3.0661,3.0668,3.0656,3.0656,3.0644,3.0639,3.0665,3.0665,3.0658,3.0668,3.0703,3.0743,3.0749,3.0743,3.0711,3.0711,3.0658,3.0651,3.0649,3.0634,3.0645,3.07,3.071,3.071,3.0784,3.0793,3.0801,3.0827,3.0879,3.0912,3.0901,3.0841,3.0799,3.0791,3.0801,3.079,3.0789,3.0799,3.0799,5.4184,5.2921,5.2791,5.2308,5.1491,5.0856,4.9732,4.8287,4.8301,4.7778,4.6881,4.6881,4.6825,4.6682,4.6637,4.6214,4.5562,4.5506,4.5034,4.4339,4.4228,4.4172,4.4153,4.4042,4.4005,4.4005,4.4005,4.4005,4.3986,4.328,4.2946,4.2927,4.2236,4.1883,4.1906,4.1906,4.1813,4.159,4.0791,3.9695,3.8247,3.7318,3.611,3.4531,3.2906,3.1663,3.0884,2.9975,2.955,2.9664,2.9701,2.9738,2.9878,2.9874,2.994,0.0,3.0138,0.0,0.0,0.0,0.0,0.0,0.0,0.0,0.0,3.055,3.0607,3.0615,3.0615,3.0604,3.0618,3.061,3.061,3.0618,3.061,3.0602,3.0602,3.0602,3.0602,3.0602,3.0602,3.0602,3.061,3.0618,3.0618,3.0613,3.0585,3.0602,3.0661,3.068,3.068,3.0692,3.0637,3.061,3.061,3.0665,3.0692,3.0707,3.0704,3.0728,3.0794,3.0799,3.0817,3.0875,3.0878,3.0913,3.0921,3.0841,3.0799,3.0794,3.0785,3.079,3.0789,3.0799,3.0799,5.4834,5.45,5.385,5.3125,5.2364,5.2215,5.1284,4.9881,4.993,4.9123,4.7778,4.7759,4.7354,4.6656,4.6587,4.648,4.6285,4.6262,4.6187,4.5992,4.5361,4.5064,4.5008,4.4321,4.4005,4.4005,4.4005,4.4005,4.4005,4.3856,4.3763,4.3763,4.3633,4.3559,4.3559,0.0,0.0,0.0,4.0791,4.0234,3.9881,3.8432,3.7206,3.6203,3.3974,0.0,3.1663,3.0213,2.9472,2.9607,2.9607,0.0,0.0,0.0,0.0,0.0,0.0,0.0,0.0,0.0,0.0,0.0,3.0466,3.049,3.0509,3.055,3.0617,3.0607,3.0607,3.0607,3.0616,3.0615,3.0615,3.0597,3.0604,3.0602,3.0602,3.0602,3.0602,3.0602,3.0602,3.0602,3.0593,3.0613,3.0615,3.0598,3.0569,3.053,3.053,3.0585,3.061,3.061,3.0613,3.0613,3.0602,3.0621,3.0637,3.0695,3.069,3.073,3.0789,3.0804,3.0798,3.0816,3.0856,3.0916,3.0903,3.0841,3.0799,3.0799,3.0788,3.079,3.0789,3.0799,3.0799,5.5763,5.4983,5.4574,5.3943,0.0,5.32,5.2549,5.1414,5.1041,5.02,4.9027,4.8617,4.8193,4.775,4.7731,4.7493,4.7107,4.7084,4.688,4.6475,4.6085,4.59,4.5881,4.5435,4.5026,4.4655,4.4636,4.4432,4.4023,4.4005,4.4005,4.4005,4.4005,4.4005,4.4005,4.4005,4.341,4.2203,4.1404,4.0791,4.0346,3.8767,3.7503,3.6668,3.429,0.0,0.0,0.0,0.0,0.0,0.0,0.0,0.0,2.9754,0.0,2.994,3.0049,3.0138,3.024,3.0286,3.0316,3.0348,3.0425,3.0479,3.054,3.0579,3.0617,3.0617,3.0617,3.0617,3.0617,3.0616,3.0616,3.0598,3.0616,3.0615,3.0615,3.0615,3.0615,3.0615,3.0615,3.0606,3.0549,3.0549,3.055,3.0539,3.0528,3.05,3.051,3.053,3.0558,3.0615,3.0604,3.0604,3.0613,3.0637,3.0653,3.071,3.0724,3.0753,3.0784,3.0798,3.0794,3.0845,3.0878,3.0895,3.0903,3.0841,3.0801,3.0799,3.0794,3.0798,3.0789,3.0799,3.0799,5.6692,5.5429,5.5131,5.4611,5.4017,5.3868,5.3423,5.2754,0.0,0.0,0.0,4.9633,4.9262,4.9132,4.9113,4.8667,4.7924,4.7906,4.7571,4.6921,4.6773,4.6717,4.6698,4.6568,4.6141,4.5509,4.5361,4.4934,4.4246,4.4098,4.4005,4.4005,4.4005,4.4005,4.4005,4.4005,4.367,4.3002,4.2073,4.1293,4.0587,3.8952,3.7652,3.6723,3.4587,3.299,3.2024,3.0466,2.9613,2.9617,2.9547,2.9569,2.9701,2.9755,2.9823,2.9907,3.0003,3.0094,3.0204,3.0247,3.0292,3.0316,3.0364,3.0449,3.0569,3.0569,3.0588,3.0598,3.0617,3.0617,3.0617,3.0617,3.0617,3.0617,3.0617,3.0598,3.0588,3.0588,3.0588,3.0588,3.0588,3.0559,3.0501,3.0491,3.0481,3.0479,3.0488,3.049,3.051,3.052,3.054,3.0588,3.0606,3.0604,3.0621,3.0661,3.0697,3.0737,3.0753,3.0784,3.0802,3.0794,3.083,3.0868,3.0898,3.0912,3.0901,3.0841,3.0801,3.0801,3.0794,3.0785,3.0798,3.0784,3.0799,5.736,5.7045,5.5596,5.4946,5.4779,5.411,5.3757,5.3515,5.2048,5.1323,5.1212,5.1119,5.0636,4.9949,4.993,4.9485,4.8742,4.8723,4.8667,4.8519,4.785,4.7534,4.7497,4.6828,4.6438,4.6271,4.5639,4.5231,4.5045,4.4376,4.4005,4.4023,4.4005,4.4005,4.4005,4.4005,4.3949,4.3819,4.2352,4.1534,4.1404,3.9788,3.8209,3.6742,3.5683,3.4401,3.286,3.1284,3.0472,3.0499,2.9866,2.9569,2.9683,2.9719,2.9771,2.9895,2.9905,3.0003,3.0171,3.0199,3.0266,3.0386,3.0394,3.0419,3.0491,3.0501,3.053,3.0598,3.0598,3.0617,3.0617,3.0598,3.0598,3.0598,3.0617,3.0588,3.052,3.052,3.052,3.0519,3.0519,3.0519,3.049,3.049,3.0479,3.0428,3.0447,3.0439,3.049,3.055,3.0598,3.0606,3.0615,3.0621,3.0668,3.0683,3.0737,3.0784,3.0774,3.0798,3.0801,3.0801,3.0827,3.088,3.0918,3.0912,3.0901,3.0841,3.0801,3.0801,3.0791,3.0798,3.079,3.0793,3.0799,5.7899,5.7435,5.6673,5.5837,5.4946,5.4166,5.3813,5.3738,5.3032,5.2438,5.2011,5.1602,5.1175,5.0785,5.0339,4.993,4.954,4.9094,4.889,4.8872,4.8519,4.8351,4.8314,4.7961,4.759,4.7125,4.6791,4.6382,4.5918,4.5101,4.4711,4.4674,4.4246,4.4005,4.4005,4.4005,4.4005,4.3968,4.2407,4.159,4.1571,3.9955,3.8321,3.6723,3.5925,3.4699,3.3045,3.1879,3.1269,3.1355,3.0574,3.0205,3.0283,2.9926,2.9717,2.9789,2.9874,2.994,3.0034,3.0142,3.024,3.0336,3.0359,3.0375,3.0449,3.049,3.05,3.054,3.054,3.055,3.055,3.054,3.0559,3.0559,3.0559,3.053,3.05,3.0481,3.049,3.049,3.049,3.0499,3.0439,3.0439,3.0428,3.0394,3.0436,3.0499,3.054,3.0578,3.0606,3.0615,3.0629,3.0661,3.069,3.0724,3.0773,3.0799,3.0798,3.0794,3.0807,3.0827,3.088,3.0892,3.0918,3.0912,3.0921,3.0841,3.0801,3.0799,3.0794,3.0785,3.0786,3.0789,3.0804,5.8345,5.7769,5.7565,5.6543,5.4983,5.4333,5.398,5.3813,5.3794,5.346,5.2828,5.2215,5.1844,5.1602,5.1008,5.0618,5.0302,4.954,4.9187,4.915,4.8983,4.889,4.889,4.889,4.8574,4.7999,4.7794,4.7367,4.6735,4.5955,4.5454,4.5231,4.4432,4.4005,4.4005,4.4005,4.4005,4.3931,4.2593,4.1794,4.1553,4.0141,3.8618,3.7058,3.637,3.5281,3.3682,3.2771,3.2315,3.2195,3.1453,3.0953,3.0807,3.0284,2.9888,2.9755,2.9805,2.9872,2.9924,3.0079,3.0226,3.0267,3.0311,3.0316,3.0375,3.0436,3.0469,3.0479,3.049,3.05,3.0492,3.051,3.0479,3.0488,3.0499,3.0499,3.0469,3.0479,3.0488,3.0488,3.0488,3.0447,3.0406,3.0406,3.0394,3.0414,3.0447,3.053,3.0588,3.0615,3.0621,3.0629,3.0661,3.0717,3.0711,3.0773,3.0799,3.0789,3.0794,3.0804,3.0833,3.088,3.0894,3.0918,3.0914,3.0909,3.0901,3.0838,3.0799,3.0799,3.0791,3.0798,3.0789,3.0804,3.0799,5.8661,5.8475,5.7806,5.6543,5.5094,5.4909,5.4444,5.385,5.3813,5.3775,5.3627,5.3608,5.3125,5.2549,5.2382,5.1936,5.1231,5.0376,4.9986,4.9875,4.9243,4.889,4.889,4.889,4.8872,4.8667,4.8073,4.772,4.7553,4.6773,4.6011,4.5268,4.4413,4.4023,4.4005,4.4005,4.4005,4.3986,4.315,4.2333,4.159,4.0717,3.9491,3.7838,3.7708,3.6935,3.5373,3.4535,3.378,3.316,3.2395,3.165,3.1015,3.0847,3.0453,2.9793,2.9717,2.9751,2.9888,3.0098,3.0204,3.0213,3.0266,3.0318,3.0336,3.0316,3.0364,3.0458,3.0479,3.0479,3.049,3.0479,3.0497,3.0491,3.0486,3.0488,3.0428,3.0398,3.0406,3.0402,3.0421,3.039,3.039,3.039,3.0402,3.0406,3.0479,3.055,3.0607,3.0657,3.0683,3.0683,3.069,3.0743,3.0759,3.0774,3.0798,3.0798,3.0785,3.0813,3.0862,3.0895,3.0918,3.0912,3.0923,3.0921,3.088,3.0836,3.0796,3.0794,3.0801,3.0798,3.0784,3.0799,3.0799,5.8698,5.8661,5.8364,5.7268,5.58,5.5226,5.4538,5.3831,5.3813,5.3813,5.3813,5.3813,5.3608,5.3274,5.2828,5.2419,5.2067,5.1249,5.058,5.0116,4.9763,4.9373,4.8927,4.889,4.889,4.889,4.8556,4.8407,4.8277,4.7608,4.6568,4.5398,4.4915,4.4506,4.4061,4.4005,4.4005,4.3986,4.3689,4.3113,4.2259,4.1051,3.9854,3.8765,3.8207,3.7478,3.6435,3.5576,3.5021,3.472,3.3521,3.2681,3.2405,3.1428,3.0753,3.0434,3.0,2.9787,2.9907,3.0003,3.0132,3.0204,3.0232,3.0253,3.0305,3.0299,3.0323,3.0371,3.0414,3.0444,3.0444,3.0444,3.0433,3.0429,3.0433,3.0444,3.0402,3.0383,3.0402,3.041,3.0398,3.0398,3.041,3.0402,3.0425,3.0458,3.053,3.0578,3.0651,3.0688,3.0704,3.0742,3.0748,3.0778,3.0799,3.0802,3.0794,3.0804,3.0833,3.0877,3.0895,3.0918,3.0909,3.0919,3.0899,3.0877,3.0836,3.0813,3.0791,3.0785,3.079,3.0784,3.0799,3.0799,3.0799,5.8758,5.8758,5.8716,5.7918,5.658,5.573,5.4911,5.4128,5.3905,5.3813,5.3813,5.3813,5.3813,5.372,5.3181,5.294,5.2828,5.2085,5.1398,5.0803,5.058,5.0023,4.9299,4.9243,4.9113,4.8927,4.889,4.889,4.8797,4.8091,4.7088,4.6048,4.5528,4.4989,4.4395,4.4153,4.4005,4.4005,4.4005,4.3708,4.302,4.1787,4.0588,3.9611,3.9014,3.8282,3.7312,3.6689,3.6189,3.581,3.4648,3.3827,3.336,3.2236,3.139,3.0903,3.0207,2.9806,2.9874,2.994,3.0019,3.0128,3.0157,3.0218,3.0253,3.0266,3.0273,3.0304,3.0328,3.0379,3.0398,3.0398,3.0398,3.0398,3.0398,3.0398,3.0398,3.0398,3.0398,3.0398,3.0398,3.039,3.0402,3.0394,3.0428,3.0519,3.0569,3.0634,3.068,3.0717,3.0736,3.0789,3.0784,3.0798,3.0798,3.0794,3.0788,3.0816,3.086,3.0895,3.0918,3.0907,3.0877,3.0855,3.0877,3.0875,3.083,3.0807,3.0801,3.0786,3.0789,3.0779,3.0794,3.0794,3.0774,5.8918,5.8859,5.8739,5.8196,5.736,5.6567,5.5709,5.4834,5.4128,5.3813,5.3813,5.3813,5.3813,5.3794,5.3701,5.3738,5.3627,5.2902,5.2475,5.2289,5.1658,5.0878,5.0079,5.0042,4.9652,4.9039,4.8909,4.889,4.8834,4.8129,4.7683,4.7478,4.6141,4.5305,4.5064,4.4432,4.4005,4.4005,4.4005,4.3968,4.3838,4.3167,4.2023,4.0663,4.0448,3.9642,3.8353,3.8109,3.7422,3.5953,3.5766,3.5033,3.3625,3.3306,3.2518,3.1072,3.0226,2.9827,2.9825,2.9907,3.0007,3.0022,3.0079,3.0142,3.0199,3.0194,3.0228,3.0304,3.0304,3.0336,3.0398,3.0398,3.0398,3.0398,3.0398,3.0398,3.0398,3.0398,3.0398,3.0398,3.041,3.0402,3.0386,3.0398,3.0479,3.0559,3.0615,3.0645,3.069,3.0742,3.0784,3.0799,3.0802,3.0785,3.0788,3.0816,3.0838,3.0862,3.0895,3.0918,3.0911,3.0897,3.0855,3.0813,3.0813,3.0807,3.0801,3.079,3.0798,3.0784,3.0779,3.0774,3.0764,3.0784,3.0784,5.8921,5.8918,5.8832,5.8308,5.7435,5.662,5.5802,5.4946,5.4166,5.3813,5.3813,5.3813,5.3813,5.3813,5.3813,5.3813,5.3775,5.3497,5.3107,5.2624,5.2289,5.1732,5.0933,5.0395,4.9986,4.9652,4.915,4.889,4.8872,4.8593,4.8203,4.772,4.7144,4.6364,4.5435,4.4989,4.4581,4.4061,4.4005,4.4005,4.4005,4.3879,4.3247,4.2136,4.1137,4.015,3.9139,3.8576,3.777,3.6704,3.6179,3.5371,3.4301,3.3682,3.2668,3.1128,3.0678,3.0355,2.992,2.9891,2.9956,3.0007,3.0068,3.0113,3.0123,3.0185,3.0207,3.0228,3.0286,3.033,3.0328,3.0359,3.0398,3.0398,3.0398,3.0398,3.0398,3.0398,3.0398,3.039,3.0402,3.0406,3.0428,3.046,3.053,3.0597,3.0637,3.0671,3.0691,3.0759,3.0799,3.0782,3.0785,3.0801,3.0875,3.0875,3.0876,3.0897,3.0918,3.0895,3.0903,3.0855,3.081,3.0807,3.0788,3.0798,3.0786,3.0769,3.0774,3.0745,3.0739,3.0739,3.0728,3.0748,3.0728,5.9022,5.894,5.8911,5.8553,5.7847,5.6772,5.5951,5.5299,5.4277,5.3813,5.3813,5.3813,5.3813,5.3813,5.3813,5.3813,5.3813,5.3794,5.3497,5.3014,5.2995,5.2568,5.1806,5.1175,5.0618,5.006,4.9299,4.889,4.889,4.889,4.8612,4.8129,4.785,4.7033,4.5844,4.5435,4.4878,4.4172,4.4005,4.4005,4.4085,4.4226,4.3922,4.3006,4.1798,4.0765,3.999,3.9164,3.8338,3.7512,3.6723,3.5784,3.4677,3.3851,3.278,3.1485,3.1111,3.0638,2.994,2.9874,2.9924,2.9972,3.0038,3.0083,3.0094,3.0157,3.0218,3.0207,3.0266,3.0299,3.0328,3.0359,3.0398,3.0398,3.0398,3.0398,3.0398,3.0398,3.039,3.0402,3.0394,3.0428,3.0479,3.055,3.0597,3.064,3.0676,3.0704,3.0734,3.0779,3.0784,3.0794,3.0821,3.0856,3.0898,3.0897,3.0878,3.0896,3.0896,3.0888,3.086,3.0813,3.0785,3.0801,3.0794,3.0802,3.0789,3.0769,3.0739,3.0703,3.0703,3.0709,3.0722,3.071,3.071,5.9139,5.9003,5.8952,5.8874,5.8542,5.7069,5.6323,5.5949,5.4556,5.3905,5.3813,5.3813,5.3813,5.3813,5.3813,5.3813,5.3813,5.3813,5.3775,5.3683,5.3701,5.3311,5.2624,5.2419,5.1509,5.0116,4.9299,4.8909,4.889,4.889,4.8853,4.8723,4.8129,4.7348,4.6457,4.5732,4.4934,4.4209,4.4005,4.4055,4.4202,4.4274,4.3959,4.3259,4.2377,4.1567,4.0816,3.9971,3.907,3.8263,3.7455,3.631,3.4792,3.3907,3.3062,3.22,3.1469,3.0694,2.9978,2.9893,2.9907,2.994,3.0022,3.0102,3.0098,3.0161,3.0218,3.0226,3.0247,3.0299,3.0309,3.0359,3.0398,3.0398,3.0398,3.0398,3.0398,3.0398,3.0402,3.0406,3.0428,3.046,3.055,3.0607,3.0623,3.0695,3.0717,3.0728,3.0769,3.0798,3.0786,3.0817,3.0847,3.0898,3.0911,3.0919,3.0899,3.0882,3.0882,3.0877,3.0833,3.0785,3.0794,3.079,3.0774,3.0779,3.0739,3.0722,3.0722,3.0691,3.0697,3.0691,3.0704,3.0698,3.0711,5.9215,5.9139,5.9001,5.894,5.8769,5.7605,5.6822,5.6227,5.5094,5.4351,5.3868,5.3813,5.3813,5.3813,5.3813,5.3813,5.3813,5.3813,5.3813,5.3813,5.3813,5.3683,5.3367,5.2865,5.1751,5.0246,4.9299,4.8909,4.889,4.889,4.889,4.8834,4.8667,4.7813,4.6587,4.6215,4.5472,4.4172,4.4005,4.4055,4.4184,4.4274,4.4194,4.3915,4.2715,4.1867,4.1586,4.0309,3.9201,3.8375,3.753,3.6351,3.4967,3.4421,3.3915,3.3107,3.2374,3.1598,3.0767,3.0196,2.9926,2.9924,3.0022,3.0087,3.0102,3.0161,3.0204,3.0213,3.0253,3.0305,3.0318,3.0355,3.0398,3.0398,3.0398,3.0398,3.039,3.0402,3.0417,3.0469,3.0479,3.051,3.0578,3.0634,3.0673,3.0717,3.0742,3.0764,3.0782,3.0806,3.0824,3.0868,3.0898,3.0911,3.0903,3.0897,3.0858,3.0855,3.0855,3.0849,3.082,3.079,3.0802,3.0784,3.0769,3.0748,3.071,3.0698,3.0691,3.0691,3.0685,3.0685,3.0697,3.0697,3.069,5.9272,5.9196,5.912,5.9003,5.8828,5.7925,5.7252,5.6599,5.5503,5.4723,5.4277,5.3943,5.3813,5.3813,5.3813,5.3813,5.3813,5.3813,5.3813,5.3813,5.3813,5.3813,5.3701,5.2977,5.1955,5.0711,4.9763,4.9187,4.8909,4.889,4.889,4.889,4.889,4.8259,4.6995,4.6605,4.5788,4.4636,4.4172,4.4085,4.4195,4.4285,4.4344,4.4205,4.3154,4.2348,4.1961,4.0741,3.9652,3.8751,3.776,3.6377,3.4934,3.471,3.4352,3.3619,3.3053,3.2353,3.1236,3.0648,3.0191,3.0,3.0022,3.0087,3.0117,3.0176,3.0199,3.0213,3.0266,3.0305,3.0324,3.0362,3.0398,3.0398,3.0398,3.039,3.0402,3.0417,3.0449,3.049,3.051,3.055,3.0606,3.0657,3.0717,3.0742,3.0778,3.0784,3.0801,3.083,3.0873,3.0898,3.0912,3.0903,3.088,3.0858,3.0836,3.0813,3.081,3.082,3.0786,3.0798,3.0784,3.0739,3.0716,3.0717,3.0697,3.0664,3.0656,3.0649,3.0656,3.0649,3.0661,3.0661,3.0661,5.929,5.9309,5.9215,5.9081,5.8891,5.8101,5.7609,5.7193,5.5837,5.5094,5.4816,5.4147,5.3813,5.3813,5.3813,5.3813,5.3813,5.3813,5.3813,5.3813,5.3813,5.3813,5.3701,5.2977,5.2122,5.1286,5.0432,4.9652,4.8927,4.889,4.889,4.889,4.8872,4.85,4.7608,4.6884,4.6085,4.5194,4.4413,4.4135,4.4285,4.4314,4.4373,4.4449,4.367,4.2825,4.1999,4.1048,4.0184,3.9339,3.7863,3.6481,3.5147,3.4788,3.4411,3.3752,3.3639,3.2807,3.1672,3.1157,3.0814,3.0227,3.0117,3.0102,3.0132,3.0171,3.0207,3.024,3.0267,3.0311,3.0305,3.0362,3.0398,3.039,3.039,3.0402,3.0398,3.0449,3.05,3.052,3.0569,3.0616,3.0621,3.0668,3.0717,3.0778,3.0799,3.0806,3.0819,3.0853,3.0897,3.0909,3.0901,3.0899,3.0877,3.0836,3.0813,3.0804,3.0801,3.0786,3.0789,3.0774,3.0778,3.0724,3.0685,3.0703,3.0688,3.0653,3.0626,3.0626,3.0618,3.0602,3.061,3.0637,3.0618,5.929,5.9309,5.912,5.9042,5.8966,5.8561,5.807,5.7416,5.6432,5.5577,5.4964,5.4147,5.3813,5.3813,5.3813,5.3813,5.3813,5.3813,5.3813,5.3813,5.3813,5.3813,5.3645,5.2977,5.2178,5.1361,5.0525,4.9689,4.8946,4.889,4.889,4.889,4.889,4.8519,4.7701,4.6921,4.6104,4.5319,4.455,4.4195,4.4285,4.4325,4.443,4.4393,4.3745,4.2927,4.2039,4.071,3.9303,3.7962,3.7555,3.6543,3.5075,3.4849,3.4736,3.4472,3.3961,3.3544,3.29,3.1914,3.1191,3.0921,3.0529,3.0117,3.0157,3.0199,3.0221,3.0266,3.0299,3.0311,3.0305,3.0374,3.0421,3.0466,3.0436,3.0417,3.046,3.05,3.052,3.0568,3.0586,3.0621,3.0661,3.0697,3.0736,3.0779,3.0802,3.084,3.0849,3.0879,3.0909,3.0905,3.088,3.0877,3.0855,3.0813,3.0788,3.0794,3.0802,3.0789,3.0764,3.0742,3.0737,3.0703,3.0668,3.0645,3.0637,3.061,3.0602,3.0613,3.0593,3.0585,3.0593,3.0621,3.0602,5.929,5.9309,5.9158,5.9042,5.9003,5.8821,5.8498,5.7825,5.6785,5.6042,5.5354,5.4277,5.3813,5.3813,5.3813,5.3813,5.3813,5.3813,5.3813,5.3813,5.3813,5.3813,5.3608,5.2977,5.2178,5.1379,5.0525,4.9707,4.902,4.889,4.889,4.889,4.889,4.8649,4.8203,4.7033,4.6322,4.5722,4.4854,4.4226,4.4344,4.4401,4.4411,4.4439,4.4016,4.3356,4.2146,4.0599,3.898,3.7675,3.7206,3.6568,3.5096,3.4907,3.4927,3.487,3.4453,3.4112,3.3656,3.2765,3.2193,3.1863,3.1375,3.1039,3.0815,3.0737,3.0733,3.0324,3.0336,3.0348,3.0359,3.0402,3.0458,3.0481,3.0471,3.046,3.0491,3.0521,3.0559,3.0595,3.0621,3.0653,3.071,3.0724,3.0759,3.0793,3.079,3.0833,3.0892,3.0897,3.0903,3.0899,3.0858,3.0836,3.083,3.0807,3.0778,3.0782,3.076,3.0764,3.0761,3.073,3.071,3.068,3.0629,3.0613,3.0613,3.0604,3.0615,3.0606,3.0586,3.0567,3.0567,3.0586,3.0567,5.929,5.9309,5.9215,5.9139,5.8984,5.8921,5.8781,5.8401,5.697,5.6283,5.5874,5.4518,5.3831,5.3813,5.3813,5.3813,5.3813,5.3813,5.3813,5.3813,5.3813,5.3813,5.3701,5.2977,5.2178,5.1379,5.0525,4.9689,4.9076,4.889,4.889,4.889,4.889,4.889,4.8519,4.7386,4.6708,4.6257,4.5165,4.4472,4.441,4.443,4.444,4.4467,4.4105,4.3441,4.2152,4.0692,3.9126,3.7537,3.7364,3.6553,3.5287,3.504,3.4908,3.4927,3.4832,3.4548,3.4072,3.3786,3.3422,3.2842,3.2676,3.2397,3.1757,3.1654,3.1488,3.0982,3.0664,3.0821,3.0689,3.0664,3.0607,3.0579,3.0511,3.0511,3.0511,3.0568,3.0623,3.0613,3.0668,3.069,3.0717,3.0748,3.0784,3.0786,3.0801,3.0836,3.0874,3.0917,3.0909,3.0919,3.0855,3.0794,3.0804,3.0798,3.0786,3.0769,3.0739,3.0716,3.073,3.0703,3.0688,3.0665,3.0632,3.0615,3.0615,3.0597,3.0607,3.0569,3.055,3.0511,3.0501,3.053,3.053,5.929,5.929,5.9234,5.9139,5.9003,5.8921,5.8818,5.8549,5.6989,5.6283,5.5912,5.4537,5.385,5.3813,5.3813,5.3813,5.3813,5.3813,5.3813,5.3813,5.3813,5.3813,5.3608,5.2921,5.2159,5.1361,5.0506,4.9689,4.9076,4.889,4.889,4.8909,4.8909,4.889,4.8723,4.7973,4.7169,4.6581,4.5686,4.4953,4.4468,4.4487,4.4496,4.4511,4.3605,4.2853,4.22,4.0867,3.9561,3.8592,3.7772,3.6994,3.5989,3.5287,3.5003,3.4983,3.4964,3.4906,3.4732,3.4253,3.3846,3.3704,3.3268,3.2718,3.2645,3.2603,3.2576,3.2408,3.2432,3.2042,3.1581,3.1516,3.1207,3.083,3.0607,3.0577,3.0586,3.0576,3.0621,3.0661,3.069,3.0711,3.0759,3.0769,3.0798,3.0798,3.081,3.0821,3.0856,3.0898,3.0911,3.0897,3.0852,3.0788,3.0798,3.0786,3.0769,3.075,3.0722,3.0698,3.071,3.068,3.0665,3.064,3.0615,3.0597,3.0588,3.055,3.053,3.052,3.0549,3.0586,3.0614,3.0557,3.0844,5.929,5.9309,5.9215,5.9139,5.9003,5.8921,5.8595,5.7955,5.6859,5.606,5.5484,5.4314,5.3813,5.3813,5.3813,5.3813,5.3813,5.3813,5.3813,5.3813,5.3794,5.3608,5.3088,5.2494,5.1769,5.1212,5.0098,4.9317,4.9002,4.8909,4.8962,4.8996,4.9015,4.903,4.8934,4.8296,4.7484,4.6694,4.5952,4.5236,4.4627,4.4524,4.4632,4.4549,4.3658,4.2955,4.2471,4.1411,4.0347,3.949,3.8633,3.7547,3.6464,3.5818,3.5438,3.5096,3.5056,3.5072,3.4971,3.4814,3.4611,3.463,3.4237,3.3895,3.3647,3.3532,3.3306,3.3118,3.296,3.2808,3.2443,3.1932,3.1594,3.1292,3.0828,3.0632,3.0637,3.0645,3.0653,3.0717,3.0724,3.0767,3.0794,3.0793,3.081,3.0807,3.085,3.0856,3.0858,3.0896,3.0866,3.0855,3.083,3.0801,3.079,3.0793,3.0769,3.0748,3.0704,3.0697,3.0695,3.0665,3.0613,3.0615,3.0597,3.055,3.053,3.0491,3.05,3.0519,3.0576,3.0689,3.0898,3.1126,3.1545,5.929,5.9309,5.9253,5.912,5.8984,5.8812,5.8263,5.7472,5.6487,5.5652,5.4983,5.4166,5.3813,5.3813,5.3813,5.3813,5.3813,5.3813,5.3813,5.3813,5.3534,5.3218,5.2587,5.1788,5.1211,5.1062,4.978,4.9018,4.8996,4.8943,4.903,4.9083,4.9101,4.9135,4.9029,4.8595,4.7884,4.7142,4.6379,4.5594,4.4917,4.4764,4.4738,4.4743,4.4136,4.3523,4.2902,4.199,4.1094,4.0444,3.9659,3.8382,3.7202,3.6481,3.6156,3.5413,3.5429,3.5384,3.528,3.5251,3.5292,3.5411,3.5424,3.513,3.459,3.4422,3.4202,3.3859,3.3669,3.3613,3.3314,3.289,3.2299,3.1823,3.1183,3.0831,3.0695,3.0697,3.073,3.0717,3.0748,3.0794,3.0793,3.079,3.0804,3.0841,3.0857,3.0879,3.0877,3.0873,3.086,3.0846,3.0798,3.1133,3.1213,3.1704,3.1584,3.1404,3.1222,3.1212,3.115,3.1067,3.107,3.0655,3.0578,3.055,3.051,3.0471,3.0499,3.0537,3.0813,3.1126,3.1436,3.1719,3.2269,5.929,5.929,5.9309,5.9178,5.8912,5.8293,5.7803,5.7268,5.5874,5.5169,5.489,5.4166,5.3813,5.3794,5.3794,5.3775,5.3608,5.3534,5.3608,5.3497,5.3107,5.2587,5.2196,5.121,5.0594,5.0259,4.9496,4.9116,4.9113,4.9164,4.9164,4.9164,4.9168,4.922,4.9211,4.9024,4.8565,4.7803,4.7124,4.6422,4.5612,4.5066,4.487,4.5004,4.4426,4.4013,4.3578,4.247,4.1585,4.1389,4.0626,3.9653,3.8697,3.7917,3.7192,3.6466,3.6176,3.5975,3.5618,3.5451,3.5474,3.5509,3.5534,3.5579,3.536,3.5326,3.5098,3.509,3.4988,3.4951,3.4339,3.3916,3.3218,3.2402,3.174,3.134,3.0872,3.073,3.0773,3.0764,3.0779,3.0793,3.081,3.0807,3.0841,3.0852,3.0859,3.0855,3.0825,3.0841,3.0849,3.0837,3.0802,3.1266,3.1707,3.2435,3.2778,3.2582,3.2435,3.2393,3.225,3.1874,3.1603,3.1303,3.0829,3.0558,3.0518,3.0574,3.091,3.1284,3.1468,3.1661,3.2154,3.2626,3.3053,5.929,5.929,5.929,5.8915,5.8369,5.7957,5.7169,5.6153,5.5354,5.476,5.437,5.398,5.3813,5.3701,5.333,5.2995,5.2679,5.2549,5.2549,5.2438,5.2141,5.1714,5.149,5.0575,5.0157,4.978,4.9365,4.9197,4.9197,4.9197,4.923,4.9262,4.9267,4.9267,4.9345,4.934,4.894,4.8288,4.7822,4.7127,4.6074,4.5355,4.5163,4.508,4.4937,4.4614,4.4078,4.367,4.2643,4.1925,4.1389,4.0716,4.0008,3.9396,3.86,3.7513,3.6934,3.6541,3.6084,3.5855,3.5554,3.5553,3.5577,3.5608,3.5651,3.5635,3.5646,3.5667,3.5688,3.5563,3.5126,3.4788,3.3876,3.2873,3.2229,3.1603,3.0989,3.0812,3.0779,3.0798,3.0806,3.0813,3.082,3.0836,3.0868,3.0878,3.0856,3.0864,3.0866,3.0938,3.1051,3.1514,3.1651,3.2135,3.259,3.3114,3.3654,3.3572,3.3479,3.3442,3.317,3.2733,3.2411,3.2135,3.1595,3.0901,3.1014,3.1229,3.1621,3.2006,3.2186,3.2492,3.3058,3.3561,3.391,5.929,5.929,5.914,5.8559,5.7827,5.7378,5.6442,5.5189,5.4834,5.4407,5.385,5.3627,5.3515,5.3348,5.2735,5.2029,5.1398,5.1473,5.151,5.1509,5.1285,5.0856,5.0464,5.0067,4.9832,4.9501,4.9383,4.9327,4.9295,4.9262,4.9295,4.9327,4.9345,4.9377,4.9459,4.9459,4.9025,4.8735,4.8323,4.7588,4.6423,4.5646,4.5319,4.5359,4.5457,4.5186,4.4722,4.4331,4.3686,4.2849,4.2247,4.1764,4.1031,4.0872,4.0116,3.8691,3.7756,3.7269,3.6678,3.6324,3.5905,3.5659,3.5612,3.5635,3.5676,3.5697,3.5698,3.5708,3.5718,3.5718,3.5524,3.5145,3.4415,3.3604,3.2776,3.1994,3.1331,3.0969,3.0798,3.079,3.0824,3.0894,3.096,3.0841,3.0889,3.0838,3.0823,3.1206,3.1207,3.1297,3.1558,3.2308,3.2791,3.3206,3.3584,3.3813,3.4214,3.4294,3.4245,3.4223,3.389,3.3489,3.321,3.2942,3.2102,3.1552,3.17,3.1937,3.234,3.2659,3.2886,3.3336,3.3961,3.4235,3.4429,5.929,5.9234,5.8539,5.8072,5.7547,5.6257,5.5435,5.4927,5.4277,5.3924,5.3664,5.3107,5.2791,5.2475,5.1881,5.1491,5.1305,5.1174,5.1118,5.1025,5.0647,5.0365,5.0179,4.9641,4.9524,4.934,4.9409,4.9459,4.9427,4.9427,4.9459,4.9459,4.9459,4.949,4.949,4.9521,4.9514,4.9292,4.8739,4.7742,4.6572,4.5753,4.5456,4.5495,4.5586,4.5543,4.5321,4.4928,4.4326,4.4085,4.3361,4.2647,4.1933,4.1793,4.1343,4.0461,3.9502,3.846,3.7346,3.6876,3.6424,3.6002,3.5792,3.5736,3.5707,3.5728,3.5728,3.5794,3.5775,3.5765,3.5773,3.5666,3.5166,3.4404,3.3485,3.2688,3.1977,3.1334,3.1137,3.1198,3.1365,3.1242,3.1209,3.103,3.0873,3.0835,3.0905,3.1363,3.1776,3.1997,3.2235,3.3038,3.3743,3.4198,3.4339,3.4603,3.471,3.4902,3.4878,3.487,3.4603,3.4276,3.4109,3.3684,3.2851,3.2511,3.279,3.3025,3.3173,3.3412,3.3731,3.4276,3.4895,3.5011,3.488,5.8146,5.8539,5.7769,5.7004,5.6351,5.5566,5.4932,5.4352,5.3961,5.3534,5.3144,5.2791,5.2141,5.1342,5.0803,5.0395,5.0079,5.0059,5.0056,5.0149,4.9825,4.9668,4.9641,4.9463,4.9308,4.9409,4.9459,4.949,4.9509,4.9509,4.9509,4.949,4.949,4.9521,4.9551,4.9563,4.9623,4.9344,4.8613,4.7751,4.7026,4.6125,4.5477,4.5605,4.569,4.5719,4.5634,4.5505,4.4964,4.465,4.4095,4.3612,4.2781,4.2292,4.177,4.1461,4.0636,3.9644,3.8562,3.7943,3.7251,3.6663,3.6385,3.6279,3.5922,3.5757,3.5756,3.5801,3.5801,3.581,3.5799,3.5807,3.5317,3.4697,3.3972,3.3179,3.246,3.2006,3.1652,3.1769,3.1903,3.1912,3.1914,3.1874,3.1796,3.1684,3.1906,3.2396,3.2878,3.3278,3.3531,3.3879,3.4539,3.5145,3.5146,3.5252,3.5182,3.5272,3.5239,3.5239,3.527,3.5076,3.4769,3.4672,3.4297,3.4075,3.4025,3.385,3.3788,3.4159,3.4606,3.4878,3.5073,3.5091,3.4961,5.6798,5.7431,5.6812,5.6067,5.5286,5.5099,5.4559,5.385,5.3571,5.3162,5.2605,5.2122,5.1119,5.0135,4.9819,4.954,4.8983,4.8943,4.8996,4.9083,4.9131,4.9249,4.9351,4.9358,4.9409,4.9509,4.9509,4.9521,4.9521,4.9521,4.9521,4.9521,4.957,4.9582,4.9604,4.9634,4.9702,4.9683,4.8435,4.7804,4.7458,4.6282,4.5742,4.5637,4.5738,4.58,4.58,4.5771,4.5394,4.5084,4.4929,4.449,4.3678,4.3175,4.2512,4.2048,4.1313,4.0725,3.9777,3.9004,3.8202,3.7575,3.7006,3.66,3.592,3.5793,3.5801,3.5799,3.5807,3.5818,3.5818,3.5823,3.5573,3.499,3.4249,3.3468,3.284,3.2584,3.2433,3.2512,3.2694,3.2949,3.2944,3.2914,3.2787,3.2599,3.2907,3.3404,3.3842,3.4268,3.4536,3.4706,3.4962,3.5485,3.5493,3.5557,3.5581,3.554,3.5482,3.5446,3.5379,3.5315,3.5082,3.513,3.5176,3.4952,3.4499,3.4418,3.4358,3.4647,3.4861,3.4923,3.502,3.502,3.4983,5.5545,5.5779,5.5723,5.5542,5.5193,5.4483,5.4056,5.3645,5.3014,5.2642,5.2178,5.1045,4.9912,4.9243,4.915,4.9057,4.8909,4.9015,4.9083,4.9131,4.9211,4.9276,4.9358,4.9409,4.949,4.949,4.9521,4.9551,4.9593,4.9593,4.9593,4.9593,4.9642,4.9671,4.9721,4.9741,4.9824,4.9637,4.8519,4.7857,4.7448,4.6551,4.5697,4.5742,4.5804,4.581,4.5819,4.5838,4.5761,4.5548,4.5529,4.5316,4.4581,4.4156,4.3479,4.266,4.1996,4.1447,4.0723,3.9909,3.9057,3.8285,3.7492,3.6716,3.5907,3.5791,3.5807,3.5803,3.5823,3.5842,3.5862,3.5857,3.5756,3.541,3.4798,3.4282,3.3754,3.3496,3.3363,3.3338,3.3553,3.3939,3.4066,3.4069,3.3688,3.3457,3.3691,3.4186,3.4547,3.4936,3.526,3.5437,3.5436,3.5568,3.5577,3.557,3.5515,3.5463,3.5393,3.5354,3.5308,3.5242,3.5193,3.516,3.5108,3.5056,3.502,3.4773,3.4696,3.4921,3.5056,3.4964,3.487,3.4869,3.483,5.4666,5.4878,5.4859,5.4737,5.4539,5.4222,5.3702,5.307,5.2717,5.1955,5.1026,4.9875,4.9206,4.8964,4.8909,4.8962,4.9015,4.9049,4.915,4.923,4.9276,4.934,4.9409,4.9459,4.949,4.949,4.9551,4.9582,4.9574,4.9682,4.9731,4.9778,4.974,4.975,4.9797,4.9914,5.0038,4.9719,4.877,4.7943,4.7665,4.6549,4.5918,4.6538,4.5911,4.6153,4.6419,4.6032,4.5896,4.58,4.58,4.5548,4.5258,4.491,4.4285,4.3447,4.2782,4.2051,4.1521,4.0699,3.973,3.8394,3.7531,3.6762,3.6009,3.5815,3.583,3.5838,3.5872,3.5864,3.5884,3.5885,3.5833,3.5666,3.5368,3.4924,3.4647,3.4351,3.425,3.4199,3.4679,3.5171,3.5236,3.5256,3.4779,3.436,3.464,3.4921,3.518,3.5339,3.5563,3.5658,3.5604,3.5577,3.5553,3.5509,3.546,3.5383,3.5285,3.5258,3.5229,3.5179,3.5127,3.5092,3.502,3.4964,3.4927,3.4927,3.4927,3.4926,3.4908,3.483,3.4769,3.4668,3.4647,5.4198,5.4375,5.439,5.4287,5.4163,5.3865,5.3364,5.2679,5.2084,5.1173,4.9796,4.9201,4.8959,4.8959,4.9012,4.903,4.9116,4.9164,4.923,4.9295,4.9358,4.9409,4.9459,4.9509,4.9539,4.9521,4.9582,4.9623,4.9663,4.975,4.9816,4.9871,4.9843,4.9852,4.9959,5.0114,5.0278,4.9985,4.9212,4.8432,4.8316,4.7309,4.6684,4.7364,4.6965,4.6748,4.6883,4.6535,4.6109,4.5916,4.58,4.5814,4.562,4.5344,4.4931,4.4324,4.3652,4.2714,4.2039,4.1244,4.0198,3.8986,3.8052,3.7195,3.6433,3.6013,3.5852,3.5872,3.5898,3.5898,3.5898,3.5917,3.5928,3.5812,3.565,3.5307,3.5288,3.5107,3.5096,3.5095,3.5532,3.5763,3.5695,3.5611,3.5392,3.5029,3.5184,3.5316,3.5398,3.5514,3.554,3.5593,3.5584,3.5541,3.5507,3.5417,3.5339,3.5308,3.5242,3.5193,3.5143,3.5092,3.5039,3.5001,3.4946,3.4869,3.481,3.4769,3.4772,3.4793,3.4732,3.4663,3.4561,3.4495,3.4431,5.4125,5.4308,5.43,5.4265,5.4027,5.339,5.2947,5.2412,5.1143,5.006,4.9351,4.9164,4.9146,4.9146,4.9146,4.9164,4.9197,4.9244,4.9308,4.9358,4.9409,4.9509,4.9509,4.9539,4.9551,4.9593,4.9604,4.9692,4.9778,4.9835,4.9898,4.9978,5.0005,5.0012,5.0108,5.0231,5.0371,5.0366,4.9663,4.9355,4.9064,4.834,4.8025,4.8191,4.8029,4.7715,4.7366,4.7033,4.651,4.593,4.5847,4.5841,4.5815,4.5796,4.5422,4.4807,4.463,4.371,4.2363,4.1412,4.0461,3.9604,3.868,3.7957,3.7182,3.6527,3.5957,3.6,3.5908,3.5928,3.5958,3.5987,3.5987,3.5938,3.5775,3.5715,3.5673,3.5682,3.5605,3.5538,3.5757,3.5962,3.5883,3.582,3.5784,3.5682,3.576,3.5736,3.5669,3.5604,3.5558,3.554,3.5509,3.5422,3.5383,3.5293,3.5226,3.5193,3.516,3.5108,3.5056,3.4983,3.4946,3.4908,3.4831,3.4749,3.4668,3.4604,3.4548,3.451,3.4536,3.4461,3.4377,3.4293,3.4245,5.3094,5.269,5.2723,5.2723,5.2709,5.2956,5.2367,5.1177,5.0112,4.9421,4.9216,4.9197,4.9197,4.9197,4.923,4.923,4.9295,4.9276,4.9308,4.944,4.949,4.9521,4.9551,4.9563,4.9593,4.9663,4.9673,4.9721,4.9807,4.989,4.9978,5.0057,5.0207,5.0255,5.0283,5.0396,5.0526,5.0432,4.9874,4.9464,4.9459,4.8855,4.8636,4.9135,4.8798,4.8333,4.7869,4.7511,4.6809,4.6015,4.5874,4.588,4.5893,4.5893,4.5789,4.5347,4.5118,4.3936,4.252,4.1422,4.0595,3.9913,3.9385,3.859,3.7404,3.7001,3.6532,3.6099,3.5968,3.5987,3.5997,3.6001,3.6005,3.6004,3.5918,3.593,3.5917,3.5917,3.5888,3.5854,3.5947,3.5908,3.5852,3.5795,3.5765,3.5718,3.5689,3.5679,3.5626,3.5553,3.5509,3.5482,3.5441,3.535,3.5254,3.5193,3.5143,3.5108,3.5056,3.4982,3.4946,3.4888,3.483,3.479,3.4728,3.4645,3.452,3.4413,3.4284,3.4255,3.4228,3.4222,3.4167,3.4099,3.4023,5.2252,5.1865,5.1879,5.1743,5.1579,5.2015,5.1368,5.0137,4.9519,4.9295,4.9295,4.9295,4.9295,4.9295,4.9295,4.9327,4.9358,4.9358,4.9421,4.9521,4.9532,4.9563,4.9623,4.9634,4.9663,4.9721,4.9759,4.9807,4.989,4.9952,5.0057,5.0207,5.0371,5.0418,5.0442,5.0526,5.0625,5.0566,5.0252,5.0074,4.9953,4.9695,4.956,4.9823,4.9625,4.9079,4.8459,4.7796,4.7088,4.6287,4.5893,4.5917,4.5917,4.5929,4.5941,4.575,4.4821,4.3812,4.2829,4.1521,4.0801,4.0303,3.996,3.9085,3.7876,3.7356,3.6728,3.6289,3.6059,3.6009,3.6013,3.6017,3.6021,3.601,3.6012,3.6016,3.6011,3.5999,3.5971,3.5947,3.5919,3.5866,3.5807,3.5736,3.5699,3.5637,3.5581,3.557,3.5558,3.5522,3.5446,3.5383,3.5354,3.5258,3.5174,3.5089,3.5073,3.5038,3.4964,3.4888,3.4831,3.479,3.4728,3.4685,3.4602,3.4476,3.4367,3.4237,3.4099,3.3979,3.3899,3.3907,3.3939,3.3895,3.3834,5.1761,5.1742,5.1804,5.1335,5.0753,5.0748,5.026,4.9546,4.9509,4.949,4.949,4.9459,4.9459,4.949,4.949,4.949,4.949,4.949,4.9532,4.9593,4.9574,4.9653,4.9711,4.9721,4.9778,4.9788,4.9843,4.9925,5.0005,5.0057,5.0158,5.0306,5.0485,5.0567,5.0606,5.0664,5.0738,5.0752,5.0728,5.051,5.0291,5.0426,5.0171,5.0167,4.9969,4.9248,4.8604,4.7992,4.7223,4.6499,4.5898,4.5929,4.5972,4.5991,4.5994,4.5511,4.4346,4.3713,4.3019,4.1687,4.1156,4.0708,4.0292,3.9466,3.8575,3.7727,3.7078,3.6391,3.6007,3.6007,3.601,3.6012,3.6014,3.6013,3.6013,3.6005,3.5988,3.597,3.5938,3.5919,3.5878,3.5826,3.5754,3.5699,3.5626,3.5589,3.5515,3.5443,3.543,3.5435,3.5369,3.5258,3.5226,3.516,3.5091,3.5001,3.4945,3.4927,3.4868,3.4788,3.4728,3.4687,3.4602,3.4495,3.445,3.434,3.4179,3.4018,3.3873,3.3753,3.3668,3.3678,3.3744,3.3716,3.3633,5.0595,5.0172,5.0203,5.0091,4.9922,4.9977,4.9807,4.9509,4.9509,4.9509,4.9509,4.9509,4.9521,4.9509,4.9551,4.9563,4.9593,4.9642,4.9653,4.9663,4.9663,4.9721,4.9778,4.9816,4.9852,4.9906,4.9978,5.0031,5.0082,5.0158,5.031,5.0486,5.0586,5.0663,5.0738,5.0829,5.0846,5.0841,5.0855,5.0542,5.021,5.0094,4.9819,4.9485,4.9398,4.8676,4.8005,4.7721,4.7008,4.6232,4.5983,4.5986,4.5986,4.5966,4.5861,4.5094,4.4121,4.3339,4.2622,4.163,4.1019,4.1056,4.0774,3.9882,3.897,3.812,3.7409,3.6584,3.6049,3.6013,3.6014,3.6014,3.6021,3.6013,3.6013,3.5985,3.5962,3.5924,3.5889,3.5833,3.5806,3.5752,3.5669,3.5607,3.5546,3.5522,3.5441,3.5364,3.532,3.5304,3.5273,3.5157,3.5107,3.5037,3.4982,3.4889,3.485,3.483,3.4728,3.4685,3.4623,3.4539,3.445,3.4316,3.4245,3.4099,3.3921,3.3797,3.3698,3.3559,3.3465,3.3506,3.3517,3.347,3.3393,4.9872,4.957,4.9551,4.9551,4.9649,4.9671,4.9653,4.9593,4.9582,4.9563,4.9582,4.9563,4.9563,4.9612,4.9623,4.9653,4.9653,4.9682,4.9711,4.975,4.9731,4.9788,4.9871,4.9925,4.9978,5.0057,5.0089,5.0158,5.0231,5.0333,5.0486,5.0567,5.0644,5.0775,5.0863,5.088,5.0897,5.0758,5.0542,5.0152,4.9765,4.9374,4.8808,4.8468,4.8366,4.7921,4.7333,4.7272,4.6799,4.615,4.5997,4.6026,4.6037,4.6008,4.5677,4.4917,4.4086,4.3245,4.2468,4.1577,4.1184,4.1085,4.1074,4.0122,3.9237,3.8385,3.7377,3.6463,3.6191,3.6009,3.6007,3.6003,3.602,3.6012,3.5992,3.5958,3.5919,3.5864,3.5827,3.5757,3.5697,3.564,3.5566,3.5514,3.5457,3.5412,3.5339,3.5223,3.519,3.5174,3.5124,3.5054,3.5001,3.4945,3.4851,3.4772,3.473,3.4687,3.4583,3.4517,3.4495,3.4427,3.4311,3.4148,3.4023,3.3895,3.3788,3.3671,3.3577,3.3429,3.3286,3.3224,3.3237,3.3214,3.3152,4.9551,4.9574,4.9623,4.9653,4.9721,4.9693,4.9712,4.9721,4.9721,4.9692,4.9692,4.9711,4.9711,4.9682,4.9692,4.9692,4.9721,4.975,4.9807,4.9807,4.9816,4.9871,4.9978,5.0031,5.0108,5.0133,5.0188,5.0283,5.0374,5.0485,5.0586,5.0606,5.0775,5.0899,5.0913,5.0909,5.0906,5.0825,5.0128,4.9485,4.9277,4.8827,4.8255,4.8128,4.8018,4.7835,4.7311,4.7023,4.6832,4.6279,4.6007,4.6056,4.6085,4.587,4.5429,4.4705,4.3778,4.2961,4.2181,4.1432,4.1202,4.1114,4.1052,4.0246,3.9452,3.8691,3.7693,3.648,3.606,3.6013,3.601,3.6004,3.6005,3.5982,3.5958,3.5908,3.5859,3.5806,3.5704,3.567,3.5618,3.555,3.5457,3.5411,3.536,3.5308,3.5193,3.5089,3.5054,3.5037,3.4963,3.4927,3.487,3.4811,3.4751,3.4668,3.4604,3.4517,3.445,3.4386,3.4358,3.4264,3.4142,3.3998,3.3868,3.3788,3.3698,3.3549,3.3404,3.3244,3.3113,3.2977,3.2962,3.3084,3.3123,4.9593,4.9604,4.9711,4.9769,4.9778,4.9824,4.9833,4.9843,4.9843,4.9731,4.9702,4.9673,4.9617,4.9514,4.9523,4.9552,4.9636,4.9607,4.986,4.9887,4.9895,4.9978,5.0082,5.0139,5.0231,5.0278,5.0371,5.0462,5.0526,5.0625,5.0739,5.081,5.0916,5.0948,5.0975,5.0971,5.0966,5.0942,4.9683,4.8952,4.8739,4.7973,4.7282,4.6887,4.6632,4.6721,4.6402,4.6346,4.627,4.6066,4.6066,4.6085,4.6104,4.5546,4.4803,4.3961,4.3234,4.2434,4.1764,4.1306,4.1167,4.1113,4.0976,4.0404,3.975,3.9022,3.806,3.6785,3.6059,3.6072,3.6005,3.5981,3.5968,3.5933,3.5917,3.5866,3.5811,3.5726,3.5611,3.5585,3.5521,3.5457,3.5369,3.5296,3.5239,3.516,3.5037,3.4926,3.487,3.4851,3.4812,3.4752,3.471,3.4666,3.4623,3.4539,3.445,3.4381,3.4293,3.4245,3.4191,3.4067,3.3939,3.386,3.3753,3.3643,3.353,3.3386,3.3226,3.3091,3.3084,3.2995,3.3178,3.3354,3.3336,4.9653,4.9655,4.9428,4.9305,4.9238,4.8969,4.878,4.8799,4.878,4.8753,4.8767,4.9012,4.9069,4.8758,4.8718,4.8867,4.8943,4.9243,4.9314,4.9499,4.9886,5.0089,5.0163,5.0259,5.0348,5.0416,5.0525,5.0625,5.0682,5.0754,5.0841,5.0913,5.0964,5.0995,5.1053,5.1034,5.1053,5.1004,4.935,4.86,4.8277,4.7352,4.6601,4.605,4.5994,4.6005,4.5997,4.6007,4.6066,4.6105,4.6114,4.6141,4.5971,4.5402,4.4559,4.3734,4.2908,4.2013,4.1404,4.111,4.1112,4.1105,4.1094,4.0606,3.9942,3.9213,3.8467,3.7312,3.6762,3.6699,3.6114,3.5953,3.5911,3.5859,3.5845,3.5795,3.5717,3.562,3.5562,3.5528,3.5468,3.536,3.5285,3.5207,3.5143,3.5019,3.4908,3.4811,3.4751,3.4649,3.4607,3.462,3.4589,3.451,3.445,3.4381,3.4269,3.4197,3.4278,3.4166,3.412,3.3897,3.3771,3.3844,3.3777,3.3462,3.3316,3.3381,3.3046,3.2834,3.2942,3.3055,3.3314,3.3665,3.3869,4.9315,4.9372,4.8791,4.8515,4.842,4.7757,4.7479,4.7498,4.7479,4.7403,4.7422,4.8067,4.7877,4.7631,4.7422,4.7473,4.7745,4.8371,4.8631,4.9137,4.9638,4.9959,5.0202,5.0348,5.0481,5.0585,5.0702,5.0757,5.081,5.0877,5.0941,5.0956,5.1005,5.1081,5.1081,5.1101,5.1114,5.0681,4.9647,4.8689,4.7835,4.6934,4.6294,4.6014,4.6005,4.6026,4.6037,4.6047,4.6105,4.6132,4.6138,4.5986,4.5631,4.502,4.4234,4.3387,4.249,4.1774,4.1285,4.1112,4.1099,4.1113,4.1111,4.0788,4.0106,3.9613,3.8867,3.8258,3.7731,3.7166,3.6601,3.6292,3.6261,3.5907,3.589,3.5727,3.5618,3.5526,3.547,3.546,3.5369,3.5258,3.5176,3.511,3.5001,3.4908,3.481,3.4689,3.4583,3.4431,3.434,3.446,3.4556,3.4463,3.432,3.4488,3.4481,3.4552,3.4602,3.4328,3.4147,3.442,3.4386,3.4098,3.3924,3.3857,3.3701,3.372,3.3288,3.291,3.3125,3.3447,3.3757,3.4129,3.4523,4.7783,4.7825,4.7681,4.7643,4.7605,4.7434,4.7403,4.7473,4.7397,4.7156,4.673,4.673,4.6977,4.7479,4.7566,4.7476,4.7229,4.7724,4.8381,4.8982,4.9239,4.9729,5.0224,5.0525,5.0625,5.072,5.0827,5.0858,5.0909,5.101,5.1053,5.1034,5.1053,5.1114,5.1102,5.1134,5.1076,5.0642,4.9761,4.8685,4.8103,4.722,4.623,4.6007,4.6037,4.6066,4.6076,4.6075,4.6141,4.6166,4.613,4.582,4.5228,4.4532,4.3709,4.2912,4.2031,4.1539,4.1151,4.1094,4.1085,4.1091,4.107,4.0994,4.0617,4.0597,3.9928,3.9337,3.8799,3.8248,3.7754,3.7688,3.7556,3.661,3.6198,3.5786,3.5502,3.5397,3.533,3.5273,3.5176,3.5091,3.4982,3.4908,3.483,3.4727,3.4711,3.46,3.4647,3.4413,3.4222,3.4423,3.4666,3.4341,3.4208,3.4858,3.4999,3.5046,3.5062,3.4958,3.5034,3.5363,3.5258,3.4655,3.4634,3.47,3.4495,3.3987,3.3934,3.3717,3.3755,3.3955,3.4213,3.4423,3.4699]},{"header":{"parameterUnit":"m.s-1","parameterCategory":1,"la1":31.0,"la2":29.5877,"lo1":-88.7671,"lo2":-86.6584,"dy":0.0162,"dx":0.0185,"nx":115,"ny":88,"refTime":"2023-08-29T06:00:00:Z","depth":0,"parameterNumber":3,"parameterNumberName":"V-component_of_WINDS"},"data":[0.0,0.0,0.0,0.0,0.0,0.0,0.0,0.0,0.0,0.0,0.0,0.0,0.0,0.0,0.0,0.0,0.0,0.0,0.0,0.0,0.0,0.0,0.0,0.0,0.0,0.0,0.0,0.0,0.0,0.0,0.0,0.0,0.0,0.0,0.0,0.0,0.0,0.0,0.0,0.0,0.0,0.0,0.0,0.0,0.0,0.0,0.0,0.0,0.0,0.0,0.0,0.0,0.0,0.0,0.0,0.0,0.0,0.0,0.0,0.0,0.0,0.0,0.0,0.0,0.0,0.0,0.0,0.0,0.0,0.0,0.0,0.0,0.0,0.0,0.0,0.0,0.0,0.0,0.0,0.0,0.0,0.0,0.0,0.0,0.0,0.0,0.0,0.0,0.0,0.0,0.0,0.0,0.0,0.0,0.0,0.0,0.0,0.0,0.0,0.0,0.0,0.0,0.0,0.0,0.0,0.0,0.0,0.0,0.0,0.0,0.0,0.0,0.0,0.0,0.0,0.0,0.0,0.0,0.0,0.0,0.0,0.0,0.0,0.0,0.0,0.0,0.0,0.0,0.0,0.0,0.0,0.0,0.0,0.0,0.0,0.0,0.0,0.0,0.0,0.0,0.0,0.0,0.0,0.0,0.0,0.0,0.0,0.0,0.0,0.0,0.0,0.0,0.0,0.0,0.0,0.0,0.0,0.0,0.0,0.0,0.0,0.0,0.0,0.0,0.0,0.0,0.0,0.0,0.0,0.0,0.0,0.0,0.0,0.0,0.0,0.0,0.0,0.0,0.0,0.0,0.0,0.0,0.0,0.0,0.0,0.0,0.0,0.0,0.0,0.0,0.0,0.0,0.0,0.0,0.0,0.0,0.0,0.0,0.0,0.0,0.0,0.0,0.0,0.0,0.0,0.0,0.0,0.0,0.0,0.0,0.0,0.0,0.0,0.0,0.0,0.0,0.0,0.0,0.0,0.0,0.0,0.0,0.0,0.0,0.0,0.0,0.0,0.0,0.0,0.0,0.0,0.0,0.0,0.0,0.0,0.0,0.0,0.0,0.0,0.0,0.0,0.0,0.0,0.0,0.0,0.0,0.0,0.0,0.0,0.0,0.0,0.0,0.0,0.0,0.0,0.0,0.0,0.0,0.0,0.0,0.0,0.0,0.0,0.0,0.0,0.0,0.0,0.0,0.0,0.0,0.0,0.0,0.0,0.0,0.0,0.0,0.0,0.0,0.0,0.0,0.0,0.0,0.0,0.0,0.0,0.0,0.0,0.0,0.0,0.0,0.0,0.0,0.0,0.0,0.0,0.0,0.0,0.0,0.0,0.0,0.0,0.0,0.0,0.0,0.0,0.0,0.0,0.0,0.0,0.0,0.0,0.0,0.0,0.0,0.0,0.0,0.0,0.0,0.0,0.0,0.0,0.0,0.0,0.0,0.0,0.0,0.0,0.0,0.0,0.0,0.0,0.0,0.0,0.0,0.0,0.0,0.0,0.0,0.0,0.0,0.0,0.0,0.0,0.0,0.0,0.0,0.0,0.0,0.0,0.0,0.0,0.0,0.0,0.0,0.0,0.0,0.0,0.0,0.0,0.0,0.0,0.0,0.0,0.0,0.0,0.0,0.0,0.0,0.0,0.0,0.0,0.0,0.0,0.0,0.0,0.0,0.0,0.0,0.0,0.0,0.0,0.0,0.0,0.0,0.0,0.0,0.0,0.0,0.0,0.0,0.0,0.0,0.0,0.0,0.0,0.0,0.0,0.0,0.0,0.0,0.0,0.0,0.0,0.0,0.0,0.0,0.0,0.0,0.0,0.0,0.0,0.0,0.0,0.0,0.0,0.0,0.0,0.0,0.0,0.0,0.0,0.0,0.0,0.0,0.0,0.0,0.0,0.0,0.0,0.0,0.0,0.0,0.0,0.0,0.0,0.0,0.0,0.0,0.0,0.0,0.0,0.0,0.0,0.0,0.0,0.0,0.0,0.0,0.0,0.0,0.0,0.0,0.0,0.0,0.0,0.0,0.0,0.0,0.0,0.0,0.0,0.0,0.0,0.0,0.0,0.0,0.0,0.0,0.0,0.0,0.0,0.0,0.0,0.0,0.0,0.0,0.0,0.0,0.0,0.0,0.0,0.0,0.0,0.0,0.0,0.0,0.0,0.0,0.0,0.0,0.0,0.0,0.0,0.0,0.0,0.0,0.0,0.0,0.0,0.0,0.0,0.0,0.0,0.0,0.0,0.0,0.0,0.0,0.0,0.0,0.0,0.0,0.0,0.0,0.0,0.0,0.0,0.0,0.0,0.0,0.0,0.0,0.0,0.0,0.0,0.0,0.0,0.0,0.0,0.0,0.0,0.0,0.0,0.0,0.0,0.0,0.0,0.0,0.0,0.0,0.0,0.0,0.0,0.0,0.0,0.0,0.0,0.0,0.0,0.0,0.0,0.0,0.0,0.0,0.0,0.0,0.0,0.0,0.0,0.0,0.0,0.0,0.0,0.0,0.0,0.0,0.0,0.0,0.0,0.0,0.0,0.0,0.0,0.0,0.0,0.0,0.0,0.0,0.0,0.0,0.0,0.0,0.0,0.0,0.0,0.0,0.0,0.0,0.0,0.0,0.0,0.0,0.0,0.0,0.0,0.0,0.0,0.0,0.0,0.0,0.0,0.0,0.0,0.0,0.0,0.0,0.0,0.0,0.0,0.0,0.0,0.0,0.0,0.0,0.0,0.0,0.0,0.0,0.0,0.0,0.0,0.0,0.0,0.0,0.0,0.0,0.0,0.0,0.0,0.0,0.0,0.0,0.0,0.0,0.0,0.0,0.0,0.0,0.0,0.0,0.0,0.0,0.0,0.0,0.0,0.0,0.0,0.0,0.0,0.0,0.0,0.0,0.0,0.0,0.0,0.0,0.0,0.0,0.0,0.0,0.0,0.0,0.0,0.0,0.0,0.0,0.0,0.0,0.0,0.0,0.0,0.0,0.0,0.0,0.0,0.0,0.0,0.0,0.0,0.0,0.0,0.0,0.0,0.0,0.0,0.0,0.0,0.0,0.0,0.0,0.0,0.0,0.0,0.0,0.0,0.0,0.0,0.0,0.0,0.0,0.0,0.0,0.0,0.0,0.0,0.0,0.0,0.0,0.0,0.0,0.0,0.0,0.0,0.0,0.0,0.0,0.0,0.0,0.0,0.0,0.0,0.0,0.0,0.0,0.0,0.0,0.0,0.0,0.0,0.0,0.0,0.0,0.0,0.0,0.0,0.0,0.0,0.0,0.0,0.0,0.0,0.0,0.0,0.0,0.0,0.0,0.0,0.0,0.0,0.0,0.0,0.0,0.0,0.0,0.0,0.0,0.0,0.0,0.0,0.0,0.0,0.0,0.0,0.0,0.0,0.0,0.0,0.0,0.0,0.0,0.0,0.0,0.0,0.0,0.0,0.0,0.0,0.0,0.0,0.0,0.0,0.0,0.0,0.0,0.0,0.0,0.0,0.0,0.0,0.0,0.0,0.0,0.0,0.0,0.0,0.0,0.0,0.0,0.0,0.0,0.0,0.0,0.0,0.0,0.0,0.0,0.0,0.0,0.0,0.0,0.0,0.0,0.0,0.0,0.0,0.0,0.0,0.0,0.0,0.0,0.0,0.0,0.0,0.0,0.0,0.0,0.0,0.0,0.0,0.0,0.0,0.0,0.0,0.0,0.0,0.0,0.0,0.0,0.0,0.0,0.0,0.0,0.0,0.0,0.0,0.0,0.0,0.0,0.0,0.0,0.0,0.0,0.0,0.0,0.0,0.0,0.0,0.0,0.0,0.0,0.0,0.0,0.0,0.0,0.0,0.0,0.0,0.0,0.0,0.0,0.0,0.0,0.0,0.0,0.0,0.0,0.0,0.0,0.0,0.0,0.0,0.0,0.0,0.0,0.0,0.0,0.0,0.0,0.0,0.0,0.0,0.0,0.0,0.0,0.0,0.0,0.0,0.0,0.0,0.0,0.0,0.0,0.0,0.0,0.0,0.0,0.0,0.0,0.0,0.0,0.0,0.0,0.0,0.0,0.0,0.0,0.0,0.0,0.0,0.0,0.0,0.0,0.0,0.0,0.0,0.0,0.0,0.0,0.0,0.0,0.0,0.0,0.0,0.0,0.0,0.0,0.0,0.0,0.0,0.0,0.0,0.0,0.0,0.0,0.0,0.0,0.0,0.0,0.0,0.0,0.0,0.0,0.0,0.0,0.0,0.0,0.0,0.0,0.0,0.0,0.0,0.0,0.0,0.0,0.0,0.0,-0.0591,0.0,0.0,0.0,0.0,0.0,0.0,0.0,0.0,0.0,0.0,0.0,0.0,0.0,0.0,0.0,0.0,0.0,0.0,0.0,0.0,0.0,0.0,0.0,0.0,0.0,0.0,0.0,0.0,0.0,0.0,0.0,0.0,0.0,0.0,0.0,0.0,0.0,0.0,0.0,0.0,0.0,0.0,0.0,0.0,0.0,0.0,0.0,0.0,0.0,0.0,0.0,0.0,0.0,0.0,0.0,0.0,0.0,0.0,0.0,0.0,0.0,0.0,0.0,0.0,0.0,0.0,0.0,0.0,0.0,0.0,0.0,0.0,0.0,0.0,0.0,0.0,0.0,0.0,0.0,0.0,0.0,0.0,0.0,0.0,0.0,0.0,0.0,0.0,0.0,0.0,0.0,0.0,0.0,0.0,0.0,0.0,0.0,0.0,0.0,0.0,0.0,0.0,0.0,0.0,0.0,0.0,0.0,0.0,0.0,0.0,-0.0713,-0.07,-0.0746,-0.0732,-0.066,0.0,0.0,0.0,0.0,0.0,0.0,0.0,0.0,0.0,0.0,0.0,0.0,0.0,0.0,0.0,0.0,0.0,0.0,0.0,0.0,0.0,0.0,0.0,0.0,0.0,0.0,0.0,0.0,0.0,0.0,0.0,0.0,0.0,0.0,0.0,0.0,0.0,0.0,0.0,0.0,0.0,0.0,0.0,0.0,0.0,0.0,0.0,0.0,0.0,0.0,0.0,0.0,0.0,0.0,0.0,0.0,0.0,0.0,0.0,0.0,0.0,0.0,0.0,0.0,0.0,0.0,0.0,0.0,0.0,0.0,0.0,0.0,0.0,0.0,0.0,0.0,0.0,0.0,0.0,0.0,0.0,0.0,0.0,0.0,0.0,0.0,0.0,0.0,0.0,0.0,0.0,0.0,0.0,0.0,0.0,0.0,0.0,0.0,0.0,0.0,0.0,0.0,0.0,0.0,0.0,0.0,0.0,0.0,0.0,0.0,0.0,0.0,-0.0706,-0.0694,-0.0718,0.0,0.0,0.0,0.0,0.0,0.0,0.0,0.0,0.0,0.0,0.0,0.0,0.0,0.0,0.0,0.0,0.0,0.0,0.0,0.0,0.0,0.0,0.0,0.0,0.0,0.0,0.0,0.0,0.0,0.0,0.0,0.0,0.0,0.0,0.0,0.0,0.0,0.0,0.0,0.0,0.0,0.0,0.0,0.0,0.0,0.0,0.0,0.0,0.0,0.0,0.0,0.0,0.0,0.0,0.0,0.0,0.0,0.0,0.0,0.0,0.0,0.0,0.0,0.0,0.0,0.0,0.0,0.0,0.0,0.0,0.0,0.0,0.0,0.0,0.0,0.0,0.0,0.0,0.0,0.0,0.0,0.0,0.0,0.0,0.0,0.0,0.0,0.0,0.0,0.0,0.0,0.0,0.0,0.0,0.0,0.0,0.0,0.0,0.0,0.0,0.0,0.0,0.0,0.0,0.0,0.0,0.0,0.0,0.0,0.0,-0.0454,-0.0454,-0.0454,0.0,-0.0671,0.0,0.0,0.0,0.0,0.0,0.0,0.0,0.0,0.0,0.0,0.0,0.0,0.0,0.0,0.0,0.0,0.0,0.0,0.0,0.0,0.0,0.0,0.0,0.0,0.0,0.0,0.0,0.0,0.0,0.0,0.0,0.0,0.0,0.0,0.0,0.0,0.0,0.0,0.0,0.0,0.0,0.0,0.0,0.0,0.0,0.0,0.0,0.0,0.0,0.0,0.0,0.0,0.0,0.0,0.0,0.0,0.0,0.0,0.0,0.0,0.0,0.0,0.0,0.0,0.0,0.0,0.0,0.0,0.0,0.0,0.0,0.0,0.0,0.0,0.0,0.0,0.0,0.0,0.0,0.0,0.0,0.0,0.0,0.0,0.0,0.0,0.0,0.0,0.0,0.0,0.0,0.0,0.0,0.0,0.0,0.0,0.0,0.0,0.0,0.0,0.0,0.0,0.0,0.0,0.0,0.0,0.0,0.0,0.0,0.0,-0.0161,-0.0161,-0.0158,-0.0307,0.0,0.0,0.0,0.0,0.0,0.0,0.0,0.0,0.0,0.0,0.0,0.0,0.0,0.0,0.0,0.0,0.0,0.0,0.0,0.0,0.0,0.0,0.0,0.0,0.0,0.0,0.0,0.0,0.0,0.0,0.0,0.0,0.0,0.0,0.0,0.0,0.0,0.0,0.0,0.0,0.0,0.0,0.0,0.0,0.0,0.0,0.0,0.0,0.0,0.0,0.0,0.0,0.0,0.0,0.0,0.0,0.0,0.0,0.0,0.0,0.0,0.0,0.0,0.0,0.0,0.0,0.0,0.0,0.0,0.0,0.0,0.0,0.0,0.0,0.0,0.0,0.0,0.0,0.0,0.0,0.0,0.0,0.0,0.0,0.0,0.0,0.0,0.0,0.0,0.0,0.0,0.0,0.0,0.0,0.0,0.0,0.0,0.0,0.0,0.0,0.0,0.0,0.0,0.0,0.0,0.0,0.0,0.0,0.0,0.0,0.0273,0.0222,0.0112,0.0109,-0.0,-0.0303,0.0,0.0,0.0,0.0,0.0,0.0,0.0,0.0,0.0,0.0,0.0,0.0,0.0,0.0,0.0,0.0,0.0,0.0,0.0,0.0,0.0,0.0,0.0,0.0,0.0,0.0,0.0,0.0,0.0,0.0,0.0,0.0,0.0,0.0,0.0,0.0,0.0,0.0,0.0,0.0,0.0,0.0,0.0,0.0,0.0,0.0,0.0,0.0,0.0,0.0,0.0,0.0,0.0,0.0,0.0,0.0,0.0,0.0,0.0,0.0,0.0,0.0,0.0,0.0,0.0,0.0,0.0,0.0,0.0,0.0,0.0,0.0,0.0,0.0,0.0,0.0,0.0,0.0,0.0,0.0,0.0,0.0,0.0,0.0,0.0,0.0,0.0,0.0,0.0,0.0,0.0,0.0,0.0,0.0,0.0,0.0,0.0,0.0,0.0,0.0,0.0,0.0,0.0,0.0,0.0,0.0,0.0,0.0,0.0849,0.0854,0.0706,0.0392,0.0392,0.0271,0.0,0.0,0.0,0.0,0.0,0.0,0.0,0.0,0.0,0.0,0.0,0.0,0.0,0.0,0.0,0.0,0.0,0.0,0.0,0.0,0.0,0.0,0.0,0.0,0.0,0.0,0.0,0.0,0.0,0.0,0.0,0.0,0.0,0.0,0.0,0.0,0.0,0.0,0.0,0.0,0.0,0.0,0.0,0.0,0.0,0.0,0.0,0.0,0.0,0.0,0.0,0.0,0.0,0.0,0.0,0.0,0.0,0.0,0.0,0.0,0.0,0.0,0.0,0.0,0.0,0.0,0.0,0.0,0.0,0.0,0.0,0.0,0.0,0.0,0.0,0.0,0.0,0.0,0.0,0.0,0.0,0.0,0.0,0.0,0.0,0.0,0.0,0.0,0.0,0.0,0.0,0.0,0.0,0.0,0.0,0.0,0.0,0.0,0.0,0.0,0.0,0.0,0.0,0.0,0.0,0.0,0.0,0.0,0.0,0.0617,0.0969,0.1108,0.1009,0.0841,0.0652,0.0,0.0,0.0,0.0,0.0,0.0,0.0,0.0,0.0,0.0,0.0,0.0,0.0,0.0,0.0,0.0,0.0,0.0,0.0,0.0,0.0,0.0,0.0,0.0,0.0,0.0,0.0,0.0,0.0,0.0,0.0,0.0,0.0,0.0,0.0,0.0,0.0,0.0,0.0,0.0,0.0,0.0,0.0,0.0,0.0,0.0,0.0,0.0,0.0,0.0,0.0,0.0,0.0,0.0,0.0,0.0,0.0,0.0,0.0,0.0,0.0,0.0,0.0,0.0,0.0,0.0,0.0,0.0,0.0,0.0,0.0,0.0,0.0,0.0,0.0,0.0,0.0,0.0,0.0,0.0,0.0,0.0,0.0,0.0,0.0,0.0,0.0,0.0,0.0,0.0,0.0,0.0,0.0,0.0,0.0,0.0,0.0,0.0,0.0,0.0,0.0,0.0,0.0,0.0,0.0,0.0,0.0,0.0,0.0,0.0873,0.0,0.1457,0.1457,0.1289,0.1145,0.0,0.0,0.0,0.0,0.0,0.0,0.0,0.0,0.0,0.0,0.0,0.0,0.0,0.0,0.0,0.0,0.0,0.0,0.0,0.0,0.0,0.0,0.0,0.0,0.0,0.0,0.0,0.0,0.0,0.0,0.0,0.0,0.0,0.0,0.0,0.0,0.0,0.0,0.0,0.0,0.0,0.0,0.0,0.0,0.0,0.0,0.0,0.0,0.0,0.0,0.0,0.0,0.0,0.0,0.0,0.0,0.0,0.0,0.0,0.0,0.0,0.0,0.0,0.0,0.0,0.0,0.0,0.0,0.0,0.0,0.0,0.0,0.0,0.0,0.0,0.0,0.0,0.0,0.0,0.0,0.0,0.0,0.0,0.0,0.0,0.0,0.0,0.0,0.0,0.0,0.0,0.0,0.0,0.0,0.0,0.0,0.0,0.0,0.0,0.0,0.0,0.0,0.0,0.0,0.0,0.0,0.0,0.0,0.1487,0.1756,0.1818,0.1797,0.1793,0.1796,0.1711,0.0,0.0,0.0,0.0,0.0,0.0,0.0,0.0,0.0,0.0,0.0,0.0,0.0,0.0,0.0,0.0,0.0,0.0,0.0,0.0,0.0,0.0,0.0,0.0,0.0,0.0,0.0,0.0,0.0,0.0,0.0,0.0,0.0,0.0,0.0,0.0,0.0,0.0,0.0,0.0,0.0,0.0,0.0,0.0,0.0,0.0,0.0,0.0,0.0,0.0,0.0,0.0,0.0,0.0,0.0,0.0,0.0,0.0,0.0,0.0,0.0,0.0,0.0,0.0,0.0,0.0,0.0,0.0,0.0,0.0,0.0,0.0,0.0,0.0,0.0,0.0,0.0,0.0,0.0,0.0,0.0,0.0,0.0,0.0,0.0,0.0,0.0,0.0,0.0,0.0,0.0,0.0,0.0,0.0,0.0,0.0,0.0,0.0,0.0,0.0,0.0,0.0,0.0,0.0,0.0,0.0,0.0,0.0,0.0,0.2206,0.2222,0.2341,0.2625,0.2344,0.2226,0.0,0.0,0.0,0.0,0.0,0.0,0.0,0.0,0.0,0.0,0.0,0.0,0.0,0.0,0.0,0.0,0.0,0.0,0.0,0.0,0.0,0.0,0.0,0.0,0.0,0.0,0.0,0.0,0.0,0.0,0.0,0.0,0.0,0.0,0.0,0.0,0.0,0.0,0.0,0.0,0.0,0.0,0.0,0.0,0.0,0.0,0.0,0.0,0.0,0.0,0.0,0.0,0.0,0.0,0.0,0.0,0.0,0.0,0.0,0.0,0.0,0.0,0.0,0.0,0.0,0.0,0.0,0.0,0.0,0.0,0.0,0.0,0.0,0.0,0.0,0.0,0.0,0.0,0.0,0.0,0.0,0.0,0.0,0.0,0.0,0.0,0.0,0.0,0.0,0.0,0.0,0.0,0.0,0.0,0.0,0.0,0.0,0.0,0.0,0.0,0.0,0.0,0.0,0.0,0.0,0.0,0.0,0.0,0.0,0.3116,0.2988,0.3007,0.325,0.3011,0.2864,0.2858,0.0,0.0,0.0,0.0,0.0,0.0,0.0,0.0,0.0,0.0,0.0,0.0,0.0,0.0,0.0,0.0,0.0,0.0,0.0,0.0,0.0,0.0,0.0,0.0,0.0,0.0,0.0,0.0,0.0,0.0,0.0,0.0,0.0,0.0,0.0,0.0,0.0,0.0,0.0,0.0,0.0,0.0,0.0,0.0,0.0,0.0,0.0,0.0,0.0,0.0,0.0,0.0,0.0,0.0,0.0,0.0,0.0,0.0,0.0,0.0,0.0,0.0,0.0,0.0,0.0,0.0,0.0,0.0,0.0,0.0,0.0,0.0,0.0,0.0,0.0,0.0,0.0,0.0,0.0,0.0,0.0,0.0,0.0,0.0,0.0,0.0,0.0,0.0,0.0,0.0,0.0,0.0,0.0,0.0,0.0,0.0,0.0,0.0,0.0,0.0,0.0,0.0,0.0,0.0,0.0,0.0,0.0,0.0,0.4364,0.402,0.3848,0.3771,0.3756,0.3648,0.0,0.0,0.0,0.0,0.0,0.0,0.0,0.0,0.0,0.0,0.0,0.0,0.0,0.0,0.0,0.0,0.0,0.0,0.0,0.0,0.0,0.0,0.0,0.0,0.0,0.0,0.0,0.0,0.0,0.0,0.0,0.0,0.0,0.0,0.0,0.0,0.0,0.0,0.0,0.0,0.0,0.0,0.0,0.0,0.0,0.0,0.0,0.0,0.0,0.0,0.0,0.0,0.0,0.0,0.0,0.0,0.0,0.0,0.0,0.0,0.0,0.0,0.0,0.0,0.0,0.0,0.0,0.0,0.0,0.0,0.0,0.0,0.0,0.0,0.0,0.0,0.0,0.0,0.0,0.0,0.0,0.0,0.0,0.0,0.0,0.0,0.0,0.0,0.0,0.0,0.0,0.0,0.0,0.0,0.0,0.0,0.0,0.0,0.0,0.0,0.0,0.0,0.0,0.0,0.0,0.0,0.0,0.0,0.0,0.5081,0.5272,0.5047,0.4504,0.4266,0.411,0.0,0.0,0.0,0.0,0.0,0.0,0.0,0.0,0.0,0.0,0.0,0.0,0.0,0.0,0.0,0.0,0.0,0.0,0.0,0.0,0.0,0.0,0.0,0.0,0.0,0.0,0.0,0.0,0.0,0.0,0.0,0.0,0.0,0.0,0.0,0.0,0.0,0.0,0.0,0.0,0.0,0.0,0.0,0.0,0.0,0.0,0.0,0.0,0.0,0.0,0.0,0.0,0.0,0.0,0.0,0.0,0.0,0.0,0.0,0.0,0.0,0.0,0.0,0.0,0.0,0.0,0.0,0.0,0.0,0.0,0.0,0.0,0.0,0.0,0.0,0.0,0.0,0.0,0.0,0.0,0.0,0.0,0.0,0.0,0.0,0.0,0.0,0.0,0.0,0.0,0.0,0.0,0.0,0.0,0.0,0.0,0.0,0.0,0.0,0.0,0.0,0.0,0.0,0.0,0.0,0.0,0.0,0.0,0.5191,0.5713,0.5985,0.5927,0.5534,0.5109,0.4813,0.0,0.0,0.0,0.0,0.0,0.0,0.0,0.0,0.0,0.0,0.0,0.0,0.0,0.0,0.0,0.0,0.0,0.0,0.0,0.0,0.0,0.0,0.0,0.0,0.0,0.0,0.0,0.0,0.0,0.0,0.0,0.0,0.0,0.0,0.0,0.0,0.0,0.0,0.0,0.0,0.0,0.0,0.0,0.0,0.0,0.0,0.0,0.0,0.0,0.0,0.0,0.0,0.0,0.0,0.0,0.0,0.0,0.0,0.0,0.0,0.0,0.0,0.0,0.0,0.0,0.0,0.0,0.0,0.0,0.0,0.0,0.0,0.0,0.0,0.0,0.0,0.0,0.0,0.0,0.0,0.0,0.0,0.0,0.0,0.0,0.0,0.0,0.0,0.0,0.0,0.0,0.0,0.0,0.0,0.0,0.0,0.0,0.0,0.0,0.0,0.0,0.0,0.0,0.0,0.0,0.0,0.0,0.0,0.56,0.613,0.6402,0.6542,0.6529,0.6034,0.5563,0.0,0.0,0.0,0.0,0.0,0.0,0.0,0.0,0.0,0.0,0.0,0.0,0.0,0.0,0.0,0.0,0.0,0.0,0.0,0.0,0.0,0.0,0.0,0.0,0.0,0.0,0.0,0.0,0.0,0.0,0.0,0.0,0.0,0.0,0.0,0.0,0.0,0.0,0.0,0.0,0.0,0.0,0.0,0.0,0.0,0.0,0.0,0.0,0.0,0.0,0.0,0.0,0.0,0.0,0.0,0.0,0.0,0.0,0.0,0.0,0.0,0.0,0.0,0.0,0.0,0.0,0.0,0.0,0.0,0.0,0.0,0.0,0.0,0.0,0.0,0.0,0.0,0.0,0.0,0.0,0.0,0.0,0.0,0.0,0.0,0.0,0.0,0.0,0.0,0.0,0.0,0.0,0.0,0.0,0.0,0.0,0.0,0.0,0.0,0.0,0.0,0.0,0.0,0.0,0.0,0.0,0.0,0.0,0.607,0.6521,0.6989,0.7232,0.7228,0.6433,0.5842,0.0,0.0,0.0,0.0,0.0,0.0,0.0,0.0,0.0,0.0,0.0,0.0,0.0,0.0,0.0,0.0,0.0,0.0,0.0,0.0,0.0,0.0,0.0,0.0,0.0,0.0,0.0,0.0,0.0,0.0,0.0,0.0,0.0,0.0,0.0,0.0,0.0,0.0,0.0,0.0,0.0,0.0,0.0,0.0,0.0,0.0,0.0,0.0,-0.1689,0.0,0.0,0.0,0.0,0.0,0.0,0.0,0.0,0.0,0.0,0.0,0.0,0.0,0.0,0.0,0.0,0.0,0.0,0.0,0.0,0.0,0.0,0.0,0.0,0.0,0.0,0.0,0.0,0.0,0.0,0.0,0.0,0.0,0.0,0.0,0.0,0.0,0.0,0.0,0.0,0.0,0.0,0.0,0.0,0.0,0.0,0.0,0.0,0.0,0.0,0.0,0.0,0.0,0.0,0.0,0.0,0.0,0.0,0.0,0.6447,0.6943,0.736,0.7478,0.7465,0.6929,0.6334,0.0,0.0,0.0,0.0,0.0,0.0,0.0,0.0,0.0,0.0,0.0,0.0,0.0,0.0,0.0,0.0,0.0,0.0,0.0,0.0,0.0,0.0,0.0,0.0,0.0,0.0,0.0,0.0,0.0,0.0,0.0,0.0,0.0,0.0,0.0,0.0,0.0,0.0,0.0,0.0,0.0,0.0,0.0,0.0,0.0,0.0,0.0,0.0,0.0,0.0,0.0,0.0,0.0,0.0,0.0,0.0,0.0,0.0,0.0,0.0,0.0,0.0,0.0,0.0,0.0,0.0,0.0,0.0,0.0,0.0,0.0,0.0,0.0,0.0,0.0,0.0,0.0,0.0,0.0,0.0,0.0,0.0,0.0,0.0,0.0,0.0,0.0,0.0,0.0,0.0,0.0,0.0,0.0,0.0,0.0,0.0,0.0,0.0,0.0,0.0,0.0,0.0,0.0,0.0,0.0,0.0,0.0,0.6183,0.6763,0.7346,0.7519,0.7597,0.7594,0.7299,0.6861,0.6281,0.0,0.0,0.0,0.0,0.0,0.0,0.0,0.0,0.0,0.0,0.0,0.0,0.0,0.0,0.0,0.0,0.0,0.0,0.0,0.0,0.0,0.0,0.0,0.0,0.0,0.0,0.0,0.0,0.0,0.0,0.0,0.0,0.0,0.0,0.0,0.0,0.0,0.0,-0.0906,-0.1037,0.0,0.0,0.0,0.0,0.0,0.0,0.0,0.0,-0.1105,0.0,0.0,0.0,0.0,0.0,0.0,0.0,0.0,0.0,0.0,0.0,0.0,0.0,0.0,0.0,0.0,0.0,0.0,0.0,0.0,0.0,0.0,0.0,0.0,0.0,0.0,0.0,0.0,0.0,0.0,0.0,0.0,0.0,0.0,0.0,0.0,0.0,0.0,0.0,0.0,0.0,0.0,0.0,0.0,0.0,0.0,0.0,0.0,0.0,0.0,0.0,0.0,0.0,0.0,0.0,0.0,0.5915,0.6308,0.6766,0.7356,0.7522,0.7597,0.759,0.7299,0.6865,0.6288,0.0,0.0,0.0,0.0,0.0,0.0,0.0,0.0,0.0,0.0,0.0,0.0,0.0,0.0,0.0,0.0,0.0,0.0,0.0,0.0,0.0,0.0,0.0,0.0,0.0,0.0,0.0,0.0,0.0,0.0,0.0,0.0,0.0,0.0,0.0,0.0,0.0,0.0,0.0,-0.0856,-0.0918,0.0,0.0,0.0,0.0,0.0,0.0,0.0,0.0,-0.1097,0.0,0.0,0.0,0.0,0.0,0.0,0.0,0.0,0.0,0.0,0.0,0.0,0.0,0.0,0.0,0.0,0.0,0.0,0.0,0.0,0.0,0.0,0.0,0.0,0.0,0.0,0.0,0.0,0.0,0.0,0.0,0.0,0.0,0.0,0.0,0.0,0.0,0.0,0.0,0.0,0.0,0.0,0.0,0.0,0.0,0.0,0.0,0.0,0.0,0.0,0.0,0.0,0.0,0.0,0.0,0.6135,0.6441,0.6844,0.735,0.7444,0.7482,0.7475,0.719,0.679,0.0,0.0,0.0,0.0,0.0,0.0,0.0,0.0,0.0,0.0,0.0,0.0,0.0,0.0,0.0,0.0,0.0,0.0,0.0,0.0,0.0,0.0,0.0,0.0,0.0,0.0,0.0,0.0,0.0,0.0,0.0,0.0,0.0,0.0,0.0,0.0,0.0,0.0,0.0,0.0,-0.0852,-0.0894,-0.0926,0.0,0.0,0.0,0.0,0.0,0.0,-0.0945,-0.0979,0.0,0.0,0.0,0.0,0.0,0.0,0.0,0.0,0.0,0.0,0.0,0.0,0.0,0.0,0.0,0.0,0.0,0.0,0.0,0.0,0.0,0.0,0.0,0.0,0.0,0.0,0.0,0.0,0.0,0.0,0.0,0.0,0.0,0.0,0.0,0.0,0.0,0.0,0.0,0.0,0.0,0.0,0.0,0.0,0.0,0.0,0.0,0.0,0.0,0.0,0.0,0.0,0.0,0.0,0.0,0.621,0.6532,0.6902,0.7302,0.7356,0.7356,0.7322,0.7068,0.6705,0.0,0.0,0.0,0.0,0.0,0.0,0.0,0.0,0.0,0.0,0.0,0.0,0.0,0.0,0.0,0.0,0.0,0.0,0.0,0.0,0.0,0.0,0.0,0.0,0.0,0.0,0.0,0.0,0.0,0.0,0.0,0.0,0.0,0.0,0.0,0.0,0.0,0.0,0.0,0.0,0.0,-0.0929,-0.091,-0.0936,0.0,0.0,0.0,0.0,-0.0911,-0.0885,0.0,0.0,0.0,0.0,0.0,0.0,0.0,0.0,0.0,0.0,0.0,0.0,0.0,0.0,0.0,0.0,0.0,0.0,0.0,0.0,0.0,0.0,0.0,0.0,0.0,0.0,0.0,0.0,0.0,0.0,0.0,0.0,0.0,0.0,0.0,0.0,0.0,0.0,0.0,0.0,0.0,0.0,0.0,0.0,0.0,0.0,0.0,0.0,0.0,0.0,0.0,0.0,0.0,0.0,0.0,0.0,0.6064,0.6481,0.6851,0.7156,0.7302,0.7309,0.717,0.701,0.6654,0.0,0.0,0.0,0.0,0.0,0.0,0.0,0.0,0.0,0.0,0.0,0.0,0.0,0.0,0.0,0.0,0.0,0.0,0.0,0.0,0.0,0.0,0.0,0.0,0.0,0.0,0.0,0.0,0.0,0.0,0.0,0.0,0.0,0.0,0.0,0.0,0.0,0.0,0.0,0.0,0.0,-0.0913,-0.097,-0.0981,-0.0983,0.0,0.0,-0.0972,-0.0942,-0.0876,0.0,0.0,0.0,0.0,0.0,0.0,0.0,0.0,0.0,0.0,0.0,0.0,0.0,0.0,0.0,0.0,0.0,0.0,0.0,0.0,0.0,0.0,0.0,0.0,0.0,0.0,0.0,0.0,0.0,0.0,0.0,0.0,0.0,0.0,0.0,0.0,0.0,0.0,0.0,0.0,0.0,0.0,0.0,0.0,0.0,0.0,0.0,0.0,0.0,0.0,0.0,0.0,0.0,0.0,0.0,0.5878,0.604,0.6471,0.6803,0.7014,0.7085,0.7088,0.7021,0.6715,0.6465,0.0,0.0,0.0,0.0,0.0,0.0,0.0,0.0,0.0,0.0,0.0,0.0,0.0,0.0,0.0,0.0,0.0,0.0,0.0,0.0,0.0,0.0,0.0,0.0,0.0,0.0,0.0,0.0,0.0,0.0,0.0,0.0,0.0,0.0,0.0,0.0,0.0,0.0,0.0,0.0,0.0,0.0,-0.0982,-0.1003,0.0,0.0,0.0,-0.0946,-0.0934,0.0,0.0,0.0,0.0,0.0,0.0,0.0,0.0,0.0,0.0,0.0,0.0,0.0,0.0,0.0,0.0,0.0,0.0,0.0,0.0,0.0,0.0,0.0,0.0,0.0,0.0,0.0,0.0,0.0,0.0,0.0,0.0,0.0,0.0,0.0,0.0,0.0,0.0,0.0,0.0,0.0,0.0,0.0,0.0,0.0,0.0,0.0,0.0,0.0,0.0,0.0,0.0,0.0,0.0,0.0,0.0,0.0,0.5979,0.6496,0.6802,0.6946,0.6956,0.7041,0.7034,0.6635,0.0,0.0,0.0,0.0,0.0,0.0,0.0,0.0,0.0,0.0,0.0,0.0,0.0,0.0,0.0,0.0,0.0,0.0,0.0,0.0,0.0,0.0,0.0,0.0,0.0,0.0,0.0,0.0,0.0,0.0,0.0,0.0,0.0,0.0,0.0,0.0,0.0,0.0,0.0,0.0,0.0,0.0,-0.0976,-0.1006,-0.103,-0.1044,0.0,0.0,-0.1043,-0.1035,-0.0995,-0.0963,0.0,0.0,0.0,0.0,0.0,0.0,0.0,0.0,0.0,0.0,0.0,0.0,0.0,0.0,0.0,0.0,0.0,0.0,0.0,0.0,0.0,0.0,0.0,0.0,0.0,0.0,0.0,0.0,0.0,0.0,0.0,0.0,0.0,0.0,0.0,0.0,0.0,0.0,0.0,0.0,0.0,0.0,0.0,0.0,0.0,0.0,0.0,0.0,0.0,0.0,0.0,0.0,0.0,0.0,0.0,0.5833,0.6419,0.6894,0.7116,0.7213,0.73,0.7379,0.6976,0.6648,0.0,0.0,0.0,0.0,0.0,0.0,0.0,0.0,0.0,0.0,0.0,0.0,0.0,0.0,0.0,0.0,0.0,0.0,0.0,0.0,0.0,0.0,0.0,0.0,0.0,0.0,0.0,0.0,0.0,0.0,0.0,0.0,0.0,0.0,0.0,0.0,0.0,0.0,0.0,0.0,0.0,-0.1037,-0.1065,-0.1072,-0.1074,0.0,-0.1076,-0.1066,-0.1103,-0.1095,-0.1081,-0.099,0.0,0.0,0.0,0.0,0.0,0.0,0.0,0.0,0.0,0.0,0.0,0.0,0.0,0.0,0.0,0.0,0.0,0.0,0.0,0.0,0.0,0.0,0.0,0.0,0.0,0.0,0.0,0.0,0.0,0.0,0.0,0.0,0.0,0.0,0.0,0.0,0.0,0.0,0.0,0.0,0.0,0.0,0.0,0.0,0.0,0.0,0.0,0.0,0.0,0.0,0.0,0.0,0.0,0.6237,0.6165,0.671,0.6987,0.7123,0.713,0.7211,0.7207,0.6794,0.658,0.0,0.0,0.0,0.0,0.0,0.0,0.0,0.0,0.0,0.0,0.0,0.0,0.0,0.0,0.0,0.0,0.0,0.0,0.0,0.0,0.0,0.0,0.0,0.0,0.0,0.0,0.0,0.0,0.0051,-0.037,-0.0548,0.0,0.0,0.0,0.0,0.0,0.0,0.0,0.0,0.0,0.0,-0.1044,-0.1072,-0.1076,0.0,0.0,-0.0877,-0.0739,-0.0731,-0.0718,-0.0836,-0.1018,-0.0991,0.0,0.0,0.0,0.0,0.0,0.0,0.0,0.0,0.0,0.0,0.0,0.0,0.0,0.0,0.0,0.0,0.0,0.0,0.0,0.0,0.0,0.0,0.0,0.0,0.0,0.0,0.0,0.0,0.0,0.0,0.0,0.0,0.0,0.0,0.0,0.0,0.0,0.0,0.0,0.0,0.0,0.0,0.0,0.0,0.0,0.0,0.0,0.0,0.0,0.0,0.0,0.0,0.6662,0.6523,0.7042,0.73,0.7433,0.7383,0.7458,0.7493,0.7005,0.6805,0.0,0.0,0.0,0.0,0.0,0.0,0.0,0.0,0.0,0.0,0.0,0.0,0.0,0.0,0.0,0.0,0.0,0.0,0.0,0.0,0.0,0.0,0.0,0.0,0.0,0.0,0.0,0.0,0.0426,0.0055,-0.0168,0.0,0.0,0.0,0.0,0.0,0.0,0.0,0.0,0.0,0.0,-0.1053,-0.1074,-0.101,-0.0876,-0.0809,-0.054,-0.0337,-0.0202,-0.0199,-0.0327,-0.072,0.0,0.0,0.0,0.0,0.0,0.0,0.0,0.0,0.0,0.0,0.0,0.0,0.0,0.0,0.0,0.0,0.0,0.0,0.0,0.0,0.0,0.0,0.0,0.0,0.0,0.0,0.0,0.0,0.0,0.0,0.5293,0.0,0.0,0.0,0.0,0.0,0.0,0.0,0.0,0.0,0.0,0.0,0.0,0.0,0.0,0.0,0.0,0.0,0.0,0.0,0.0,0.0,0.0,0.7313,0.6952,0.7534,0.788,0.8053,0.8048,0.8198,0.8357,0.7751,0.7455,0.7513,0.0,0.0,0.0,0.0,0.0,0.0,0.0,0.0,0.0,0.0,0.0,0.0,0.0,0.0,0.0,0.0,0.0,0.0,0.0,0.0,0.0,0.0,0.0,0.0,0.0,0.0,0.0949,0.0616,0.0392,0.0,0.0,0.0,0.0,0.0,0.0,0.0,0.0,0.0,0.0,-0.1058,-0.1076,-0.1078,-0.074,-0.0403,-0.0067,-0.0,0.0135,0.0472,0.0471,0.0337,0.0,0.0,0.0,0.0,0.0,0.0,0.0,0.0,0.0,0.0,0.0,0.0,0.0,0.0,0.0,0.0,0.0,0.0,0.0,0.0,0.0,0.0,0.0,0.0,0.0,0.0,0.0,0.6248,0.6316,0.0,0.0,0.0,0.0,0.0,0.0,0.0,0.0,0.0,0.0,0.0,0.7638,0.7779,0.0,0.0,0.0,0.0,0.0,0.0,0.0,0.0,0.0,0.0,0.0,0.0,0.787,0.7934,0.8262,0.843,0.8494,0.8512,0.8507,0.8567,0.8116,0.7743,0.7544,0.0,0.0,0.0,0.0,0.0,0.0,0.0,0.0,0.0,0.0,0.0,0.0,0.0,0.0,0.0,0.0,0.0,0.0,0.0,0.0,0.0,0.0,0.0,0.0,0.0,0.1493,0.0,0.0,0.0,0.0,0.0,0.0,0.0,0.0,0.0,0.0,0.0,-0.1042,-0.1061,-0.1072,-0.1078,-0.1078,-0.0539,-0.0135,0.0,0.0,0.0,0.0,0.0,0.0,0.0,0.0,0.0,0.0,0.0,0.0,0.0,0.0,-0.1197,-0.1498,-0.1615,-0.1782,-0.1861,0.0,0.0,0.0,0.0,0.0,0.0,0.0,0.0,0.0,0.0,0.0,0.0,0.0,0.0,0.7423,0.0,0.7279,0.0,0.0,0.0,0.0,0.0,0.0,0.0,0.0,0.8529,0.8524,0.8646,0.8799,0.887,0.0,0.9254,0.8921,0.0,0.0,0.0,0.0,0.0,0.0,0.0,0.0,0.862,0.8621,0.8825,0.8932,0.8932,0.8932,0.8937,0.8922,0.852,0.8093,0.7671,0.7466,0.7335,0.0,0.0,0.0,0.0,0.0,0.0,0.0,0.0,0.0,0.0,0.0,0.0,0.0,0.0,0.0,0.0,0.0,0.0,0.0,0.0,0.0,0.0,0.0,0.1837,0.0,0.0,0.0,0.0,0.0,0.0,0.0,0.0,0.0,0.0,-0.0456,-0.0792,-0.0875,-0.0742,-0.0742,-0.0742,0.0,0.0,0.0,0.0,0.0,0.0,0.0,0.1278,0.1212,0.0943,0.0607,0.0269,-0.0066,-0.0262,-0.0328,0.0,0.0,-0.1364,-0.1542,-0.1715,-0.18,-0.1853,-0.1902,-0.1865,-0.1858,-0.1858,0.0,0.0,0.0,0.0,0.0,0.0,0.0,0.0,0.8679,0.853,0.0,0.8389,0.0,0.0,0.0,0.0,0.0,0.8985,0.0,0.0,0.9652,0.9876,1.0014,1.0029,1.0029,1.0116,1.0274,1.038,1.0272,0.9683,0.0,0.0,0.0,0.0,0.0,0.0,0.9437,0.9092,0.9231,0.9337,0.9337,0.9337,0.9322,0.9286,0.8877,0.8511,0.8012,0.7792,0.7661,0.7526,0.7073,0.0,0.0,0.0,0.0,0.0,0.0,0.0,0.0,0.0,0.0,0.0,0.0,0.0,0.0,0.0,0.0,0.0,0.0,0.0,0.0,0.247,0.0,0.0,0.0,0.0,0.0,0.0,0.0,0.0,0.0,0.0,0.0518,-0.0,-0.0337,-0.0337,0.0,0.0,0.0,0.0,0.0941,0.1344,0.1547,0.1614,0.1614,0.1614,0.1614,0.1412,0.0,0.0,0.0607,0.0269,0.0,-0.0,-0.0605,-0.1127,-0.1191,-0.1428,-0.1671,-0.1728,-0.1851,-0.1973,-0.2032,-0.1959,-0.1963,1.2678,0.0,0.0,0.0,0.0,1.0418,1.0305,1.034,1.0016,0.9849,0.9866,0.9648,0.0,0.0,0.0,0.0,0.0,0.0,1.0069,1.0355,1.0341,1.0501,1.0702,1.0876,1.1133,1.1457,1.1565,1.161,1.1606,1.1307,1.0824,0.9979,0.0,0.0,0.0,0.0,1.0109,1.0368,1.0308,1.0258,1.0247,1.0103,0.9792,0.9283,0.9004,0.8648,0.8187,0.7852,0.7666,0.7526,0.7138,0.0,0.0,0.0,0.0,0.0,0.0,0.0,0.0,0.0,0.0,0.0,0.0,0.0,0.0,0.0,0.0,0.0,0.0,0.0,0.2995,0.2797,0.2586,0.0,0.0,0.0,0.0,0.0,0.0,0.0,0.0,0.0,0.1263,0.0937,0.0539,0.0,0.0,0.1481,0.1211,0.1346,0.1547,0.1681,0.1748,0.0,0.1816,0.1951,0.2018,0.1951,0.1614,0.1211,0.0942,0.0807,0.0605,0.0067,-0.0337,-0.0737,-0.1059,-0.1314,-0.1498,-0.1664,-0.1781,-0.1894,-0.1982,-0.2033,-0.2034,1.4694,1.3525,1.2691,1.2279,1.215,1.1805,1.154,1.1405,1.1225,1.1013,1.0881,1.0707,1.0609,1.0667,1.0653,0.0,0.0,0.0,1.1077,1.1445,1.1537,1.1558,1.1738,1.1844,1.2089,1.2409,1.2361,1.2394,1.2499,1.231,1.1829,1.1212,0.0,0.0,1.0744,1.075,1.0906,1.1044,1.0903,1.0892,1.0886,1.0645,1.0176,0.9454,0.9287,0.8927,0.8457,0.8112,0.7857,0.7722,0.7335,0.7073,0.0,0.0,0.0,0.0,0.0,0.0,0.0,0.0,0.0,0.0,0.0,0.4628,0.4428,0.0,0.0,0.0,0.3828,0.3533,0.3083,0.2946,0.0,0.0,0.0,0.0,0.0,0.0,0.0,0.2358,0.2129,0.2016,0.1951,0.1681,0.1346,0.0942,0.1481,0.1884,0.1748,0.0,0.1951,0.1951,0.2085,0.2218,0.222,0.2287,0.2354,0.2288,0.1951,0.1614,0.1344,0.121,0.0874,0.0337,-0.0202,-0.0607,-0.1012,-0.1145,-0.1338,-0.1579,-0.177,-0.1889,-0.205,-0.2044,-0.2109,1.6066,1.5511,1.4539,1.3791,1.3237,1.3136,1.2864,1.2215,1.222,1.2078,1.1836,1.1615,1.1589,1.1715,1.175,0.0,1.1824,1.1861,1.2154,1.2572,1.2706,1.282,1.2837,1.2843,1.2843,1.294,1.2843,1.302,1.3247,1.2786,1.2617,1.2753,1.2105,1.1751,1.1605,1.1686,1.1623,1.1393,1.1393,1.1307,1.1307,1.105,1.0576,0.9873,0.9665,0.928,0.882,0.8447,0.8172,0.7982,0.7722,0.7391,0.7199,0.0,0.0,0.0,0.0,0.0,0.0,0.0,0.0,0.0,0.0,0.0,0.0,0.0,0.0,0.0,0.3763,0.0,0.3228,0.3159,0.0,0.0,0.0,0.2753,0.2753,0.2686,0.2753,0.2753,0.0,0.0,0.2423,0.2288,0.2085,0.1614,0.1614,0.1748,0.1816,0.2085,0.2221,0.222,0.2487,0.2686,0.2686,0.2753,0.2755,0.2557,0.2356,0.2153,0.1748,0.1344,0.1009,0.0539,-0.0067,-0.0607,-0.1012,-0.1077,-0.121,-0.1545,-0.1746,-0.1949,-0.2144,-0.2211,-0.2209,1.6718,1.6398,1.6139,1.5356,1.4319,1.3908,1.3607,1.3412,1.3222,1.2982,1.2742,1.2518,1.24,1.2229,1.2265,1.2327,1.2513,1.2276,1.2495,1.3067,1.3136,1.3268,1.3357,1.3357,1.3458,1.3648,1.3648,1.3643,1.3722,1.3591,1.3429,1.332,1.2715,1.2266,1.187,1.2018,1.2041,1.2052,1.1893,1.1728,1.1634,1.1135,1.0735,1.0433,0.9982,0.9353,0.862,0.8461,0.8371,0.8172,0.7852,0.7596,0.7396,0.7134,0.0,0.0,0.0,0.0,0.0,0.0,0.0,0.0,0.0,0.4761,0.4625,0.0,0.43,0.0,0.403,0.3761,0.3491,0.3426,0.0,0.0,0.3092,0.3092,0.3092,0.2956,0.2956,0.2956,0.282,0.2619,0.2487,0.2554,0.2621,0.2755,0.2555,0.2423,0.2288,0.242,0.2554,0.2621,0.2688,0.2753,0.3023,0.3357,0.3424,0.3295,0.3094,0.2758,0.2288,0.1748,0.1143,0.0605,-0.0,-0.054,-0.1012,-0.1077,-0.1143,-0.1412,-0.1547,-0.1816,-0.2153,-0.2221,-0.2221,1.7219,1.6875,1.6875,1.6354,1.5594,1.5047,1.4554,1.4247,1.4051,1.3907,1.3663,1.353,1.3417,1.3262,1.3352,1.3486,1.3478,1.3259,1.3371,1.3696,1.3696,1.3778,1.3823,1.3823,1.3919,1.4022,1.4118,1.4034,1.4081,1.3966,1.3827,1.3688,1.3368,1.3022,1.2656,1.2723,1.2802,1.2843,1.2564,1.2307,1.1981,1.1594,1.1206,1.0818,1.0254,0.9651,0.9047,0.8821,0.8571,0.8376,0.8182,0.7927,0.7596,0.7396,0.7199,0.0,0.0,0.0,0.0,0.0,0.0,0.0,0.0,0.0,0.0,0.0,0.43,0.4167,0.4097,0.3894,0.3623,0.3627,0.356,0.3424,0.3424,0.3493,0.3493,0.3426,0.3357,0.3357,0.3288,0.3153,0.3088,0.3088,0.3155,0.3426,0.3295,0.3096,0.2825,0.2893,0.3025,0.3025,0.3155,0.3222,0.3424,0.3558,0.3627,0.3498,0.3228,0.2822,0.2423,0.2018,0.1547,0.0875,0.0135,-0.0607,-0.1012,-0.1077,-0.1143,-0.1344,-0.1547,-0.1748,-0.2085,-0.2221,-0.2221,1.7605,1.7195,1.7153,1.6996,1.673,1.6279,1.5561,1.4878,1.4767,1.4607,1.4333,1.4333,1.4316,1.4384,1.4593,1.4571,1.4366,1.4348,1.4416,1.4407,1.437,1.4352,1.4346,1.431,1.4298,1.4298,1.4298,1.4298,1.4292,1.4063,1.3954,1.3948,1.3927,1.3811,1.3616,1.3616,1.3586,1.3513,1.3254,1.2898,1.2427,1.2125,1.1733,1.122,1.0533,1.0059,0.9738,0.9307,0.8894,0.8576,0.8517,0.8317,0.7797,0.7657,0.7396,0.0,0.6544,0.0,0.0,0.0,0.0,0.0,0.0,0.0,0.0,0.4498,0.4233,0.403,0.403,0.3961,0.3692,0.3758,0.3758,0.3692,0.3758,0.3825,0.3825,0.3825,0.3825,0.3825,0.3825,0.3825,0.3758,0.3692,0.3692,0.3894,0.3959,0.3825,0.3493,0.3496,0.3496,0.3565,0.3694,0.3758,0.3758,0.3629,0.3565,0.3431,0.3092,0.2621,0.2288,0.2221,0.1952,0.1213,0.0269,-0.054,-0.1012,-0.1077,-0.1143,-0.1277,-0.1479,-0.1748,-0.2085,-0.2221,-0.2221,1.7817,1.7708,1.7497,1.7261,1.7014,1.6966,1.6416,1.5608,1.5384,1.5018,1.4607,1.4601,1.4591,1.4599,1.4689,1.4767,1.4927,1.4809,1.4785,1.4944,1.4739,1.4642,1.4624,1.4401,1.4298,1.4298,1.4298,1.4298,1.4298,1.425,1.422,1.422,1.4177,1.4153,1.4153,0.0,0.0,0.0,1.3254,1.3073,1.2958,1.2487,1.2089,1.1763,1.1039,0.0,1.0059,0.9526,0.9081,0.877,0.877,0.0,0.0,0.0,0.0,0.0,0.0,0.0,0.0,0.0,0.0,0.0,0.503,0.4761,0.4764,0.4498,0.4303,0.4233,0.4233,0.4233,0.4167,0.403,0.403,0.4164,0.3961,0.3825,0.3825,0.3825,0.3825,0.3825,0.3825,0.3825,0.3892,0.3894,0.403,0.4436,0.45,0.4495,0.4359,0.3959,0.3758,0.3758,0.3894,0.3894,0.3825,0.3828,0.3694,0.3362,0.3226,0.2824,0.2356,0.2154,0.1951,0.1211,0.0471,-0.0337,-0.0944,-0.1077,-0.1143,-0.1143,-0.1412,-0.1748,-0.2085,-0.2221,-0.2221,1.8118,1.7865,1.7732,1.7527,0.0,1.7286,1.6948,1.6458,1.6216,1.5828,1.5458,1.5329,1.5311,1.5285,1.5279,1.5317,1.5306,1.5185,1.5119,1.5101,1.4974,1.4914,1.4908,1.4763,1.463,1.4509,1.4503,1.4437,1.4304,1.4298,1.4298,1.4298,1.4298,1.4298,1.4298,1.4298,1.4105,1.3713,1.3453,1.3254,1.3109,1.2596,1.2186,1.1914,1.1141,0.0,0.0,0.0,0.0,0.0,0.0,0.0,0.0,0.8112,0.0,0.7396,0.6937,0.6544,0.6152,0.5818,0.555,0.5488,0.516,0.4827,0.4564,0.4434,0.4303,0.4303,0.4303,0.4303,0.4303,0.4167,0.4167,0.43,0.4167,0.403,0.403,0.403,0.403,0.403,0.403,0.4097,0.4225,0.4225,0.4361,0.47,0.4767,0.4694,0.4628,0.4359,0.4159,0.403,0.3961,0.3961,0.3894,0.3694,0.356,0.3228,0.2891,0.2555,0.2153,0.1951,0.1681,0.0942,0.0202,-0.0472,-0.0944,-0.1077,-0.1076,-0.1143,-0.1277,-0.1614,-0.2085,-0.2221,-0.2221,1.842,1.801,1.7913,1.7744,1.7551,1.7503,1.7358,1.7141,0.0,0.0,0.0,1.6127,1.6006,1.5964,1.5958,1.5813,1.5572,1.5565,1.5457,1.5246,1.5197,1.5179,1.5173,1.5131,1.4992,1.4787,1.4739,1.46,1.4377,1.4328,1.4298,1.4298,1.4298,1.4298,1.4298,1.4298,1.4189,1.3972,1.367,1.3417,1.3188,1.2656,1.2234,1.1932,1.1238,1.0719,1.0405,0.9826,0.9479,0.9338,0.9104,0.8829,0.8517,0.8182,0.7852,0.7526,0.7134,0.6741,0.642,0.6017,0.5683,0.555,0.5286,0.4891,0.4364,0.4364,0.4367,0.43,0.4303,0.4303,0.4303,0.4303,0.4303,0.4303,0.4303,0.43,0.4367,0.4367,0.4367,0.4367,0.4367,0.4431,0.4558,0.4625,0.4691,0.4827,0.4897,0.4761,0.4628,0.4561,0.4428,0.4231,0.4097,0.3961,0.3828,0.3493,0.3159,0.296,0.2555,0.2153,0.1884,0.1681,0.1346,0.0808,0.0,-0.0607,-0.1012,-0.1077,-0.1076,-0.1076,-0.1277,-0.1479,-0.1951,-0.2153,-0.2221,1.8638,1.8535,1.8064,1.7853,1.7799,1.7581,1.7467,1.7388,1.6911,1.6676,1.664,1.661,1.6453,1.6229,1.6223,1.6079,1.5837,1.5831,1.5813,1.5765,1.5547,1.5445,1.5433,1.5215,1.5089,1.5034,1.4829,1.4696,1.4636,1.4419,1.4298,1.4304,1.4298,1.4298,1.4298,1.4298,1.428,1.4238,1.3761,1.3495,1.3453,1.2928,1.2415,1.1938,1.1594,1.1178,1.0677,1.0089,0.9681,0.9397,0.9131,0.8829,0.8511,0.8312,0.8047,0.7731,0.7456,0.7134,0.6482,0.635,0.602,0.5495,0.5223,0.4954,0.4625,0.4558,0.4495,0.43,0.43,0.4303,0.4303,0.43,0.43,0.43,0.4303,0.4367,0.4561,0.4561,0.4561,0.4697,0.4697,0.4697,0.4761,0.4761,0.4827,0.5024,0.5027,0.4957,0.4761,0.4498,0.43,0.4097,0.403,0.3828,0.3426,0.3293,0.296,0.2423,0.2287,0.1951,0.1547,0.1547,0.1413,0.1078,0.0135,-0.0607,-0.1012,-0.1077,-0.1076,-0.1076,-0.1344,-0.1614,-0.1748,-0.2018,-0.2221,1.8813,1.8662,1.8414,1.8143,1.7853,1.7599,1.7485,1.7461,1.7231,1.7038,1.6899,1.6767,1.6628,1.6501,1.6356,1.6223,1.6097,1.5952,1.5885,1.5879,1.5765,1.571,1.5698,1.5584,1.5463,1.5312,1.5203,1.5071,1.492,1.4654,1.4527,1.4515,1.4377,1.4298,1.4298,1.4298,1.4298,1.4286,1.3779,1.3513,1.3507,1.2982,1.2451,1.1932,1.1673,1.1274,1.0737,1.0281,1.0009,0.9736,0.942,0.9091,0.8827,0.844,0.8172,0.7982,0.7657,0.7396,0.7003,0.6613,0.6152,0.5554,0.5422,0.5219,0.4891,0.4761,0.4694,0.4564,0.4564,0.4498,0.4361,0.4428,0.4567,0.4567,0.4567,0.4631,0.4694,0.4691,0.4761,0.4761,0.4761,0.4831,0.4957,0.4957,0.5024,0.5223,0.5093,0.4831,0.4564,0.4298,0.4097,0.403,0.3761,0.3493,0.3226,0.2891,0.2557,0.2221,0.1951,0.1681,0.1412,0.1413,0.1078,0.0607,-0.0067,-0.0607,-0.1012,-0.1077,-0.1076,-0.1143,-0.1277,-0.1479,-0.1816,-0.2085,-0.2154,1.8957,1.877,1.8704,1.8372,1.7865,1.7654,1.7539,1.7485,1.7479,1.737,1.7165,1.6966,1.6845,1.6767,1.6573,1.6447,1.6344,1.6097,1.5982,1.597,1.5916,1.5885,1.5885,1.5885,1.5783,1.5596,1.5529,1.539,1.5185,1.4932,1.4769,1.4696,1.4437,1.4298,1.4298,1.4298,1.4298,1.4274,1.3839,1.358,1.3501,1.3043,1.2548,1.2041,1.1817,1.1378,1.0863,1.0569,1.0266,0.9997,0.9616,0.9316,0.9052,0.8612,0.8289,0.8182,0.7847,0.7587,0.7461,0.6806,0.6218,0.5815,0.5686,0.555,0.5219,0.5093,0.4894,0.4827,0.4761,0.4694,0.4489,0.4628,0.4827,0.4897,0.4831,0.4831,0.4894,0.4827,0.4897,0.4897,0.4897,0.5027,0.5156,0.5156,0.5223,0.5226,0.5027,0.4631,0.4367,0.403,0.3828,0.3761,0.3493,0.3161,0.3025,0.2557,0.2221,0.2085,0.1681,0.148,0.1279,0.1078,0.0539,-0.0067,-0.0472,-0.0742,-0.1012,-0.1144,-0.1143,-0.1143,-0.1344,-0.1614,-0.2085,-0.2154,-0.2221,1.906,1.9,1.8782,1.8372,1.7901,1.7841,1.769,1.7497,1.7485,1.7473,1.7424,1.7418,1.7261,1.7074,1.702,1.6875,1.6646,1.6368,1.6241,1.6205,1.6,1.5885,1.5885,1.5885,1.5879,1.5813,1.562,1.5505,1.5451,1.5197,1.495,1.4708,1.4431,1.4304,1.4298,1.4298,1.4298,1.4292,1.402,1.3755,1.3513,1.323,1.2831,1.2294,1.2252,1.1912,1.1153,1.0889,1.0489,0.998,0.9673,0.93,0.8967,0.8845,0.866,0.8262,0.8172,0.7972,0.7521,0.6811,0.642,0.6284,0.602,0.5756,0.5554,0.555,0.5286,0.496,0.4827,0.4827,0.4761,0.4827,0.4967,0.5239,0.5033,0.4897,0.5024,0.5087,0.5156,0.5292,0.5296,0.5359,0.5359,0.5359,0.5292,0.5156,0.4827,0.4498,0.4233,0.3696,0.3293,0.3293,0.3226,0.2893,0.2488,0.2287,0.1951,0.1614,0.1479,0.1278,0.101,0.0472,-0.0135,-0.0607,-0.0945,-0.1012,-0.1078,-0.1212,-0.121,-0.1277,-0.1547,-0.1951,-0.2153,-0.2221,-0.2221,1.9072,1.906,1.8963,1.8607,1.8131,1.7811,1.7589,1.7491,1.7485,1.7485,1.7485,1.7485,1.7418,1.731,1.7165,1.7032,1.6917,1.6652,1.6435,1.6284,1.6169,1.6042,1.5897,1.5885,1.5885,1.5885,1.5777,1.5728,1.5686,1.5469,1.5131,1.4751,1.4594,1.4461,1.4316,1.4298,1.4298,1.4292,1.4195,1.4008,1.3731,1.3338,1.2853,1.2409,1.223,1.1817,1.1226,1.0962,1.0707,1.0284,0.9929,0.9603,0.9292,0.9086,0.8818,0.8583,0.8249,0.7912,0.7526,0.7134,0.6749,0.642,0.6288,0.6086,0.5822,0.5752,0.562,0.5355,0.5226,0.5163,0.5163,0.5163,0.5229,0.5365,0.5229,0.5163,0.5292,0.5289,0.5292,0.5362,0.5428,0.5428,0.5362,0.5292,0.516,0.496,0.4631,0.4298,0.3899,0.3429,0.3092,0.269,0.2622,0.249,0.2221,0.1884,0.1681,0.148,0.1279,0.1146,0.0472,-0.0135,-0.0742,-0.108,-0.1079,-0.1146,-0.1212,-0.1278,-0.1344,-0.1479,-0.1748,-0.2153,-0.2221,-0.2221,-0.2221,1.895,1.895,1.9078,1.8819,1.8384,1.7839,1.7577,1.7587,1.7515,1.7485,1.7485,1.7485,1.7485,1.7455,1.728,1.7201,1.7165,1.6923,1.67,1.6507,1.6435,1.6254,1.6018,1.6,1.5958,1.5897,1.5885,1.5885,1.5855,1.5626,1.53,1.4962,1.4793,1.4618,1.4425,1.4346,1.4298,1.4298,1.4298,1.4201,1.3978,1.3477,1.2992,1.2585,1.2207,1.1796,1.1229,1.1129,1.0892,1.0523,1.0181,0.986,0.9645,0.9244,0.9075,0.8861,0.8306,0.7917,0.7657,0.7396,0.7068,0.6679,0.6548,0.6354,0.6086,0.602,0.5885,0.5617,0.5484,0.5425,0.5428,0.5428,0.5428,0.5428,0.5428,0.5428,0.5428,0.5428,0.5428,0.5428,0.5428,0.5359,0.5292,0.5223,0.5024,0.4697,0.4364,0.4033,0.3496,0.3161,0.2757,0.2356,0.2153,0.1951,0.1951,0.1681,0.1412,0.1211,0.1078,0.0472,-0.0135,-0.0809,-0.1146,-0.1212,-0.1146,-0.1213,-0.1346,-0.1412,-0.1547,-0.1816,-0.2085,-0.222,-0.2288,-0.2288,-0.2287,1.8577,1.8699,1.8944,1.8909,1.8638,1.8107,1.7967,1.7817,1.7587,1.7485,1.7485,1.7485,1.7485,1.7479,1.7449,1.7461,1.7424,1.7189,1.705,1.699,1.6785,1.6531,1.6272,1.626,1.6133,1.5934,1.5891,1.5885,1.5867,1.5638,1.5493,1.5427,1.4992,1.4721,1.4642,1.4437,1.4298,1.4298,1.4298,1.4286,1.4244,1.3714,1.325,1.2821,1.2463,1.2025,1.1361,1.1288,1.0996,1.0309,1.0256,1.0046,0.9642,0.955,0.9324,0.891,0.8311,0.7992,0.7922,0.7526,0.7204,0.7138,0.6806,0.6613,0.635,0.628,0.6013,0.5617,0.5617,0.5554,0.5428,0.5428,0.5428,0.5428,0.5428,0.5428,0.5428,0.5428,0.5428,0.5428,0.5362,0.5292,0.5153,0.5087,0.4827,0.4431,0.403,0.3627,0.3226,0.269,0.2423,0.2221,0.1884,0.1479,0.1412,0.1211,0.1144,0.101,0.0472,-0.0135,-0.0674,-0.1146,-0.1212,-0.1278,-0.1278,-0.1412,-0.1547,-0.1748,-0.1951,-0.2153,-0.222,-0.2287,-0.2421,-0.2423,-0.2423,1.8437,1.8577,1.8974,1.8945,1.8662,1.8261,1.7997,1.7853,1.7599,1.7485,1.7485,1.7485,1.7485,1.7485,1.7485,1.7485,1.7473,1.7382,1.7255,1.7098,1.699,1.6809,1.6549,1.6374,1.6241,1.6133,1.597,1.5885,1.5879,1.5789,1.5662,1.5505,1.5318,1.5065,1.4763,1.4618,1.4485,1.4316,1.4298,1.4298,1.4298,1.373,1.3325,1.3084,1.2479,1.1893,1.1315,1.1153,1.0919,1.0525,1.0374,1.0143,0.9836,0.9658,0.9367,0.8926,0.8436,0.8134,0.7947,0.7591,0.733,0.7204,0.6942,0.6745,0.6609,0.6416,0.6214,0.6013,0.5818,0.569,0.5484,0.5422,0.5428,0.5428,0.5428,0.5428,0.5428,0.5428,0.5428,0.5359,0.5292,0.5156,0.5024,0.4824,0.4495,0.4164,0.3694,0.3224,0.282,0.2488,0.2221,0.1883,0.1479,0.1076,0.0472,0.0472,0.0404,0.0337,-0.0067,-0.0472,-0.0944,-0.1212,-0.1345,-0.1412,-0.1412,-0.1614,-0.1816,-0.2084,-0.2287,-0.242,-0.2487,-0.2487,-0.2621,-0.2622,-0.2621,1.8045,1.8442,1.8857,1.8884,1.8656,1.8173,1.8045,1.7968,1.7636,1.7485,1.7485,1.7485,1.7485,1.7485,1.7485,1.7485,1.7485,1.7479,1.7382,1.7225,1.7219,1.708,1.6833,1.6628,1.6447,1.6266,1.6018,1.5885,1.5885,1.5885,1.5795,1.5638,1.5547,1.5282,1.4896,1.4763,1.4582,1.4352,1.4298,1.4298,1.4112,1.3732,1.3324,1.3046,1.2381,1.1882,1.1467,1.123,1.0993,1.0756,1.053,1.0261,0.9943,0.9707,0.94,0.9028,0.8555,0.8209,0.8022,0.7657,0.7461,0.7265,0.7073,0.6876,0.6741,0.6548,0.6354,0.6214,0.602,0.5752,0.5484,0.5422,0.5428,0.5428,0.5428,0.5428,0.5428,0.5428,0.5359,0.5292,0.5223,0.5024,0.4827,0.4498,0.4164,0.383,0.336,0.2889,0.2554,0.222,0.2153,0.1681,0.1076,0.0471,-0.0135,-0.0337,-0.0269,-0.0404,-0.0404,-0.0809,-0.1078,-0.1278,-0.1479,-0.1547,-0.1681,-0.1884,-0.2085,-0.2354,-0.2487,-0.2686,-0.2686,-0.2619,-0.2688,-0.2822,-0.2822,1.7658,1.8039,1.8729,1.8846,1.8599,1.8268,1.8165,1.8179,1.7726,1.7515,1.7485,1.7485,1.7485,1.7485,1.7485,1.7485,1.7485,1.7485,1.7473,1.7443,1.7449,1.7322,1.7098,1.7032,1.6736,1.6284,1.6018,1.5891,1.5885,1.5885,1.5873,1.5831,1.5638,1.5384,1.5095,1.4859,1.46,1.4364,1.4298,1.4208,1.3937,1.3642,1.3335,1.2814,1.2352,1.1919,1.1704,1.1462,1.1203,1.0972,1.074,1.0412,0.9894,0.9723,0.948,0.9157,0.8653,0.8225,0.8032,0.7661,0.7526,0.7396,0.7138,0.6881,0.6811,0.6618,0.6354,0.6218,0.6017,0.5752,0.5481,0.5422,0.5428,0.5428,0.5428,0.5428,0.5428,0.5428,0.5292,0.5156,0.5024,0.4824,0.4498,0.4233,0.3964,0.3362,0.2958,0.2621,0.2354,0.1951,0.1816,0.1615,0.0875,-0.0202,-0.0674,-0.108,-0.1079,-0.1011,-0.1011,-0.1146,-0.1279,-0.1479,-0.1681,-0.1748,-0.2017,-0.222,-0.2487,-0.2688,-0.2688,-0.282,-0.2753,-0.282,-0.2889,-0.2956,-0.3025,1.74,1.7658,1.8179,1.8442,1.853,1.8578,1.8463,1.8269,1.7901,1.766,1.7503,1.7485,1.7485,1.7485,1.7485,1.7485,1.7485,1.7485,1.7485,1.7485,1.7485,1.7443,1.734,1.7177,1.6815,1.6326,1.6018,1.5891,1.5885,1.5885,1.5885,1.5867,1.5813,1.5535,1.5137,1.5016,1.4775,1.4352,1.4298,1.4208,1.3931,1.3642,1.3301,1.3008,1.245,1.2005,1.1925,1.1558,1.1241,1.1004,1.0762,1.0338,0.9779,0.9627,0.9406,0.9104,0.8599,0.8245,0.8028,0.7739,0.7531,0.7461,0.7138,0.6946,0.6881,0.6618,0.642,0.6284,0.6086,0.5822,0.5756,0.5557,0.5428,0.5428,0.5428,0.5428,0.5359,0.5292,0.509,0.4894,0.4827,0.4628,0.4298,0.4033,0.3563,0.2958,0.269,0.2421,0.1883,0.1817,0.1481,0.0808,-0.0135,-0.0674,-0.0944,-0.1146,-0.1145,-0.1212,-0.1212,-0.1347,-0.1548,-0.1748,-0.1884,-0.2153,-0.2354,-0.2622,-0.2822,-0.2956,-0.3023,-0.3023,-0.309,-0.309,-0.3159,-0.3159,-0.3226,1.7136,1.7394,1.7653,1.8039,1.8407,1.8542,1.8464,1.839,1.8034,1.7781,1.7636,1.7527,1.7485,1.7485,1.7485,1.7485,1.7485,1.7485,1.7485,1.7485,1.7485,1.7485,1.7449,1.7213,1.6881,1.6477,1.6169,1.5982,1.5891,1.5885,1.5885,1.5885,1.5885,1.568,1.527,1.5143,1.4877,1.4503,1.4352,1.4112,1.3829,1.3539,1.3346,1.2989,1.2476,1.2243,1.2032,1.1682,1.137,1.1112,1.0739,1.0174,0.9606,0.9463,0.9365,0.9008,0.8702,0.8367,0.8006,0.7784,0.7598,0.748,0.7138,0.6946,0.6815,0.6552,0.635,0.6284,0.602,0.5822,0.5826,0.5627,0.5428,0.5428,0.5428,0.5359,0.5292,0.509,0.4891,0.4761,0.4628,0.4361,0.4097,0.3696,0.3161,0.269,0.249,0.2153,0.1547,0.1346,0.0606,-0.0067,-0.0607,-0.0944,-0.1078,-0.1145,-0.1212,-0.1278,-0.1345,-0.1548,-0.1816,-0.1951,-0.2153,-0.2487,-0.2755,-0.2958,-0.3159,-0.3291,-0.3357,-0.3424,-0.3357,-0.3424,-0.3493,-0.3493,-0.3493,1.7001,1.7007,1.74,1.7781,1.8005,1.818,1.8441,1.8583,1.8143,1.7901,1.7811,1.7593,1.7485,1.7485,1.7485,1.7485,1.7485,1.7485,1.7485,1.7485,1.7485,1.7485,1.7449,1.7213,1.6936,1.6664,1.6386,1.6133,1.5897,1.5885,1.5885,1.5885,1.5879,1.5759,1.5469,1.5234,1.4974,1.4684,1.4431,1.4022,1.3539,1.3443,1.3249,1.2851,1.2522,1.228,1.2043,1.1673,1.1428,1.1187,1.0589,0.9946,0.9418,0.9322,0.922,0.8965,0.8778,0.8485,0.8117,0.7841,0.7683,0.7536,0.7161,0.6881,0.6749,0.6482,0.6214,0.6152,0.5815,0.5686,0.5822,0.5627,0.5428,0.5359,0.5359,0.5292,0.5087,0.4891,0.4694,0.4561,0.4364,0.4167,0.3828,0.3426,0.2958,0.249,0.2221,0.1817,0.1144,0.0606,-0.027,-0.0742,-0.1012,-0.1079,-0.1146,-0.1212,-0.1278,-0.148,-0.1547,-0.1816,-0.2085,-0.2287,-0.249,-0.2891,-0.309,-0.3295,-0.3429,-0.356,-0.3625,-0.3625,-0.3692,-0.3825,-0.3758,-0.3694,-0.3692,1.7001,1.7007,1.7653,1.791,1.8028,1.8605,1.8728,1.8656,1.8336,1.8058,1.7859,1.7593,1.7485,1.7485,1.7485,1.7485,1.7485,1.7485,1.7485,1.7485,1.7485,1.7485,1.743,1.7213,1.6954,1.6688,1.6416,1.6145,1.5903,1.5885,1.5885,1.5885,1.5885,1.5765,1.5499,1.5246,1.498,1.4616,1.4261,1.3829,1.3539,1.334,1.3055,1.2834,1.2544,1.2208,1.1757,1.129,1.0807,1.0528,1.0239,0.9792,0.9153,0.9094,0.8983,0.8835,0.8625,0.8441,0.8279,0.7957,0.7705,0.7495,0.7118,0.6815,0.6548,0.635,0.6148,0.602,0.5752,0.5686,0.5822,0.5561,0.5296,0.503,0.5093,0.509,0.4824,0.4694,0.4561,0.4228,0.4095,0.3828,0.3493,0.3159,0.2757,0.222,0.1884,0.1549,0.0808,-0.0,-0.0742,-0.0877,-0.1078,-0.1146,-0.1212,-0.1278,-0.1412,-0.1681,-0.1884,-0.2085,-0.2421,-0.269,-0.296,-0.3295,-0.3426,-0.3627,-0.3694,-0.3758,-0.3825,-0.3894,-0.3892,-0.3959,-0.3892,-0.3828,-0.3825,1.7001,1.7007,1.7523,1.791,1.8039,1.8688,1.8866,1.8788,1.845,1.8209,1.7986,1.7636,1.7485,1.7485,1.7485,1.7485,1.7485,1.7485,1.7485,1.7485,1.7485,1.7485,1.7418,1.7213,1.6954,1.6694,1.6416,1.6151,1.5928,1.5885,1.5885,1.5885,1.5885,1.5807,1.5662,1.5282,1.4939,1.4636,1.4143,1.3732,1.3346,1.3152,1.305,1.2743,1.2518,1.2126,1.1589,1.0878,1.0354,1.0095,0.9882,0.9542,0.8995,0.8865,0.8789,0.8694,0.859,0.8505,0.8314,0.8093,0.7803,0.7503,0.7099,0.681,0.655,0.6254,0.5974,0.5826,0.5554,0.5488,0.5422,0.5292,0.496,0.4691,0.4758,0.4824,0.4625,0.4425,0.4295,0.4028,0.3828,0.356,0.3228,0.2891,0.2488,0.2018,0.1748,0.1279,0.0607,-0.027,-0.0944,-0.1079,-0.1145,-0.1212,-0.1346,-0.1412,-0.1613,-0.1883,-0.2218,-0.2421,-0.2691,-0.3027,-0.3228,-0.3496,-0.3761,-0.3894,-0.3894,-0.3961,-0.403,-0.4097,-0.4095,-0.4092,-0.4092,-0.4095,-0.4092,1.7001,1.7007,1.74,1.7658,1.8033,1.8437,1.8816,1.8976,1.8511,1.8287,1.8155,1.7714,1.7491,1.7485,1.7485,1.7485,1.7485,1.7485,1.7485,1.7485,1.7485,1.7485,1.7449,1.7213,1.6954,1.6694,1.6416,1.6145,1.5946,1.5885,1.5885,1.5885,1.5885,1.5885,1.5765,1.5396,1.4951,1.4696,1.4132,1.3596,1.326,1.3055,1.2953,1.2646,1.2128,1.1742,1.1196,1.0524,1.0028,0.962,0.9663,0.9368,0.8798,0.8737,0.8703,0.8627,0.8604,0.8534,0.8259,0.8111,0.787,0.7431,0.7095,0.6812,0.6533,0.6153,0.5765,0.5602,0.5269,0.5158,0.4998,0.4788,0.4643,0.4434,0.4492,0.4492,0.4492,0.4228,0.3964,0.3894,0.3426,0.3226,0.2958,0.2622,0.2153,0.1816,0.1547,0.1212,0.0539,-0.0202,-0.0742,-0.108,-0.1212,-0.1277,-0.148,-0.1614,-0.1816,-0.2084,-0.2487,-0.2755,-0.3027,-0.3295,-0.3429,-0.3629,-0.3897,-0.403,-0.403,-0.4164,-0.4233,-0.4364,-0.4361,-0.4492,-0.4558,-0.4495,-0.4495,1.7001,1.7001,1.7405,1.7658,1.8039,1.8437,1.8828,1.9024,1.8517,1.8287,1.8167,1.772,1.7497,1.7485,1.7485,1.7485,1.7485,1.7485,1.7485,1.7485,1.7485,1.7485,1.7418,1.7195,1.6948,1.6688,1.641,1.6145,1.5946,1.5885,1.5885,1.5891,1.5891,1.5885,1.5831,1.5356,1.4985,1.4575,1.3968,1.3422,1.3066,1.2861,1.2759,1.2344,1.1582,1.0983,1.0619,0.9906,0.9407,0.9176,0.9243,0.9138,0.889,0.8798,0.8646,0.8479,0.8475,0.838,0.8098,0.7829,0.7504,0.7241,0.6844,0.6508,0.6272,0.5969,0.5671,0.5496,0.5355,0.5075,0.4861,0.464,0.4455,0.4333,0.4233,0.4161,0.4095,0.4025,0.3828,0.3493,0.3226,0.3025,0.2488,0.2354,0.1951,0.1614,0.1345,0.1076,0.0471,-0.0202,-0.0674,-0.1146,-0.128,-0.1412,-0.1614,-0.1816,-0.2084,-0.2353,-0.2688,-0.2956,-0.3228,-0.3496,-0.3629,-0.383,-0.403,-0.4164,-0.4231,-0.4361,-0.4495,-0.4561,-0.4634,-0.4776,-0.4849,-0.484,-0.5023,1.7001,1.7007,1.74,1.7658,1.8039,1.8437,1.8756,1.8831,1.8475,1.8215,1.8028,1.7648,1.7485,1.7485,1.7485,1.7485,1.7485,1.7485,1.7485,1.7485,1.7479,1.7418,1.7249,1.7056,1.6821,1.664,1.6278,1.6024,1.5922,1.5891,1.5791,1.5684,1.569,1.5577,1.5429,1.5112,1.4631,1.4276,1.383,1.3292,1.2797,1.2662,1.2273,1.1833,1.0986,1.0412,1.0001,0.956,0.913,0.8845,0.8742,0.8755,0.8754,0.8599,0.8508,0.8345,0.8174,0.8016,0.7753,0.7559,0.7199,0.681,0.6578,0.6282,0.6009,0.5762,0.5574,0.5394,0.5147,0.4976,0.4776,0.463,0.437,0.412,0.4059,0.3897,0.3694,0.3627,0.356,0.3161,0.2891,0.2624,0.2288,0.2018,0.1749,0.1412,0.074,0.0471,0.0269,-0.0404,-0.0876,-0.1212,-0.1346,-0.1547,-0.1748,-0.2018,-0.2354,-0.2622,-0.2889,-0.3159,-0.3362,-0.3629,-0.3894,-0.403,-0.4164,-0.4361,-0.4495,-0.4625,-0.4694,-0.4697,-0.4843,-0.4998,-0.5171,-0.5348,-0.5562,1.7001,1.7007,1.7271,1.7653,1.8033,1.8262,1.851,1.8674,1.8354,1.8082,1.7865,1.7599,1.7485,1.7485,1.7485,1.7485,1.7485,1.7485,1.7485,1.7485,1.7394,1.7292,1.7086,1.6827,1.6516,1.6468,1.6054,1.5809,1.5684,1.5785,1.5577,1.5476,1.5482,1.5374,1.499,1.4741,1.4526,1.4076,1.3628,1.3181,1.2562,1.2309,1.1883,1.1156,1.0596,1.0048,0.9609,0.9117,0.8828,0.8504,0.8249,0.8246,0.8248,0.8339,0.8181,0.8013,0.7854,0.7602,0.7338,0.7092,0.678,0.6244,0.6167,0.6036,0.5711,0.5529,0.5417,0.5211,0.5032,0.4874,0.4756,0.4549,0.4252,0.3978,0.3898,0.3717,0.3362,0.3159,0.3027,0.2958,0.2622,0.2288,0.2018,0.1748,0.148,0.1077,0.0404,-0.0135,-0.0337,-0.0606,-0.1078,-0.1414,-0.1614,-0.1904,-0.2183,-0.2426,-0.2694,-0.2955,-0.3213,-0.3487,-0.3687,-0.3883,-0.4159,-0.4172,-0.4298,-0.4498,-0.4628,-0.4758,-0.4831,-0.4837,-0.5087,-0.5348,-0.5614,-0.5807,-0.6054,1.7001,1.7001,1.7007,1.7389,1.7871,1.7822,1.8087,1.8607,1.8155,1.7925,1.7835,1.7599,1.7485,1.7479,1.7479,1.7473,1.7418,1.7394,1.7418,1.7382,1.7255,1.7086,1.6834,1.6392,1.6074,1.5967,1.5725,1.5369,1.525,1.5148,1.5148,1.5148,1.5267,1.5166,1.4928,1.4871,1.4501,1.4047,1.3513,1.2983,1.2542,1.1865,1.1292,1.0493,0.9951,0.9556,0.9163,0.8641,0.8083,0.7858,0.7897,0.7887,0.7785,0.78,0.7736,0.7585,0.7442,0.7156,0.6843,0.657,0.6335,0.6022,0.5867,0.5715,0.56,0.5437,0.5245,0.5166,0.4917,0.4757,0.4902,0.454,0.4152,0.3907,0.3686,0.3571,0.3177,0.2824,0.2557,0.2421,0.222,0.2018,0.1749,0.1412,0.1077,0.0673,-0.0,-0.0539,-0.0942,-0.1077,-0.1347,-0.1616,-0.1884,-0.2255,-0.2635,-0.2838,-0.3156,-0.3353,-0.3624,-0.3977,-0.4174,-0.4338,-0.4442,-0.4608,-0.4607,-0.4703,-0.4834,-0.4979,-0.5103,-0.5235,-0.5549,-0.5797,-0.6032,-0.6268,-0.6425,1.7001,1.7001,1.7001,1.7312,1.7706,1.7719,1.7888,1.8245,1.7986,1.7793,1.7666,1.7539,1.7485,1.7449,1.7328,1.7219,1.7117,1.7201,1.7201,1.7038,1.7067,1.6803,1.6606,1.6068,1.5574,1.5338,1.5093,1.5041,1.5041,1.5041,1.4934,1.4826,1.4945,1.4945,1.4617,1.4498,1.4265,1.3846,1.3487,1.2848,1.2023,1.1203,1.0323,0.9891,0.9347,0.8874,0.8668,0.8094,0.7519,0.7204,0.7205,0.7088,0.7054,0.7035,0.7154,0.7122,0.6929,0.669,0.6363,0.6081,0.587,0.5631,0.5476,0.5401,0.5249,0.5087,0.501,0.4854,0.4698,0.4603,0.4624,0.4348,0.4084,0.3745,0.353,0.3322,0.2984,0.256,0.222,0.1951,0.1817,0.1682,0.1548,0.1212,0.0808,0.0202,-0.0471,-0.0943,-0.1415,-0.1554,-0.1627,-0.2066,-0.2352,-0.267,-0.3066,-0.3334,-0.3611,-0.3825,-0.4111,-0.4403,-0.4662,-0.4819,-0.4989,-0.5234,-0.5146,-0.5033,-0.519,-0.5436,-0.5576,-0.5644,-0.5965,-0.6242,-0.6501,-0.6676,-0.6822,1.7001,1.7001,1.6958,1.7207,1.7542,1.7542,1.7661,1.7799,1.7817,1.7678,1.7497,1.7424,1.7388,1.7334,1.7135,1.6905,1.67,1.6849,1.6861,1.6736,1.654,1.6279,1.6032,1.5666,1.5235,1.478,1.4628,1.4611,1.4719,1.4826,1.4719,1.4611,1.4617,1.4509,1.4299,1.4299,1.3826,1.363,1.3288,1.264,1.136,1.0224,0.9426,0.9331,0.863,0.8273,0.7986,0.7617,0.7213,0.6882,0.6691,0.6615,0.6499,0.6382,0.6533,0.6648,0.6318,0.6153,0.5891,0.5753,0.5526,0.5329,0.5243,0.5087,0.4935,0.4779,0.4621,0.4384,0.4307,0.4307,0.4283,0.416,0.3845,0.3532,0.3373,0.3151,0.2672,0.2301,0.1951,0.1748,0.1481,0.1214,0.1014,0.1077,0.0741,-0.0336,-0.1009,-0.1226,-0.1635,-0.1777,-0.1999,-0.2472,-0.2797,-0.3197,-0.353,-0.3778,-0.405,-0.4363,-0.4584,-0.4886,-0.514,-0.5304,-0.5557,-0.5734,-0.5661,-0.5634,-0.5804,-0.5919,-0.5994,-0.62,-0.6467,-0.6707,-0.7064,-0.7277,-0.7397,1.7001,1.6985,1.6786,1.7064,1.7457,1.72,1.7346,1.7847,1.7636,1.7521,1.7436,1.7255,1.7153,1.705,1.6857,1.673,1.667,1.6504,1.6486,1.6456,1.5969,1.5759,1.5701,1.5058,1.4905,1.4498,1.4401,1.4299,1.4407,1.4407,1.4299,1.4299,1.4299,1.4191,1.4191,1.4083,1.3964,1.367,1.3174,1.2125,1.0645,0.9829,0.9145,0.8535,0.8038,0.7826,0.7381,0.7116,0.6921,0.6687,0.6771,0.6659,0.6548,0.6433,0.6271,0.6228,0.6168,0.6005,0.5665,0.5511,0.5362,0.514,0.4951,0.4784,0.4701,0.4545,0.4387,0.4157,0.4155,0.4075,0.3997,0.3906,0.3619,0.3388,0.3151,0.286,0.2446,0.2122,0.1836,0.143,0.1164,0.0682,0.034,0.0542,0.0606,-0.0538,-0.1417,-0.1644,-0.1944,-0.2167,-0.2395,-0.289,-0.3323,-0.367,-0.3988,-0.4249,-0.4493,-0.4828,-0.5135,-0.5445,-0.5635,-0.5813,-0.6091,-0.6243,-0.6237,-0.6246,-0.6448,-0.6569,-0.6523,-0.6722,-0.7016,-0.7364,-0.7736,-0.7842,-0.7893,1.681,1.6786,1.6565,1.675,1.7094,1.6988,1.7188,1.7529,1.7533,1.7394,1.7267,1.7153,1.6942,1.6682,1.6507,1.6374,1.6272,1.6144,1.6023,1.6053,1.559,1.5304,1.5058,1.4769,1.4606,1.4401,1.4299,1.4191,1.4196,1.4196,1.4196,1.4191,1.4191,1.4083,1.3975,1.3862,1.3645,1.3106,1.2346,1.1354,1.0318,0.9384,0.8634,0.8041,0.7543,0.7241,0.7024,0.6699,0.662,0.6474,0.6492,0.6421,0.6298,0.6132,0.6056,0.6012,0.5983,0.5748,0.5591,0.5501,0.5235,0.5071,0.479,0.4696,0.4411,0.4311,0.4153,0.3921,0.3921,0.3843,0.3763,0.3684,0.3478,0.3188,0.2972,0.2611,0.227,0.2028,0.1728,0.1318,0.0835,0.0348,-0.0139,-0.0278,-0.0277,-0.0968,-0.1742,-0.2052,-0.2443,-0.2838,-0.3081,-0.3337,-0.3783,-0.416,-0.4471,-0.4719,-0.4944,-0.5271,-0.5739,-0.5976,-0.614,-0.6343,-0.6601,-0.6897,-0.6978,-0.7088,-0.7232,-0.7118,-0.7028,-0.7261,-0.7593,-0.7812,-0.8097,-0.8021,-0.8152,1.669,1.6468,1.6291,1.6475,1.6903,1.6846,1.7072,1.7497,1.7406,1.7274,1.7092,1.6936,1.661,1.629,1.6187,1.6097,1.5916,1.5785,1.5684,1.5476,1.5256,1.4939,1.4736,1.4504,1.4401,1.4196,1.4196,1.4083,1.4083,1.4083,1.4083,1.4083,1.398,1.3867,1.364,1.3532,1.3202,1.2733,1.1516,1.0598,0.9979,0.8892,0.8272,0.7739,0.7244,0.6845,0.6845,0.6637,0.638,0.6336,0.6314,0.6352,0.6236,0.6164,0.5975,0.5909,0.5806,0.5633,0.5502,0.5395,0.5199,0.503,0.4708,0.4494,0.4093,0.3999,0.3921,0.3763,0.3684,0.3765,0.3765,0.3528,0.3269,0.2984,0.2695,0.2414,0.2152,0.185,0.1345,0.0709,0.0285,-0.0144,-0.0575,-0.1006,-0.1288,-0.1566,-0.2013,-0.2482,-0.2886,-0.3375,-0.363,-0.3878,-0.4215,-0.4593,-0.483,-0.5076,-0.5318,-0.5709,-0.6177,-0.649,-0.6637,-0.6865,-0.7138,-0.7387,-0.7638,-0.7749,-0.7806,-0.763,-0.7538,-0.7681,-0.7888,-0.8143,-0.8327,-0.8327,-0.8479,1.6585,1.5994,1.5978,1.6321,1.6874,1.6657,1.6914,1.743,1.7225,1.7105,1.6954,1.6585,1.6217,1.6,1.597,1.594,1.5891,1.569,1.5476,1.5256,1.4928,1.4713,1.4504,1.4401,1.4191,1.4191,1.4083,1.3975,1.3753,1.3753,1.3753,1.3753,1.365,1.3542,1.3207,1.298,1.2654,1.2031,1.0979,1.0172,0.9546,0.8628,0.7852,0.7347,0.6948,0.6642,0.6439,0.6442,0.6431,0.6401,0.6399,0.6369,0.6265,0.6206,0.6111,0.5901,0.5715,0.5549,0.5361,0.5254,0.5142,0.487,0.4603,0.4183,0.3853,0.3841,0.3684,0.3526,0.3528,0.353,0.3532,0.3374,0.2971,0.2631,0.2433,0.2247,0.1917,0.1609,0.1019,0.0291,-0.0293,-0.0666,-0.1041,-0.1487,-0.1692,-0.1973,-0.2578,-0.2991,-0.3327,-0.3749,-0.4017,-0.4351,-0.4665,-0.4999,-0.5079,-0.5395,-0.5864,-0.6173,-0.656,-0.6872,-0.7103,-0.733,-0.7561,-0.7714,-0.7944,-0.8174,-0.8327,-0.8268,-0.817,-0.8062,-0.8174,-0.8556,-0.8856,-0.8937,-0.9089,1.6323,1.5736,1.5731,1.6084,1.6674,1.6577,1.6803,1.7243,1.7129,1.6881,1.6579,1.6205,1.5988,1.591,1.5891,1.5791,1.569,1.5583,1.5261,1.4934,1.4713,1.4498,1.4401,1.4299,1.4191,1.4191,1.3975,1.3867,1.3748,1.3428,1.3093,1.2989,1.3212,1.3098,1.2762,1.2214,1.1782,1.125,1.0478,0.9754,0.8942,0.8313,0.7478,0.7059,0.6759,0.6589,0.6524,0.6469,0.645,0.6437,0.6437,0.6401,0.6361,0.6312,0.6125,0.5913,0.5727,0.5443,0.5282,0.5087,0.4966,0.4629,0.4276,0.3945,0.3626,0.3606,0.345,0.3372,0.3217,0.3295,0.3297,0.3061,0.2741,0.2338,0.2086,0.1983,0.1664,0.1275,0.0747,-0.0075,-0.0757,-0.1305,-0.1615,-0.2002,-0.2127,-0.2252,-0.2954,-0.3516,-0.3853,-0.4183,-0.4445,-0.4774,-0.5162,-0.5476,-0.5631,-0.6022,-0.6412,-0.6718,-0.7019,-0.7253,-0.7488,-0.7718,-0.7949,-0.8102,-0.8327,-0.8556,-0.8708,-0.8789,-0.8708,-0.8546,-0.8703,-0.9089,-0.9316,-0.9614,-0.969,1.6183,1.572,1.5596,1.5952,1.6301,1.634,1.6442,1.6736,1.6672,1.638,1.594,1.5749,1.5672,1.5672,1.5571,1.5577,1.5369,1.5148,1.4934,1.4719,1.4504,1.4401,1.4299,1.4196,1.4088,1.4083,1.3867,1.3645,1.3423,1.3098,1.2767,1.255,1.2659,1.2545,1.211,1.1455,1.0802,1.0397,0.9789,0.9195,0.8411,0.7811,0.7394,0.7079,0.6705,0.657,0.6589,0.654,0.648,0.6453,0.6437,0.6337,0.631,0.6171,0.6015,0.5835,0.5553,0.5339,0.5069,0.4973,0.4669,0.427,0.3999,0.3745,0.3508,0.3388,0.3215,0.2981,0.2904,0.2904,0.2904,0.2669,0.2512,0.219,0.1946,0.1773,0.1309,0.0843,0.0306,-0.0383,-0.1008,-0.164,-0.2183,-0.2568,-0.2863,-0.2988,-0.3233,-0.3868,-0.4346,-0.4675,-0.4916,-0.524,-0.5556,-0.5948,-0.6261,-0.6644,-0.6949,-0.7103,-0.733,-0.7561,-0.7791,-0.8102,-0.8331,-0.8403,-0.8632,-0.8937,-0.9165,-0.9316,-0.9155,-0.8917,-0.9306,-0.9776,-0.9992,-1.0218,-1.0363,1.629,1.6087,1.5698,1.5817,1.6004,1.5815,1.5935,1.6149,1.5758,1.5424,1.5206,1.5148,1.5143,1.5143,1.5143,1.5148,1.5041,1.4821,1.4606,1.4504,1.4401,1.4196,1.4196,1.4088,1.3975,1.3753,1.364,1.3315,1.2989,1.2772,1.2441,1.2114,1.2005,1.1891,1.1568,1.1021,1.0363,0.979,0.9092,0.8592,0.821,0.7548,0.7285,0.7095,0.6857,0.6706,0.6657,0.6505,0.6433,0.6353,0.6239,0.6137,0.6032,0.6029,0.5879,0.5601,0.5282,0.5077,0.4827,0.4718,0.4431,0.3988,0.381,0.3571,0.3253,0.3115,0.2909,0.2596,0.2511,0.2512,0.2357,0.2201,0.2201,0.2041,0.1797,0.1403,0.0856,0.0311,-0.0233,-0.0775,-0.1327,-0.1963,-0.2588,-0.3134,-0.3524,-0.375,-0.3759,-0.4151,-0.4696,-0.5162,-0.5473,-0.5709,-0.6022,-0.6405,-0.6718,-0.718,-0.7407,-0.7561,-0.7714,-0.7944,-0.8174,-0.8479,-0.8632,-0.8703,-0.9008,-0.9392,-0.9614,-0.9841,-0.9825,-0.9814,-1.0148,-1.0536,-1.0674,-1.0812,-1.0962,1.5853,1.5358,1.5243,1.5243,1.5363,1.5561,1.5761,1.5646,1.5321,1.511,1.5047,1.5041,1.5041,1.5041,1.4934,1.4934,1.4719,1.4713,1.4606,1.4293,1.4191,1.4083,1.3975,1.3862,1.3753,1.3423,1.331,1.3207,1.2881,1.2555,1.2114,1.1787,1.1131,1.0911,1.0688,1.0139,0.9364,0.912,0.857,0.7945,0.7723,0.741,0.716,0.7124,0.6858,0.6793,0.6728,0.6466,0.6266,0.616,0.6039,0.5837,0.5737,0.5737,0.5622,0.5367,0.5141,0.4812,0.4469,0.4262,0.4088,0.3843,0.3619,0.3291,0.2944,0.2831,0.2555,0.2287,0.22,0.2201,0.2044,0.1965,0.1887,0.1493,0.1176,0.0706,0.0235,-0.0313,-0.0861,-0.133,-0.1884,-0.2511,-0.3215,-0.3604,-0.4075,-0.4465,-0.454,-0.4618,-0.5007,-0.5631,-0.6022,-0.6177,-0.6409,-0.6791,-0.7173,-0.7561,-0.7791,-0.7944,-0.8174,-0.8399,-0.8632,-0.8861,-0.9089,-0.9241,-0.9468,-0.9771,-1.0062,-1.0357,-1.0645,-1.0801,-1.1204,-1.1285,-1.1267,-1.1409,-1.1632,1.5602,1.5117,1.4999,1.4837,1.4912,1.5161,1.5216,1.497,1.4786,1.4719,1.4719,1.4719,1.4719,1.4719,1.4719,1.4611,1.4504,1.4504,1.4288,1.4083,1.397,1.3862,1.3645,1.3532,1.3423,1.3207,1.2985,1.2881,1.2555,1.2223,1.1787,1.1131,1.0363,1.0029,0.9805,0.9364,0.8813,0.8462,0.7959,0.7707,0.7466,0.7205,0.7186,0.7002,0.6864,0.6679,0.6595,0.6399,0.6095,0.5888,0.5737,0.5536,0.5536,0.5436,0.5336,0.5112,0.481,0.4508,0.4124,0.3633,0.357,0.3437,0.332,0.299,0.2649,0.253,0.2246,0.2061,0.1969,0.1808,0.173,0.1651,0.1022,0.0629,0.0471,-0.0,-0.055,-0.11,-0.1335,-0.1884,-0.2354,-0.3059,-0.3684,-0.4151,-0.4462,-0.4929,-0.5318,-0.5395,-0.5473,-0.5944,-0.649,-0.6718,-0.6872,-0.7253,-0.7557,-0.794,-0.8097,-0.825,-0.8556,-0.8861,-0.9008,-0.9241,-0.9468,-0.97,-0.9922,-1.0212,-1.0507,-1.0795,-1.1162,-1.17,-1.2338,-1.2257,-1.1935,-1.2003,-1.2231,1.5332,1.5327,1.4977,1.4841,1.4673,1.4552,1.4412,1.4207,1.4196,1.4191,1.4191,1.4299,1.4299,1.4191,1.4191,1.4191,1.4191,1.4191,1.397,1.3753,1.3748,1.3537,1.332,1.3207,1.2989,1.2876,1.2659,1.2332,1.2005,1.1787,1.135,1.0578,0.9585,0.9144,0.8923,0.8706,0.8263,0.7925,0.7695,0.7436,0.718,0.7199,0.7051,0.6939,0.68,0.6593,0.6399,0.6105,0.5798,0.5606,0.5534,0.5436,0.5238,0.524,0.5037,0.4783,0.4465,0.4113,0.3764,0.3281,0.3058,0.3025,0.2818,0.2587,0.2444,0.2225,0.1943,0.1589,0.1415,0.1415,0.1336,0.0471,-0.0314,-0.0393,-0.0393,-0.0864,-0.1414,-0.1806,-0.2041,-0.2354,-0.2666,-0.3292,-0.3995,-0.4462,-0.5007,-0.5398,-0.5864,-0.617,-0.6247,-0.6328,-0.6795,-0.7253,-0.7407,-0.7714,-0.8021,-0.8322,-0.8551,-0.8708,-0.9018,-0.9322,-0.9468,-0.962,-0.9922,-1.0218,-1.0368,-1.0663,-1.1105,-1.1465,-1.1829,-1.2452,-1.3008,-1.2928,-1.2532,-1.2606,-1.2826,1.4867,1.4505,1.4396,1.4363,1.4315,1.3977,1.393,1.4196,1.4196,1.4196,1.4196,1.4196,1.4083,1.4196,1.3975,1.3862,1.3753,1.365,1.3537,1.3423,1.3423,1.3207,1.2989,1.2767,1.2545,1.2327,1.2114,1.1896,1.1678,1.135,1.0464,0.9471,0.9034,0.8592,0.8263,0.7937,0.7826,0.7598,0.7374,0.7216,0.7056,0.704,0.6891,0.6735,0.6503,0.63,0.6001,0.5754,0.546,0.537,0.5138,0.4935,0.4935,0.4933,0.482,0.4441,0.4151,0.3696,0.3354,0.3002,0.2778,0.2511,0.2315,0.2177,0.2042,0.1831,0.1552,0.1118,0.0629,0.0393,0.0314,-0.0314,-0.1022,-0.1258,-0.1258,-0.1492,-0.1963,-0.2276,-0.251,-0.2978,-0.329,-0.3837,-0.4538,-0.5004,-0.555,-0.5944,-0.6409,-0.6714,-0.6945,-0.7022,-0.7176,-0.7633,-0.7863,-0.8169,-0.8399,-0.8699,-0.8932,-0.9089,-0.9468,-0.97,-0.9846,-1.0067,-1.0368,-1.0738,-1.0962,-1.1409,-1.1929,-1.2218,-1.2432,-1.2966,-1.3521,-1.3368,-1.3287,-1.3353,-1.3492,1.4418,1.398,1.3975,1.3975,1.3769,1.3542,1.3537,1.3753,1.3867,1.3862,1.3867,1.3862,1.3862,1.3759,1.3645,1.3537,1.3537,1.3428,1.332,1.3098,1.3093,1.2876,1.255,1.2332,1.2114,1.1787,1.1564,1.135,1.1021,1.0355,0.9471,0.903,0.8702,0.8156,0.7715,0.7604,0.7493,0.736,0.7216,0.7048,0.6994,0.6829,0.6642,0.6381,0.626,0.5884,0.5707,0.5386,0.5229,0.5054,0.4834,0.4736,0.4636,0.4531,0.4298,0.4029,0.3663,0.3403,0.3063,0.2634,0.2339,0.1973,0.1793,0.1664,0.1284,0.1005,0.0652,0.0318,-0.0237,-0.0707,-0.0786,-0.0943,-0.1573,-0.2124,-0.2123,-0.2042,-0.2354,-0.2586,-0.3056,-0.36,-0.4146,-0.4613,-0.5157,-0.5625,-0.6093,-0.6563,-0.6949,-0.7326,-0.748,-0.7557,-0.7787,-0.8093,-0.8322,-0.8551,-0.8851,-0.9155,-0.9387,-0.962,-0.9916,-1.0143,-1.0218,-1.0443,-1.0818,-1.126,-1.1632,-1.2003,-1.2298,-1.2673,-1.2973,-1.3506,-1.3958,-1.4103,-1.4023,-1.3928,-1.4072,1.3975,1.3748,1.3645,1.3537,1.3207,1.3083,1.3088,1.3207,1.3207,1.3315,1.3315,1.332,1.332,1.3428,1.3315,1.3315,1.3207,1.3098,1.2881,1.2881,1.2767,1.255,1.2114,1.1896,1.1568,1.1459,1.1126,1.0688,1.0249,0.9585,0.9034,0.8809,0.8156,0.7607,0.7382,0.7268,0.7154,0.703,0.6934,0.6735,0.6816,0.6645,0.6353,0.6123,0.5896,0.545,0.539,0.515,0.4922,0.4762,0.4734,0.4638,0.4336,0.4114,0.3775,0.3518,0.3349,0.3004,0.2672,0.2081,0.1529,0.1256,0.1344,0.079,0.0258,-0.0084,-0.0411,-0.0557,-0.1023,-0.1258,-0.1336,-0.1493,-0.1887,-0.228,-0.2357,-0.2511,-0.2901,-0.329,-0.391,-0.438,-0.4927,-0.5392,-0.5854,-0.6244,-0.6633,-0.7103,-0.7561,-0.794,-0.8093,-0.8169,-0.8394,-0.8627,-0.8856,-0.9084,-0.9311,-0.9614,-0.9841,-1.0143,-1.0368,-1.0513,-1.0669,-1.0968,-1.1341,-1.1706,-1.2077,-1.2298,-1.2599,-1.3046,-1.3411,-1.3855,-1.4312,-1.4768,-1.4848,-1.4816,-1.4921,1.3753,1.364,1.332,1.3103,1.2989,1.2654,1.254,1.2659,1.2659,1.2861,1.3202,1.331,1.3295,1.3151,1.3038,1.293,1.2837,1.2714,1.2432,1.2323,1.2209,1.2114,1.1678,1.1345,1.1021,1.0802,1.0363,0.9809,0.9364,0.8813,0.8377,0.7934,0.7496,0.7274,0.6937,0.6824,0.671,0.6594,0.6431,0.6445,0.6417,0.6103,0.5805,0.5653,0.5313,0.522,0.5082,0.4871,0.4659,0.4537,0.4537,0.4336,0.4135,0.3785,0.3526,0.3267,0.3023,0.2688,0.2097,0.1352,0.0629,0.0179,-0.0089,-0.0705,-0.1128,-0.1277,-0.1412,-0.1526,-0.1574,-0.1733,-0.1887,-0.1964,-0.22,-0.2434,-0.2669,-0.3059,-0.3448,-0.407,-0.4688,-0.516,-0.5705,-0.6093,-0.6475,-0.6861,-0.7249,-0.7714,-0.8169,-0.8546,-0.8775,-0.8851,-0.9003,-0.9231,-0.9463,-0.9695,-0.9846,-1.0067,-1.0368,-1.0594,-1.0812,-1.0962,-1.1192,-1.1564,-1.1935,-1.2157,-1.2452,-1.2746,-1.3039,-1.3404,-1.3848,-1.4217,-1.4816,-1.5386,-1.6003,-1.6088,-1.608,1.3537,1.3305,1.2783,1.2636,1.2505,1.2209,1.2162,1.2167,1.2162,1.2269,1.2612,1.2675,1.269,1.2723,1.2486,1.2297,1.2316,1.2163,1.1953,1.1769,1.1746,1.1564,1.1236,1.0798,1.0472,1.0143,0.9478,0.8927,0.8481,0.8039,0.7598,0.7382,0.7163,0.694,0.6495,0.6492,0.6495,0.6262,0.595,0.5967,0.6035,0.5709,0.5412,0.5247,0.5037,0.4937,0.4834,0.4734,0.4537,0.4338,0.4237,0.3935,0.3618,0.3374,0.3116,0.2866,0.2624,0.2202,0.1355,0.0538,-0.0269,-0.0807,-0.1256,-0.1773,-0.1744,-0.1884,-0.1932,-0.1955,-0.2007,-0.2084,-0.2051,-0.212,-0.2747,-0.3137,-0.3294,-0.3604,-0.4148,-0.4768,-0.5315,-0.5786,-0.6254,-0.6633,-0.7019,-0.7403,-0.7791,-0.8246,-0.8703,-0.9084,-0.9311,-0.9609,-0.976,-0.9927,-1.0246,-1.0304,-1.0368,-1.0594,-1.0887,-1.1111,-1.1303,-1.1515,-1.1832,-1.217,-1.2459,-1.2822,-1.3051,-1.3266,-1.363,-1.4084,-1.4369,-1.4705,-1.5361,-1.6033,-1.6701,-1.7432,-1.7631,1.3214,1.2768,1.2278,1.2096,1.2072,1.1907,1.1728,1.1733,1.1728,1.1709,1.1714,1.1873,1.1826,1.1765,1.1714,1.1507,1.1463,1.1613,1.1451,1.1344,1.1346,1.1076,1.0785,1.0472,0.9812,0.9261,0.8598,0.8266,0.7934,0.749,0.7046,0.6935,0.6715,0.6272,0.6272,0.6274,0.6163,0.5999,0.5766,0.5547,0.545,0.5244,0.5172,0.5039,0.4937,0.4736,0.4636,0.4535,0.4338,0.4036,0.3732,0.3417,0.3191,0.2951,0.2705,0.2464,0.2041,0.1368,0.054,-0.0359,-0.1076,-0.1795,-0.2244,-0.2405,-0.2365,-0.2423,-0.2462,-0.2508,-0.2473,-0.2436,-0.2399,-0.2617,-0.3252,-0.3853,-0.401,-0.4229,-0.4927,-0.5547,-0.6015,-0.6412,-0.6795,-0.7253,-0.7638,-0.8025,-0.8403,-0.8784,-0.9165,-0.9539,-0.9916,-1.0363,-1.0663,-1.0865,-1.1145,-1.1115,-1.0986,-1.1289,-1.1621,-1.1897,-1.2168,-1.2241,-1.2513,-1.2955,-1.3372,-1.3518,-1.3793,-1.4111,-1.4479,-1.4925,-1.517,-1.5521,-1.6246,-1.7042,-1.7761,-1.8434,-1.9137,1.2358,1.2035,1.1888,1.1879,1.1869,1.1827,1.1709,1.1507,1.1488,1.1321,1.1003,1.1003,1.1062,1.1399,1.12,1.107,1.1012,1.1128,1.1059,1.0971,1.0803,1.057,1.0104,0.9478,0.8927,0.8374,0.7823,0.7487,0.7268,0.6829,0.6495,0.6492,0.6495,0.6163,0.5935,0.5826,0.5819,0.5658,0.545,0.5224,0.5162,0.4963,0.4859,0.4734,0.4636,0.4537,0.4437,0.4234,0.3935,0.3633,0.3327,0.3003,0.2766,0.2626,0.2291,0.178,0.1284,0.0544,-0.0359,-0.1256,-0.1973,-0.2243,-0.2602,-0.2867,-0.2929,-0.3195,-0.323,-0.3269,-0.3139,-0.2926,-0.2971,-0.3297,-0.3864,-0.4576,-0.5007,-0.5268,-0.5702,-0.6321,-0.6788,-0.7176,-0.7638,-0.8021,-0.8399,-0.8784,-0.9089,-0.9549,-1.0035,-1.0413,-1.0593,-1.1016,-1.1534,-1.1853,-1.2106,-1.1909,-1.1695,-1.2088,-1.2394,-1.2669,-1.3022,-1.3244,-1.3536,-1.393,-1.4245,-1.4532,-1.488,-1.5268,-1.563,-1.5939,-1.6459,-1.6811,-1.7385,-1.8054,-1.877,-1.9476,-2.0134]}]]